     2              OBSERVATION DATA    GPS                 RINEX VERSION / TYPE
teqc 1998Mar9 19980522 19:13:12UTC                          PGM / RUN BY / DATE
                                                            COMMENT
Original Marker Name: OWOW                                  COMMENT
Campaign Name: Landers 1997-1998                            COMMENT
4-Character Station Name: OWOM                              COMMENT
6-Character Antenna Code: DMRCHT                            COMMENT
Vertical Measurement Point: BCR                             COMMENT
Vertical Offset to Rinex Ref. Point: 0.0349                 COMMENT
Radial Measurement Point: ECF                               COMMENT
Radial Offset to Rinex Ref. Point: 0.1896                   COMMENT
Antenna Height from Field Measurement: 1.2090 m             COMMENT
Additional Antenna Identification Info.:                    COMMENT
Turborogue and Ashtech Choke Ring                           COMMENT
Original XYZ: -2367908.3137 -4741438.5968 3537227.5570      COMMENT
New XYZ position is based on association with SCEC monument COMMENT
E1F2C9L4+0011. Position of that monument is believed to be  COMMENT
valid to within 1 m horizontally; vertical accuracy         COMMENT
should be no worse than 3-times this value.                 COMMENT
                                                            COMMENT
Revised Rinex header created by UCSD GPS archive for        COMMENT
GSAC on 14-Apr-1999 (1999:104) 22:49:44 GMT                 COMMENT
For assistance contact dagnew@ucsd.edu or hjohnson@ucsd.edu COMMENT
                                                            COMMENT
OLD WOMEN 1935                                              MARKER NAME
MSM UNIV CALIF LOS ANGELES                                  OBSERVER / AGENCY
107 ASHTECH Z12-XII3 1F50                                   REC # / TYPE / VERS
782 DORNE-MARGOL. TYPE T                                    ANT # / TYPE
 -2372181.0000 -4705938.0000  3582784.0000                  APPROX POSITION XYZ
        1.1591        0.0000        0.0000                  ANTENNA: DELTA H/E/N
     1     1     0                                          WAVELENGTH FACT L1/2
     7    C1    L1    L2    P1    P2    S1    S2            # / TYPES OF OBSERV
     0                                                      INTERVAL
  1998     3    17    22    57   30.000000                  TIME OF FIRST OBS
  1998     3    19     2     0   60.000000                  TIME OF LAST OBS
     0                                                      # OF SATELLITES
                                                            END OF HEADER
 98  3 17 22 57 30.0000000  0  7G30G24G 4G 5G 8G 9G10
  20982937.890    20982942.981                                    20982924.957
       214.000          74.000
  17400748.058      -24415.73347  17400748.143                    17400755.486
       244.000         200.000
  18601742.888       16056.66046  18601743.201                    18601749.619
       241.000         179.000
  18263936.693      -34452.66346  18263936.310                    18263943.394
       242.000         186.000
  18843257.701      -17443.13746  18843256.755                    18843264.146
       233.000         168.000
  19112893.750       16083.93046                  19112893.569    19112901.172
       237.000         185.000
  21255691.617                                    21255691.581    21255849.456
       210.000          74.000
 98  3 17 22 58  0.0000000  0  8G30G24G 4G 5G 7G 8G 9G10
  20957639.673    20957644.605                                    20957652.667
       214.000          74.000
  17392031.626      -87429.07749    -60107.92647  17392031.647    17392039.100
       244.000         212.000
  18607563.223       63957.12749     39890.87447  18607563.522    18607570.445
       240.000         200.000
  18246346.522     -153205.11049   -106481.58247  18246346.047    18246353.257
       242.000         205.000
  21297999.015    21298004.648                                    21298003.978
       210.000          74.000
  18834411.936      -77166.10949    -53664.32846  18834411.678    18834418.978
       233.000         187.000
  19117503.066       49883.95649     34958.40247  19117502.908    19117510.764
       236.000         193.000
  21230896.520                                    21230895.117    21230907.604
       209.000          74.000
 98  3 17 22 58 30.0000000  0  8G30G24G 4G 5G 7G 8G 9G10
  23930271.672    23930277.703                                    23930342.270
       214.000          74.000
  20381326.823     -132776.70649    -95443.72448  20381326.791    20381334.116
       243.000         214.000
  21611366.109       94844.38949     63958.84747  21611366.252    21611372.806
       238.000         201.000
  21226733.726     -245363.73649   -178293.46647  21226733.488    21226740.764
       244.000         208.000
  24302571.893    24302578.355                                    24302583.485
       208.000          74.000
  21823598.902     -123080.76249    -89441.96147  21823598.867    21823606.165
       229.000         189.000
  22120098.500       74429.22749     54084.55847  22120098.584    22120106.191
       237.000         196.000
  24204019.772     -251517.92643                  24204018.856    24204030.464
       196.000          76.000
 98  3 17 22 58 59.9990000  0  8G30G24G 4G 5G 7G 8G 9G10
  23605166.933    23605171.910                                    23605168.533
       205.000          74.000
  20072973.718     -177761.34049   -130496.66748  20072974.209    20072981.419
       243.000         214.000
  21317498.384      125982.78149     88222.51847  21317499.282    21317505.570
       240.000         202.000
  20909435.330     -337358.86249   -249977.95047  20909434.919    20909442.088
       244.000         207.000
  24009411.674       78287.68945                  24009410.141    24009420.541
       210.000         137.000
  21515158.201     -168530.18749   -124857.11647  21515157.187    21515165.326
       231.000         190.000
  21825030.686       99256.03749     73430.07547  21825030.376    21825038.315
       236.000         192.000
  23879392.330     -478747.39449   -353197.94645  23879395.399    23879406.548
       211.000         147.000
 98  3 17 22 59 29.9990000  0  8G30G24G 4G 5G 7G 8G 9G10
  23579839.688    23579839.956                                    23579836.739
       215.000          85.000
  20064482.188     -222385.66949   -165268.84748  20064482.288    20064489.606
       244.000         214.000
  21323467.003      157346.79349    112661.99147  21323467.521    21323474.063
       240.000         203.000
  20891963.775     -429172.72849   -321521.18647  20891963.375    20891970.450
       242.000         209.000
  24016021.277      140669.70849    105348.70845  24016019.366    24016030.397
       207.000         143.000
  21506597.715     -213515.85649   -159910.86347  21506597.153    21506604.503
       235.000         190.000
  21829805.374      124347.40049     92981.75947  21829805.350    21829813.214
       235.000         194.000
  23854539.220     -609359.12249   -454973.05745  23854540.925    23854552.221
       211.000         151.000
 98  3 17 22 59 59.9990000  0  8G30G24G 4G 5G 7G 8G 9G10
  23554496.677    23554475.866                                    23554404.518
       215.000          73.000
  20056061.084     -266639.72949   -199752.51248  20056061.328    20056068.649
       243.000         214.000
  21329481.535      188952.75049    137289.98947  21329482.017    21329489.004
       240.000         202.000
  20874525.251     -520813.07049   -392929.21847  20874525.017    20874531.945
       243.000         209.000
  24022606.125      175275.98849    132314.53945  24022605.236    24022616.607
       209.000         143.000
  21498124.969     -258040.35049   -194605.27547  21498124.388    21498131.867
       232.000         190.000
  21834631.918      149710.75249    112745.37147  21834631.799    21834639.723
       236.000         195.000
  23829663.798     -740085.34549   -556837.41145  23829663.907    23829676.044
       214.000         153.000
 98  3 17 23  0 29.9990000  0  8G30G24G 4G 5G 7G 8G 9G10
  23529154.762    23529155.485                                    23529149.390
       214.000          82.000
  20047725.433     -310444.29749   -233885.92548  20047725.598    20047732.893
       243.000         214.000
  21335558.079      220884.75849    162172.05247  21335558.420    21335565.292
       240.000         202.000
  20857136.486     -612191.55649   -464133.20647  20857136.125    20857142.971
       243.000         209.000
  24029183.016      209838.62749    159246.36645  24029181.934    24029192.232
       207.000         143.000
  21489757.765     -302009.85949   -228867.22247  21489757.331    21489764.506
       232.000         191.000
  21839525.889      175428.81049    132785.37947  21839525.881    21839533.718
       235.000         194.000
  23804779.706     -870853.81449   -658734.68645  23804779.904    23804791.017
       211.000         154.000
 98  3 17 23  0 59.9990000  0  8G30G24G 4G 5G 7G 8G 9G10
  23503815.823    23503820.803                                    23503802.773
       213.000          74.000
  20039482.725     -353760.33949   -267638.66948  20039482.775    20039490.022
       244.000         215.000
  21341699.834      253159.59549    187321.25347  21341700.178    21341707.168
       240.000         202.000
  20839802.843     -703280.46649   -535111.55647  20839802.545    20839809.732
       242.000         210.000
  24035752.249      244360.37149    186146.32945  24035751.466    24035761.873
       208.000         143.000
  21481501.825     -345395.09949   -262673.90947  21481501.076    21481508.270
       233.000         191.000
  21844491.468      201523.28649    153118.69847  21844491.463    21844499.300
       235.000         194.000
  23779892.071    -1001640.17449   -760645.91345  23779892.393    23779902.959
       213.000         154.000
 98  3 17 23  1 29.9990000  0  8G30G24G 4G 5G 7G 8G 9G10
  23478488.612     -111528.46244                  23478487.861    23478494.467
       214.000         126.000
  20031343.984     -396529.91449   -300965.60348  20031343.889    20031351.253
       243.000         215.000
  21347918.211      285837.06949    212784.19347  21347918.474    21347925.431
       239.000         202.000
  20822532.398     -794037.34449   -605831.18447  20822531.891    20822539.069
       243.000         210.000
  24042321.011      278879.77349    213044.48345  24042320.428    24042331.662
       208.000         142.000
  21473365.571     -388151.51249   -295990.58047  21473365.129    21473372.900
       232.000         191.000
  21849533.683      228019.97349    173765.42147  21849533.673    21849541.545
       235.000         194.000
  23755008.361    -1132405.32849   -862540.60745  23755007.431    23755018.841
       212.000         155.000
 98  3 17 23  1 59.9990000  0  8G30G24G 4G 5G 7G 8G 9G10
  23453159.686    -1244373.15849   -215245.73445  23453159.865    23453168.664
       216.000         151.000
  20023298.049     -438811.81549   -333912.52448  20023297.999    20023305.329
       243.000         215.000
  21354199.606      318845.84849    238505.29247  21354199.935    21354206.971
       240.000         202.000
  20805312.626     -884527.64449   -676343.08647  20805312.022    20805319.181
       243.000         210.000
  24048879.746      313345.94549    239901.14445  24048879.167    24048890.056
       207.000         143.000
  21465336.912     -430342.20549   -328866.44847  21465336.477    21465344.531
       231.000         190.000
  21854637.870      254842.55849    194666.09747  21854637.669    21854645.647
       234.000         194.000
  23730115.361    -1263218.75549   -964472.92845  23730114.703    23730125.313
       213.000         155.000
 98  3 17 23  2 29.9990000  0  8G30G24G 4G 5G 7G 8G 9G10
  23427839.782    -1377429.74449   -318926.10545  23427840.144    23427847.785
       212.000         155.000
  20015355.523     -480550.16649   -366435.90348  20015355.538    20015362.652
       244.000         215.000
  21360552.319      352229.23649    264518.29647  21360552.957    21360559.735
       240.000         202.000
  20788155.346     -974689.69649   -746599.20947  20788154.930    20788162.134
       243.000         210.000
  24055442.252      347831.89249    266773.22245  24055441.864    24055452.479
       208.000         141.000
  21457425.239     -471918.12049   -361263.27247  21457424.774    21457432.501
       233.000         190.000
  21859812.947      282037.71849    215857.08947  21859812.717    21859820.752
       235.000         193.000
  23705225.814    -1394013.74749  -1066390.87145  23705225.184    23705235.795
       212.000         154.000
 98  3 17 23  2 59.9990000  0  8G30G24G 4G 5G 7G 8G 9G10
  23402546.677    -1510345.96449   -422497.12045  23402546.804    23402554.785
       218.000         157.000
  20007533.282     -521656.36949   -398466.69648  20007533.383    20007540.591
       244.000         215.000
  21366992.877      386074.32549    290891.06447  21366993.428    21366999.884
       240.000         202.000
  20771074.612    -1064449.66149   -816542.02147  20771074.255    20771081.120
       243.000         210.000
  24062023.998      382418.46249    293723.71645  24062024.317    24062033.403
       203.000         140.000
  21449643.368     -512812.02349   -393128.63747  21449643.151    21449650.712
       233.000         190.000
  21865075.073      309690.54049    237404.70547  21865075.213    21865083.263
       234.000         193.000
  23680360.565    -1524681.01249  -1168209.28845  23680359.978    23680370.895
       215.000         155.000
 98  3 17 23  3 29.9990000  0  8G30G24G 4G 5G 7G 8G 9G10
  23377290.830    -1643065.99249   -525915.24945  23377291.148    23377299.018
       217.000         158.000
  19999834.527     -562113.74549   -429991.91048  19999834.593    19999841.698
       244.000         215.000
  21373525.828      420404.90249    317642.14547  21373526.326    21373533.076
       240.000         202.000
  20754073.799    -1153789.45649   -886157.42547  20754073.474    20754080.465
       243.000         210.000
  24068632.742      417146.97449    320784.79245  24068631.773    24068642.757
       208.000         141.000
  21441999.135     -552982.62249   -424430.40247  21441998.953    21442006.454
       233.000         190.000
  21870431.755      337839.80649    259339.16047  21870431.515    21870440.151
       234.000         193.000
  23655529.009    -1655170.98149  -1269889.55345  23655527.809    23655539.503
       215.000         155.000
 98  3 17 23  3 59.9990000  0  8G30G24G 4G 5G 7G 8G 9G10
  23352078.346    -1775558.15849   -629155.82345  23352078.632    23352086.712
       218.000         159.000
  19992258.880     -601924.22949   -461013.05648  19992258.717    19992265.951
       244.000         215.000
  21380148.911      455209.22349    344762.37647  21380149.431    21380155.838
       240.000         201.000
  20737155.164    -1242697.68649   -955436.54747  20737154.836    20737161.859
       243.000         210.000
  24075269.957      452025.04049    347962.43145  24075269.658    24075280.504
       208.000         141.000
  21434497.638     -592403.27249   -455147.78947  21434497.336    21434504.822
       233.000         191.000
  21875886.399      366503.93049    281674.79847  21875886.689    21875894.255
       234.000         193.000
  23630736.538    -1785455.74949  -1371409.93045  23630735.482    23630746.759
       214.000         154.000
 98  3 17 23  4 29.9990000  0  8G30G24G 4G 5G 7G 8G 9G10
  23326923.284    -1907748.41849   -732161.14145  23326922.807    23326931.140
       219.000         159.000
  19984816.652     -641033.47249   -491487.78148  19984816.699    19984824.101
       244.000         215.000
  21386873.493      490546.95549    372298.24447  21386874.075    21386880.569
       239.000         201.000
  20720330.485    -1331111.95549  -1024330.76747  20720330.184    20720337.232
       243.000         210.000
  24081944.420      487099.11349    375292.78745  24081944.417    24081954.460
       207.000         142.000
  21427151.005     -631010.28849   -485231.17647  21427150.622    21427158.443
       233.000         191.000
  21881449.131      395735.86049    304452.88647  21881449.098    21881456.844
       235.000         193.000
  23605994.871    -1915473.48249  -1472722.23845  23605993.551    23606005.134
       214.000         155.000
 98  3 17 23  4 59.9990000  0  8G30G24G 4G 5G 7G 8G 9G10
  23301819.522    -2039669.10349   -834956.41045  23301820.196    23301827.416
       217.000         160.000
  19977500.748     -679479.00849   -521445.33148  19977500.624    19977507.847
       244.000         215.000
  21393692.797      526382.53749    400222.05647  21393693.124    21393699.813
       239.000         200.000
  20703594.318    -1419061.29649  -1092862.70447  20703594.240    20703600.848
       243.000         211.000
  24088649.120      522332.33149    402747.14845  24088649.245    24088659.702
       207.000         142.000
  21419955.415     -668823.51149   -514696.02547  21419954.854    21419963.034
       233.000         191.000
  21887113.623      425502.69649    327647.78247  21887113.826    21887121.676
       233.000         193.000
  23581294.704    -2045273.04949  -1573864.53645  23581293.770    23581304.749
       213.000         155.000
 98  3 17 23  5 29.9990000  0  8G30G24G 4G 5G 7G 8G 9G10
  23276778.802    -2171258.86349   -937493.79645  23276779.161    23276786.229
       219.000         160.000
  19970322.794     -717199.52749   -550837.93148  19970322.693    19970330.066
       244.000         215.000
  21400618.465      562777.01649    428581.36847  21400618.840    21400625.612
       238.000         200.000
  20686962.996    -1506459.66149  -1160965.30747  20686962.684    20686969.446
       243.000         211.000
  24095398.238      557798.52049    430383.06045  24095397.543    24095407.654
       207.000         140.000
  21412925.310     -705767.10549   -543483.23347  21412925.350    21412932.418
       233.000         192.000
  21892890.733      455861.38249    351303.85647  21892891.127    21892898.903
       234.000         192.000
  23556644.444    -2174810.17749  -1674802.35045  23556642.766    23556655.169
       203.000         154.000
 98  3 17 23  5 59.9990000  0  8G30G24G 4G 5G 7G 8G 9G10
  23251790.182    -2302574.55649  -1039817.62645  23251789.931    23251798.499
       219.000         160.000
  19963276.805     -754226.52749   -579690.12848  19963276.701    19963283.900
       245.000         215.000
  21407645.924      599706.32349    457357.42547  21407646.275    21407653.224
       239.000         200.000
  20670434.801    -1593315.89649  -1228645.47347  20670434.526    20670441.316
       243.000         211.000
  24102188.540      593481.16749    458187.63445  24102188.472    24102199.382
       209.000         142.000
  21406053.769     -741877.70949   -571621.36947  21406053.627    21406060.825
       234.000         192.000
  21898772.773      486771.39949    375389.54347  21898772.725    21898780.462
       233.000         192.000
  23532035.804    -2304128.75649  -1775569.87045  23532034.152    23532045.690
       211.000         155.000
 98  3 17 23  6 29.9990000  0  8G30G24G 4G 5G 7G 8G 9G10
  23226858.122    -2433593.40149  -1141910.15345  23226858.710    23226866.241
       220.000         161.000
  19956370.887     -790517.29749   -607968.64048  19956370.892    19956378.119
       244.000         215.000
  21414785.491      637224.74049    486592.52947  21414785.952    21414792.568
       239.000         200.000
  20654020.555    -1679573.18949  -1295858.93047  20654020.169    20654027.285
       244.000         211.000
  24109029.884      629432.25049    486201.37345  24109029.886    24109040.026
       209.000         142.000
  21399345.607     -777129.60049   -599090.37847  21399345.262    21399352.737
       233.000         192.000
  21904769.398      518283.81549    399944.62447  21904769.534    21904776.865
       233.000         192.000
  23507476.993    -2433185.32649  -1876133.23445  23507475.993    23507486.629
       212.000         156.000
 98  3 17 23  6 59.9990000  0  8G30G24G 4G 5G 7G 8G 9G10
  23201988.889    -2564281.93549  -1243745.28145  23201989.127    23201997.187
       220.000         162.000
  19949611.486     -826038.20449   -635647.25548  19949611.501    19949618.677
       245.000         215.000
  21422044.590      675371.36749    516317.15447  21422045.187    21422051.641
       240.000         200.000
  20637729.002    -1765185.90349  -1362570.11447  20637728.728    20637735.569
       244.000         211.000
  24115929.388      665689.06749    514453.34945  24115928.560    24115938.281
       209.000         141.000
  21392805.527     -811498.08449   -625871.01447  21392804.899    21392812.662
       233.000         192.000
  21910889.920      550447.14949    425006.92147  21910890.156    21910898.065
       233.000         192.000
  23482975.918    -2561938.90149  -1976460.50445  23482974.585    23482985.124
       216.000         156.000
 98  3 17 23  7 29.9990000  0  8G30G24G 4G 5G 7G 8G 9G10
  23177182.281    -2694641.18549  -1345323.82345  23177182.201    23177190.221
       219.000         162.000
  19942997.444     -860795.08749   -662730.53048  19942997.300    19943004.520
       244.000         215.000
  21429423.084      714145.26549    546530.55947  21429423.529    21429430.195
       239.000         200.000
  20621557.652    -1850167.07649  -1428789.19247  20621557.353    20621564.290
       244.000         212.000
  24122884.031      702235.49949    542931.00145  24122883.355    24122894.199
       208.000         141.000
  21386431.883     -844991.80649   -651970.01747  21386431.701    21386439.396
       234.000         192.000
  21917132.691      583252.64349    450569.59447  21917133.154    21917140.780
       233.000         192.000
  23458533.404    -2690384.37649  -2076547.70445  23458532.446    23458542.011
       215.000         156.000
 98  3 17 23  7 59.9990000  0  8G30G24G 4G 5G 7G 8G 9G10
  23152441.344    -2824655.69149  -1446633.74046  23152442.188    23152449.641
       220.000         163.000
  19936530.911     -894777.11349   -689210.02148  19936530.867    19936537.944
       244.000         215.000
  21436921.293      753548.51149    577234.36547  21436921.608    21436928.180
       239.000         200.000
  20605505.990    -1934519.20649  -1494518.10447  20605505.685    20605512.403
       244.000         212.000
  24129893.115      739068.02649    571631.57645  24129893.193    24129903.192
       207.000         140.000
  21380226.784     -877599.73749   -677378.79247  21380226.297    21380233.993
       234.000         192.000
  21923497.798      616700.98749    476633.19247  21923497.958    21923506.105
       233.000         192.000
  23434154.161    -2818497.34049  -2176375.80845  23434153.953    23434163.370
       213.000         156.000
 98  3 17 23  8 29.9990000  0  8G30G24G 4G 5G 7G 8G 9G10
  23127770.757    -2954300.36249  -1547655.47246  23127770.468    23127778.610
       219.000         163.000
  19930215.441     -927965.20949   -715070.86548  19930215.289    19930222.577
       244.000         215.000
  21444538.267      793575.65549    608424.31847  21444538.585    21444545.267
       239.000         200.000
  20589572.875    -2018248.24549  -1559761.49447  20589572.526    20589579.540
       244.000         212.000
  24136953.661      776171.06849    600542.93745  24136953.155    24136962.782
       207.000         139.000
  21374191.434     -909315.73849   -702092.56547  21374190.576    21374198.944
       233.000         192.000
  21929986.470      650798.67049    503202.77347  21929986.786    21929994.097
       233.000         192.000
  23409841.549    -2946260.41149  -2275931.27945  23409840.545    23409851.197
       214.000         157.000
 98  3 17 23  8 59.9990000  0  8G30G24G 4G 5G 7G 8G 9G10
  23103155.308    -3083655.19249  -1648451.34946  23103155.348    23103163.337
       220.000         163.000
  19924034.323     -960447.15749   -740381.46248  19924034.348    19924041.715
       244.000         215.000
  21452253.968      834121.55749    640018.50247  21452254.493    21452261.006
       239.000         199.000
  20573739.062    -2101455.64149  -1624598.40647  20573738.747    20573745.614
       244.000         212.000
  24144046.781      813445.50849    629587.87345  24144046.335    24144057.434
       207.000         138.000
  21368310.965     -940217.75849   -726172.07247  21368310.956    21368318.434
       234.000         192.000
  21936578.981      685442.34449    530197.79447  21936579.072    21936586.782
       233.000         191.000
  23385578.452    -3073763.38249  -2375284.07045  23385577.502    23385588.830
       214.000         158.000
 98  3 17 23  9 29.9990000  0  9G30G24G 4G 5G 6G 7G 8G 9G10
  23078584.894    -3212773.52749  -1749062.94946  23078584.538    23078592.801
       220.000         164.000
  19917979.454     -992265.81049   -765175.21148  19917979.380    19917986.658
       244.000         215.000
  21460056.640      875124.58049    671968.87747  21460056.802    21460063.636
       239.000         199.000
  20557994.913    -2184191.76149  -1689068.09347  20557994.726    20558001.527
       244.000         212.000
  24659166.397    -2515062.85259  -1945661.53645  24659165.925    24659176.153
       207.000         138.000
  24151163.861      850845.66149    658730.75145  24151163.168    24151173.889
       205.000         136.000
  21362578.189     -970343.83549   -749646.94547  21362577.845    21362585.676
       234.000         192.000
  21943264.642      720575.46649    557574.20247  21943264.594    21943272.765
       232.000         191.000
  23361358.798    -3201037.96749  -2474458.90545  23361358.138    23361368.334
       217.000         159.000
 98  3 17 23  9 59.9990000  0  9G30G24G 4G 5G 6G 7G 8G 9G10
  23054079.448    -3341550.14049  -1849408.27546  23054079.023    23054087.294
       220.000         164.000
  19912070.308    -1023318.69849   -789372.25648  19912070.261    19912077.567
       244.000         215.000
  21467962.947      916672.28349    704343.68847  21467963.258    21467970.085
       238.000         199.000
  20542362.679    -2266339.95449  -1753079.65447  20542362.318    20542369.214
       245.000         212.000
  24639418.424    -2618838.29349  -2026525.36945  24639417.726    24639428.250
       208.000         138.000
  24158327.710      888491.57649    688065.14245  24158326.828    24158338.472
       204.000         135.000
  21357009.342     -999608.64049   -772450.69347  21357009.620    21357016.955
       233.000         192.000
  21950064.311      756307.69349    585417.44947  21950064.367    21950072.407
       232.000         191.000
  23337204.035    -3327971.75749  -2573368.18845  23337203.500    23337213.137
       215.000         159.000
 98  3 17 23 10 29.9990000  0  9G30G24G 4G 5G 6G 7G 8G 9G10
  23029634.416    -3470009.28849  -1949506.22946  23029633.796    23029642.400
       220.000         164.000
  19906300.534    -1053639.06949   -812998.50748  19906300.485    19906307.693
       244.000         215.000
  21475969.126      958744.85749    737127.48547  21475969.516    21475976.445
       239.000         199.000
  20526838.711    -2347919.04549  -1816647.75348  20526838.256    20526845.337
       245.000         213.000
  24619723.462    -2722335.50649  -2107172.39445  24619723.610    24619733.936
       204.000         139.000
  24165537.045      926376.74449    717585.95445  24165536.837    24165547.665
       205.000         135.000
  21351597.103    -1028050.50049   -794613.18347  21351596.987    21351604.431
       234.000         192.000
  21956975.317      792624.96349    613716.57747  21956975.632    21956983.294
       232.000         190.000
  23313110.735    -3454582.28649  -2672025.58645  23313109.600    23313120.034
       218.000         159.000
 98  3 17 23 10 59.9990000  0  9G30G24G 4G 5G 6G 7G 8G 9G10
  23005228.283    -3598263.96449  -2049444.86146  23005228.112    23005236.443
       219.000         164.000
  19900646.403    -1083351.89949   -836151.35548  19900646.399    19900653.433
       244.000         215.000
  21484054.761     1001235.07549    770236.71847  21484055.278    21484061.864
       238.000         198.000
  20511401.302    -2429043.05549  -1879861.25148  20511400.743    20511407.505
       244.000         213.000
  24600059.676    -2825669.27149  -2187692.05145  24600059.863    24600069.340
       207.000         138.000
  24172772.211      964397.33049    747212.30945  24172770.529    24172781.027
       204.000         135.000
  21346317.332    -1055796.04549   -816233.09547  21346317.252    21346324.703
       233.000         192.000
  21963972.697      829396.04549    642369.31447  21963972.668    21963980.679
       232.000         190.000
  23289055.916    -3580990.96149  -2770525.70145  23289055.003    23289065.319
       219.000         160.000
 98  3 17 23 11 29.9990000  0  9G30G24G 4G 5G 6G 7G 8G 9G10
  22980856.834    -3726336.34949  -2149241.45046  22980856.724    22980864.815
       220.000         165.000
  19895102.202    -1112486.91949   -858853.96148  19895102.187    19895109.239
       244.000         215.000
  21492215.612     1044120.36549    803653.79747  21492215.749    21492222.621
       238.000         198.000
  20496047.756    -2509726.38449  -1942731.35848  20496047.382    20496054.303
       244.000         213.000
  24580418.637    -2928883.51549  -2268118.58645  24580418.360    24580429.258
       206.000         138.000
  24180029.442     1002533.82349    776928.96445  24180029.854    24180039.968
       204.000         136.000
  21341163.899    -1082877.52249   -837335.55547  21341163.220    21341171.358
       234.000         191.000
  21971050.235      866588.42449    671350.34347  21971050.348    21971058.513
       232.000         190.000
  23265035.431    -3707219.18149  -2868885.21045  23265034.941    23265044.844
       216.000         160.000
 98  3 17 23 11 59.9990000  0  9G30G24G 4G 5G 6G 7G 8G 9G10
  22956537.542    -3854134.85749  -2248824.62446  22956538.099    22956545.421
       220.000         165.000
  19889683.097    -1140964.48249   -881044.25848  19889682.809    19889690.213
       244.000         215.000
  21500468.945     1087491.68949    837449.60447  21500469.245    21500476.165
       238.000         198.000
  20480794.693    -2589881.98049  -2005190.24548  20480794.241    20480800.983
       245.000         213.000
  24560814.190    -3031905.15949  -2348395.03545  24560813.073    24560823.797
       206.000         139.000
  24187325.871     1040876.14549    806805.98545  24187325.153    24187337.022
       206.000         137.000
  21336152.974    -1109209.93349   -857854.32147  21336152.489    21336160.067
       233.000         191.000
  21978223.618      904284.62749    700723.95847  21978223.542    21978231.760
       232.000         190.000
  23241062.041    -3833199.79949  -2967051.78045  23241060.659    23241071.241
       217.000         161.000
 98  3 17 23 12 29.9990000  0  8G30G24G 4G 5G 6G 8G 9G10
  22932285.535    -3981579.79349  -2348132.29446  22932285.669    22932293.899
       221.000         165.000
  19884403.417    -1168709.39449   -902663.66348  19884403.494    19884410.697
       244.000         215.000
  21508831.430     1131436.88049    871692.57947  21508831.566    21508838.592
       238.000         197.000
  20465654.653    -2669443.40049  -2067186.14048  20465654.422    20465661.001
       245.000         213.000
  24541258.027    -3134672.97549  -2428473.67545  24541257.101    24541267.376
       208.000         139.000
  21331304.449    -1134689.30949   -877708.38947  21331304.125    21331312.269
       233.000         191.000
  21985503.754      942541.68549    730534.60347  21985503.792    21985511.755
       232.000         190.000
  23217150.243    -3958856.81249  -3064966.19645  23217150.231    23217160.349
       219.000         161.000
 98  3 17 23 12 59.9990000  0  8G30G24G 4G 5G 6G 8G 9G10
  22908099.978    -4108675.62149  -2447167.92846  22908100.392    22908107.837
       221.000         165.000
  19879261.915    -1195728.20749   -923717.27748  19879261.813    19879268.993
       244.000         215.000
  21517300.863     1175943.98049    906373.40547  21517301.092    21517307.983
       237.000         197.000
  20450627.839    -2748409.88149  -2128718.44348  20450627.655    20450634.313
       245.000         214.000
  24521746.464    -3237206.90349  -2508370.08045  24521746.428    24521755.442
       204.000         140.000
  21326619.473    -1159309.21549   -896892.74147  21326619.089    21326626.849
       234.000         191.000
  21992888.123      981346.41249    760772.00947  21992888.100    21992896.282
       232.000         190.000
  23193297.310    -4084204.60349  -3162639.66845  23193296.435    23193306.496
       219.000         162.000
 98  3 17 23 13 29.9990000  0  8G30G24G 4G 5G 6G 8G 9G10
  22883980.806    -4235422.46049  -2545931.63146  22883980.710    22883988.785
       220.000         165.000
  19874257.927    -1222024.48949   -944207.87948  19874257.768    19874264.946
       244.000         215.000
  21525875.702     1221004.92549    941485.80047  21525875.966    21525882.637
       237.000         197.000
  20435717.578    -2826763.95149  -2189773.54548  20435717.297    20435723.998
       245.000         214.000
  24502280.026    -3339503.29049  -2588081.37345  24502279.555    24502290.236
       208.000         141.000
  21322101.564    -1183051.12749   -915392.94147  21322101.157    21322108.745
       234.000         191.000
  22000380.938     1020720.99849    791453.45247  22000380.933    22000389.053
       231.000         190.000
  23169503.509    -4209241.55749  -3260070.92646  23169502.327    23169512.786
       219.000         163.000
 98  3 17 23 13 59.9990000  0  8G30G24G 4G 5G 6G 8G 9G10
  22859922.311    -4361850.40649  -2644446.84646  22859922.125    22859930.466
       220.000         165.000
  19869384.457    -1247634.74649   -964163.91748  19869384.461    19869391.666
       244.000         215.000
  21534548.820     1266582.44249    977000.71347  21534549.502    21534556.269
       238.000         197.000
  20420915.774    -2904547.86449  -2250384.36948  20420915.315    20420922.119
       245.000         214.000
  24482855.664    -3441578.16349  -2667620.04645  24482854.982    24482866.564
       205.000         141.000
  21317743.968    -1205950.55549   -933236.66247  21317743.673    21317751.024
       233.000         191.000
  22007974.403     1060624.75049    822547.23447  22007974.256    22007982.855
       231.000         189.000
  23145762.507    -4334000.93349  -3357285.89645  23145762.062    23145771.756
       218.000         162.000
 98  3 17 23 14 29.9990000  0  8G30G24G 4G 5G 6G 8G 9G10
  22835928.356    -4487939.15349  -2742697.74946  22835928.716    22835936.807
       221.000         165.000
  19864644.408    -1272543.98049   -983573.70248  19864644.203    19864651.381
       244.000         215.000
  21543321.929     1312685.00849   1012924.76047  21543322.328    21543329.140
       238.000         196.000
  20406224.451    -2981751.17149  -2310542.77548  20406223.985    20406231.041
       245.000         214.000
  24463476.919    -3543413.35349  -2746971.96845  24463476.308    24463486.846
       207.000         140.000
  21313546.879    -1228006.54849   -950423.15847  21313546.609    21313554.186
       233.000         192.000
  22015669.952     1101064.89949    854058.98247  22015670.349    22015678.225
       231.000         189.000
  23122080.436    -4458450.56949  -3454259.51446  23122079.358    23122089.155
       220.000         164.000
 98  3 17 23 14 59.9990000  0  8G30G24G 4G 5G 6G 8G 9G10
  22811993.923    -4613715.20349  -2840704.99746  22811994.455    22812002.279
       220.000         166.000
  19860035.508    -1296763.86449  -1002446.33648  19860035.613    19860042.665
       244.000         215.000
  21552187.223     1359272.20849   1049226.44547  21552187.641    21552194.712
       237.000         196.000
  20391641.055    -3058387.34749  -2370259.26048  20391640.701    20391647.604
       245.000         214.000
  24444141.495    -3645020.82349  -2826146.43945  24444140.354    24444151.073
       204.000         139.000
  21309500.988    -1249267.80849   -966990.38647  21309500.520    21309508.800
       234.000         192.000
  22023464.604     1142025.97549    885976.64947  22023464.803    22023472.644
       230.000         189.000
  23098451.477    -4582621.45649  -3551015.92846  23098450.705    23098460.240
       220.000         165.000
 98  3 17 23 15 29.9990000  0  8G30G24G 4G 5G 6G 8G 9G10
  22788128.128    -4739130.50849  -2938431.13846  22788128.397    22788136.122
       221.000         166.000
  19855568.647    -1320237.44249  -1020737.42848  19855568.616    19855575.920
       244.000         215.000
  21561153.274     1406388.85149   1085940.68247  21561153.414    21561160.592
       238.000         196.000
  20377172.923    -3134417.72249  -2429503.69048  20377172.477    20377179.378
       247.000         214.000
  24424861.438    -3746337.45449  -2905094.28145  24424860.701    24424871.199
       203.000         140.000
  21305613.445    -1269697.24249   -982909.43147  21305613.231    21305620.820
       234.000         192.000
  22031366.794     1183552.15849    918334.66347  22031367.002    22031375.049
       231.000         188.000
  23074888.151    -4706447.15749  -3647503.35246  23074887.048    23074897.183
       220.000         165.000
 98  3 17 23 15 59.9990000  0  8G30G24G 4G 5G 6G 8G 9G10
  22764320.727    -4864239.11049  -3035918.29446  22764320.919    22764329.254
       222.000         167.000
  19851234.954    -1343011.30949  -1038483.29648  19851234.966    19851242.377
       244.000         215.000
  21570210.791     1453986.23849   1123029.52347  21570211.313    21570218.447
       237.000         196.000
  20362807.846    -3209906.66249  -2488326.22748  20362807.442    20362814.511
       247.000         214.000
  24405628.494    -3847406.50649  -2983849.19445  24405628.535    24405638.759
       208.000         139.000
  21301871.760    -1289360.28249   -998231.29347  21301871.551    21301878.803
       234.000         192.000
  22039363.689     1225575.80449    951080.30147  22039363.606    22039372.194
       231.000         188.000
  23051385.190    -4829955.42949  -3743743.45046  23051384.369    23051394.380
       219.000         165.000
 98  3 17 23 16 29.9990000  0  8G30G24G 4G 5G 6G 8G 9G10
  22740589.198    -4988949.01249  -3133094.77146  22740588.748    22740596.652
       222.000         167.000
  19847053.251    -1364986.39349  -1055606.73548  19847053.041    19847060.262
       244.000         216.000
  21579378.079     1502160.33249   1160567.74647  21579377.918    21579384.933
       237.000         195.000
  20348564.153    -3284757.89949  -2546651.85148  20348563.613    20348570.343
       247.000         214.000
  24386458.167    -3948146.85649  -3062347.99545  24386458.306    24386466.960
       208.000         140.000
  21298293.327    -1308165.49549  -1012884.70947  21298293.049    21298300.896
       234.000         192.000
  22047475.891     1268205.40949    984298.11947  22047476.260    22047483.323
       231.000         188.000
  23027959.277    -4953059.04149  -3839668.22646  23027957.717    23027967.859
       217.000         164.000
 98  3 17 23 16 59.9990000  0  8G30G24G 4G 5G 6G 8G 9G10
  22716887.032    -5113504.71149  -3230151.09146  22716887.306    22716895.141
       223.000         168.000
  19842975.630    -1386414.48849  -1072303.94448  19842975.534    19842982.804
       245.000         216.000
  21588607.527     1550661.13549   1198360.55447  21588607.808    21588614.870
       238.000         195.000
  20334396.888    -3359207.37649  -2604664.41148  20334396.560    20334403.416
       248.000         215.000
  24367304.183    -4048801.51349  -3140780.01145  24367303.697    24367313.546
       207.000         140.000
  21294832.827    -1326350.75249  -1027055.05047  21294832.544    21294839.899
       234.000         192.000
  22055657.983     1311202.38149   1017802.20547  22055657.836    22055665.901
       230.000         188.000
  23004563.138    -5076006.16449  -3935471.05646  23004562.333    23004572.315
       219.000         164.000
 98  3 17 23 17 29.9980000  0  8G30G24G 4G 5G 6G 8G 9G10
  22693234.527    -5237799.28749  -3327003.93846  22693234.611    22693242.578
       222.000         168.000
  19839017.918    -1407212.35849  -1088510.07448  19839017.884    19839025.266
       244.000         216.000
  21597918.026     1599587.98949   1236485.34347  21597918.612    21597925.273
       237.000         195.000
  20320324.121    -3433160.40049  -2662290.13148  20320323.793    20320330.735
       247.000         215.000
  24348183.998    -4149278.61349  -3219073.70445  24348183.144    24348193.112
       208.000         140.000
  21291510.118    -1343811.63249  -1040660.94247  21291509.854    21291517.682
       234.000         192.000
  22063926.844     1354655.40549   1051661.64447  22063927.281    22063934.839
       230.000         188.000
  22981218.289    -5198683.52449  -4031063.68446  22981217.104    22981227.581
       216.000         164.000
 98  3 17 23 17 59.9980000  0  8G30G24G 4G 5G 6G 8G 9G10
  22669617.006    -5361910.26149  -3423713.71946  22669616.811    22669624.676
       223.000         169.000
  19835165.993    -1427454.45449  -1104283.13348  19835165.731    19835172.996
       245.000         216.000
  21607294.944     1648864.00749   1274882.20947  21607295.311    21607302.004
       237.000         195.000
  20306331.346    -3506692.94649  -2719588.20148  20306330.860    20306337.758
       248.000         215.000
  24329080.829    -4249665.76149  -3297297.30245  24329079.649    24329089.967
       209.000         141.000
  21288313.325    -1360610.85449  -1053751.25647  21288312.958    21288320.410
       234.000         192.000
  22072267.793     1398487.01549   1085816.09646  22072267.867    22072276.053
       231.000         187.000
  22957907.185    -5321183.64049  -4126518.20346  22957906.262    22957916.004
       218.000         164.000
 98  3 17 23 18 29.9980000  0  8G30G24G 4G 5G 6G 8G 9G10
  22646030.000    -5485860.74749  -3520298.44546  22646030.070    22646037.578
       223.000         169.000
  19831413.945    -1447171.69649  -1119647.21448  19831413.738    19831421.024
       245.000         216.000
  21616730.192     1698446.35049   1313517.76747  21616730.289    21616737.721
       237.000         194.000
  20292415.127    -3579823.20949  -2776572.80948  20292414.764    20292421.536
       247.000         215.000
  24309986.711    -4350005.12149  -3375483.66145  24309986.616    24309995.283
       211.000         141.000
  21285237.142    -1376776.35849  -1066347.76247  21285236.367    21285244.478
       234.000         192.000
  22080674.715     1442665.38149   1120240.74146  22080674.557    22080682.601
       230.000         187.000
  22934621.129    -5443551.98049  -4221870.03646  22934620.573    22934630.126
       219.000         165.000
 98  3 17 23 18 59.9980000  0  8G30G24G 4G 5G 6G 8G 9G10
  22622494.241    -5609541.88549  -3616673.28446  22622494.653    22622502.261
       224.000         169.000
  19827781.375    -1466260.89749  -1134521.90848  19827781.393    19827788.679
       245.000         216.000
  21626243.650     1748439.63849   1352473.54647  21626244.053    21626250.982
       236.000         194.000
  20278599.429    -3652425.37049  -2833145.90648  20278599.248    20278605.909
       248.000         216.000
  24290924.738    -4450176.10449  -3453538.83445  24290923.893    24290934.185
       210.000         142.000
  21282303.611    -1392192.46949  -1078360.32747  21282303.258    21282311.021
       234.000         192.000
  22089164.572     1487279.68749   1155005.08246  22089165.099    22089172.852
       230.000         187.000
  22911384.050    -5565663.29149  -4317021.58546  22911382.640    22911393.269
       218.000         165.000
 98  3 17 23 19 29.9980000  0  8G30G24G 4G 5G 6G 8G 9G10
  22599011.250    -5732945.52049  -3712831.89846  22599010.650    22599018.544
       223.000         170.000
  19824270.141    -1484712.73549  -1148899.95348  19824270.103    19824277.322
       245.000         216.000
  21635837.899     1798857.70649   1391760.32447  21635838.341    21635845.014
       237.000         193.000
  20264885.878    -3724490.56849  -2889300.59048  20264885.452    20264892.236
       248.000         216.000
  24271896.533    -4550169.48249  -3531455.63245  24271896.995    24271905.658
       208.000         142.000
  21279515.809    -1406842.60049  -1089776.02747  21279515.488    21279523.519
       234.000         192.000
  22097736.025     1532322.63549   1190103.42746  22097736.046    22097744.685
       230.000         186.000
  22888200.319    -5687493.98649  -4411954.47046  22888199.719    22888208.821
       219.000         165.000
 98  3 17 23 19 59.9980000  0  8G30G24G 4G 5G 6G 8G 9G10
  22575569.514    -5856132.42849  -3808821.61946  22575570.478    22575576.422
       224.000         170.000
  19820866.052    -1502601.22749  -1162839.02948  19820865.810    19820873.071
       245.000         216.000
  21645500.634     1849635.67849   1431327.54447  21645500.712    21645507.883
       236.000         193.000
  20251262.764    -3796080.42849  -2945084.88248  20251262.403    20251269.111
       248.000         216.000
  24252889.436    -4650051.87749  -3609285.94845  24252888.475    24252899.691
       208.000         142.000
  21276860.730    -1420795.06449  -1100648.09147  21276860.406    21276868.167
       234.000         192.000
  22106375.461     1577722.61949   1225479.98446  22106375.465    22106383.906
       230.000         186.000
  22865058.049    -5809107.17849  -4506717.87946  22865056.521    22865067.463
       219.000         165.000
 98  3 17 23 20 29.9980000  0  8G30G24G 4G 5G 6G 8G 9G10
  22552170.423    -5979095.37249  -3904636.84546  22552170.837    22552178.351
       223.000         171.000
  19817564.935    -1519948.78149  -1176356.59948  19817564.795    19817571.950
       244.000         216.000
  21655232.079     1900774.70849   1471176.10447  21655232.514    21655239.289
       236.000         193.000
  20237732.728    -3867181.28949  -3000488.13848  20237732.230    20237739.097
       247.000         216.000
  24233903.200    -4749824.67649  -3687030.86245  24233902.948    24233911.805
       208.000         142.000
  21274336.747    -1434058.95449  -1110983.60547  21274336.243    21274344.139
       234.000         192.000
  22115082.738     1623479.24749   1261134.44446  22115083.206    22115090.624
       229.000         186.000
  22841958.996    -5930492.96649  -4601304.09446  22841957.632    22841967.028
       219.000         166.000
 98  3 17 23 20 59.9980000  0  8G30G24G 4G 5G 6G 8G 9G10
  22528820.148    -6101801.70849  -4000252.11446  22528819.313    22528827.984
       224.000         171.000
  19814369.526    -1536740.78749  -1189441.27048  19814369.487    19814376.691
       245.000         216.000
  21665036.497     1952297.25449   1511323.50847  21665037.047    21665043.966
       235.000         193.000
  20224300.267    -3937769.18349  -3055491.68048  20224299.938    20224306.729
       248.000         216.000
  24214943.245    -4849459.19449  -3764668.04245  24214942.574    24214953.253
       208.000         142.000
  21271948.657    -1446608.58549  -1120762.55547  21271948.486    21271956.191
       234.000         192.000
  22123859.773     1669602.68549   1297074.72746  22123859.930    22123868.284
       229.000         186.000
  22818912.741    -6051601.45649  -4695674.22646  22818911.296    22818921.289
       219.000         166.000
 98  3 17 23 21 29.9980000  0  8G30G24G 4G 5G 6G 8G 9G10
  22505557.226    -6224048.73449  -4095509.47146  22505558.236    22505564.909
       223.000         171.000
  19811316.897    -1552782.51149  -1201941.31148  19811316.941    19811324.054
       245.000         216.000
  21674949.348     2004389.56449   1551914.88447  21674949.685    21674957.060
       236.000         192.000
  20211000.738    -4007658.74049  -3109951.06348  20211000.246    20211007.074
       248.000         216.000
  24196044.057    -4948774.48749  -3842056.47345  24196044.227    24196053.768
       209.000         143.000
  21269731.769    -1458258.71649  -1129840.60047  21269731.311    21269739.223
       234.000         192.000
  22132745.494     1716297.52849   1333460.25646  22132745.479    22132753.989
       228.000         186.000
  22795957.966    -6172228.95049  -4789669.57546  22795956.788    22795966.624
       218.000         166.000
 98  3 17 23 21 59.9980000  0  8G30G24G 4G 5G 6G 8G 9G10
  22482305.166    -6346238.89149  -4190722.51546  22482305.314    22482312.569
       224.000         172.000
  19808331.543    -1568470.76749  -1214165.91848  19808331.457    19808338.742
       245.000         216.000
  21684892.587     2056641.43949   1592630.59747  21684893.021    21684899.680
       236.000         192.000
  20197760.294    -4077237.84249  -3164168.53148  20197759.852    20197766.597
       248.000         216.000
  24177128.596    -5048174.98849  -3919511.31445  24177127.713    24177138.027
       214.000         143.000
  21267608.083    -1469418.62349  -1138536.65147  21267607.522    21267615.188
       233.000         191.000
  22141666.822     1763179.15849   1369991.34246  22141666.793    22141675.149
       229.000         185.000
  22773016.902    -6292784.44449  -4883608.80946  22773015.799    22773025.850
       219.000         166.000
 98  3 17 23 22 29.9980000  0  8G30G24G 4G 5G 6G 8G 9G10
  22459105.015    -6468156.07249  -4285722.85546  22459104.615    22459112.590
       224.000         172.000
  19805456.482    -1583579.36049  -1225938.84148  19805456.298    19805463.667
       244.000         216.000
  21694906.294     2109263.71849   1633634.94147  21694906.839    21694914.091
       235.000         191.000
  20184622.808    -4146275.78649  -3217964.31648  20184622.317    20184629.177
       247.000         216.000
  24158238.850    -5147441.21149  -3996861.51045  24158238.030    24158248.174
       208.000         144.000
  21265619.402    -1479868.97449  -1146679.80647  21265618.788    21265626.613
       233.000         191.000
  22150665.424     1810466.84149   1406838.83346  22150665.723    22150674.311
       228.000         185.000
  22750131.626    -6413046.86649  -4977319.67146  22750130.542    22750140.589
       218.000         166.000
 98  3 17 23 22 59.9980000  0  8G30G24G 4G 5G 6G 8G 9G10
  22435955.503    -6589807.24549  -4380515.91646  22435955.361    22435963.030
       224.000         172.000
  19802697.038    -1598080.10849  -1237238.11848  19802697.008    19802704.323
       245.000         216.000
  21704990.129     2162254.27649   1674926.25447  21704990.838    21704997.547
       236.000         191.000
  20171586.693    -4214781.01849  -3271345.00148  20171586.291    20171593.083
       248.000         217.000
  24139374.819    -5246572.02549  -4074106.19445  24139374.759    24139384.299
       210.000         145.000
  21263765.876    -1489609.32849  -1154269.71447  21263765.322    21263773.370
       234.000         191.000
  22159742.461     1858166.76349   1444007.54046  22159742.210    22159750.879
       228.000         184.000
  22727302.056    -6533016.49049  -5070802.39346  22727301.646    22727311.169
       219.000         166.000
 98  3 17 23 23 29.9980000  0  8G30G24G 4G 5G 6G 8G 9G10
  22412866.333    -6711141.36849  -4475061.92946  22412866.605    22412874.307
       225.000         173.000
  19800064.596    -1611913.93149  -1248017.71748  19800064.561    19800071.806
       245.000         216.000
  21715154.724     2215669.15949   1716548.20147  21715155.001    21715162.085
       235.000         191.000
  20158660.399    -4282709.14449  -3324275.99548  20158660.080    20158666.723
       248.000         217.000
  24120546.506    -5345514.99949  -4151204.51745  24120545.514    24120556.101
       209.000         145.000
  21262056.430    -1498592.60449  -1161269.68647  21262056.145    21262063.958
       234.000         191.000
  22168909.108     1906337.72849   1481543.30046  22168909.563    22168917.714
       228.000         184.000
  22704533.489    -6652665.49149  -5164035.27546  22704532.439    22704542.773
       219.000         166.000
 98  3 17 23 23 59.9980000  0  8G30G24G 4G 5G 6G 8G 9G10
  22389860.001    -6832040.40249  -4569268.89946  22389859.903    22389868.014
       225.000         173.000
  19797581.808    -1624961.05749  -1258184.30848  19797581.739    19797588.978
       245.000         217.000
  21725422.983     2269628.99449   1758594.78647  21725423.462    21725430.558
       235.000         191.000
  20145865.159    -4349948.65849  -3376670.41148  20145864.788    20145871.595
       248.000         217.000
  24101778.469    -5444140.78149  -4228055.68445  24101778.986    24101787.957
       207.000         145.000
  21260513.301    -1506701.98949  -1167588.71447  21260513.023    21260521.109
       233.000         191.000
  22178186.349     1955089.81349   1519531.87846  22178186.221    22178195.038
       229.000         184.000
  22681843.687    -6771900.82449  -5256945.81346  22681842.617    22681852.252
       218.000         166.000
 98  3 17 23 24 29.9980000  0  8G30G24G 4G 5G 6G 8G 9G10
  22366928.481    -6952546.07549  -4663169.35846  22366928.178    22366936.379
       225.000         174.000
  19795237.707    -1637279.42349  -1267783.02548  19795237.602    19795244.698
       244.000         217.000
  21735783.622     2324074.30349   1801019.67947  21735783.930    21735790.651
       235.000         190.000
  20133185.925    -4416578.32549  -3428589.61248  20133185.366    20133192.139
       248.000         217.000
  24083061.845    -5542496.76049  -4304696.60745  24083061.473    24083071.945
       208.000         145.000
  21259124.755    -1513999.11149  -1173274.79647  21259124.175    21259132.595
       234.000         191.000
  22187560.915     2004353.02549   1557918.74446  22187560.911    22187569.278
       228.000         185.000
  22659221.181    -6890782.61649  -5349580.86646  22659220.788    22659229.615
       218.000         166.000
 98  3 17 23 24 59.9980000  0  8G30G24G 4G 5G 6G 8G 9G10
  22344063.046    -7072704.60149  -4756799.32346  22344063.127    22344071.679
       225.000         174.000
  19793023.535    -1648914.98349  -1276849.70348  19793023.515    19793030.689
       245.000         217.000
  21746228.293     2378961.19749   1843788.64447  21746228.669    21746235.647
       235.000         190.000
  20120611.374    -4482658.03049  -3480080.28948  20120610.961    20120617.599
       248.000         217.000
  24064388.834    -5640623.91749  -4381159.22945  24064388.211    24064397.799
       205.000         145.000
  21257880.815    -1520536.08549  -1178368.57147  21257880.186    21257888.372
       234.000         191.000
  22197022.409     2054072.90849   1596661.44646  22197022.571    22197030.992
       229.000         185.000
  22636657.506    -7009355.14649  -5441974.94846  22636656.369    22636666.385
       220.000         167.000
 98  3 17 23 25 29.9980000  0  8G30G24G 4G 5G 6G 8G 9G10
  22321275.373    -7192454.32449  -4850110.73746  22321274.943    22321281.868
       224.000         174.000
  19790944.310    -1659841.58349  -1285363.93548  19790944.244    19790951.519
       244.000         217.000
  21756766.750     2434340.90249   1886941.63447  21756766.734    21756774.213
       235.000         190.000
  20108154.580    -4548119.00649  -3531088.83148  20108154.105    20108160.633
       248.000         217.000
  24045770.146    -5738464.92549  -4457398.88545  24045769.390    24045779.789
       208.000         145.000
  21256790.518    -1526265.88249  -1182833.36547  21256790.200    21256798.090
       233.000         191.000
  22206578.816     2104291.74349   1635792.94246  22206578.725    22206587.732
       228.000         185.000
  22614165.432    -7127551.35349  -5534075.77846  22614164.470    22614174.116
       220.000         168.000
 98  3 17 23 25 59.9980000  0  8G30G24G 4G 5G 6G 8G 9G10
  22298544.787    -7311904.06349  -4943188.39346  22298545.128    22298552.138
       226.000         175.000
  19788975.928    -1670185.36449  -1293424.02248  19788975.837    19788983.116
       245.000         217.000
  21767375.205     2490088.72649   1930381.46647  21767375.070    21767382.413
       235.000         190.000
  20095796.920    -4613058.89049  -3581691.32648  20095796.480    20095803.273
       248.000         217.000
  24027184.274    -5836134.10249  -4533504.64845  24027184.446    24027194.905
       210.000         146.000
  21255832.793    -1531298.63449  -1186755.00847  21255831.794    21255839.994
       234.000         191.000
  22216207.754     2154891.79049   1675221.48746  22216208.179    22216216.271
       228.000         184.000
  22591729.165    -7245454.35849  -5625948.13746  22591728.122    22591737.961
       221.000         169.000
 98  3 17 23 26 29.9980000  0  8G30G24G 4G 5G 6G 8G 9G10
  22275889.770    -7430956.97649  -5035956.84646  22275889.633    22275897.304
       226.000         175.000
  19787135.026    -1679859.35849  -1300962.20048  19787134.991    19787142.300
       245.000         217.000
  21778071.635     2546298.90749   1974181.57147  21778072.084    21778079.659
       234.000         190.000
  20083559.472    -4677367.17349  -3631801.66948  20083558.981    20083565.927
       246.000         217.000
  24008647.180    -5933546.48949  -4609410.29845  24008646.270    24008656.701
       208.000         146.000
  21255026.464    -1535535.76749  -1190056.69047  21255026.461    21255034.161
       233.000         190.000
  22225924.294     2205952.26649   1715008.80746  22225924.303    22225933.024
       228.000         184.000
  22569373.506    -7362933.85449  -5717490.49846  22569372.688    22569381.878
       220.000         170.000
 98  3 17 23 26 59.9980000  0  8G30G24G 4G 5G 6G 8G 9G10
  22253277.322    -7549785.90949  -5128550.75746  22253277.337    22253284.946
       225.000         175.000
  19785389.808    -1689030.63349  -1308108.64748  19785389.900    19785397.004
       245.000         217.000
  21788826.932     2602818.42049   2018222.71347  21788827.019    21788834.153
       233.000         189.000
  20071416.937    -4741176.50749  -3681523.21548  20071416.667    20071423.282
       246.000         217.000
  23990126.412    -6030874.24749  -4685250.01945  23990126.291    23990136.112
       207.000         146.000
  21254341.874    -1539133.26649  -1192859.95347  21254341.586    21254349.695
       232.000         190.000
  22235697.273     2257309.15849   1755027.09546  22235697.477    22235706.077
       228.000         184.000
  22547073.036    -7480123.33449  -5808806.86746  22547071.997    22547081.620
       221.000         170.000
 98  3 17 23 27 29.9980000  0  8G30G24G 4G 5G 6G 8G 9G10
  22230759.219    -7668119.25949  -5220758.50946  22230759.655    22230767.083
       226.000         175.000
  19783788.517    -1697445.40549  -1314665.60848  19783788.648    19783795.887
       245.000         217.000
  21799688.144     2659894.34549   2062697.42147  21799688.350    21799695.797
       233.000         189.000
  20059420.411    -4804218.47949  -3730646.81548  20059420.052    20059426.559
       246.000         217.000
  23971669.722    -6127864.80149  -4760826.97445  23971669.628    23971678.719
       209.000         147.000
  21253829.908    -1541823.67849  -1194956.39047  21253829.390    21253837.383
       233.000         190.000
  22245577.695     2309230.84649   1795485.49546  22245578.067    22245586.456
       227.000         183.000
  22524879.214    -7596752.21549  -5899686.40546  22524878.931    22524888.109
       221.000         171.000
 98  3 17 23 27 59.9980000  0  8G30G24G 4G 5G 6G 8G 9G10
  22208304.850    -7786117.57349  -5312705.18546  22208305.500    22208312.716
       227.000         176.000
  19782304.427    -1705244.55949  -1320742.87148  19782304.436    19782311.566
       245.000         217.000
  21810624.164     2717363.59149   2107478.61647  21810624.539    21810631.652
       233.000         188.000
  20047537.022    -4866666.07249  -3779307.26648  20047536.789    20047543.351
       247.000         217.000
  23953245.380    -6224684.82549  -4836271.05345  23953245.463    23953254.967
       209.000         147.000
  21253459.100    -1543772.37749  -1196474.87647  21253458.757    21253466.488
       232.000         190.000
  22255533.490     2361548.68749   1836252.58246  22255533.365    22255541.662
       228.000         183.000
  22502760.914    -7712984.26949  -5990256.72846  22502759.554    22502769.280
       221.000         170.000
 98  3 17 23 28 29.9980000  0  8G30G24G 4G 5G 6G 8G 9G10
  22185926.344    -7903717.31249  -5404341.29146  22185926.233    22185933.442
       227.000         176.000
  19780952.460    -1712349.28449  -1326279.01548  19780952.312    19780959.638
       245.000         217.000
  21821649.508     2775302.17449   2152625.53247  21821649.676    21821657.133
       233.000         188.000
  20035781.529    -4928441.60949  -3827444.03748  20035781.117    20035787.823
       246.000         217.000
  23934866.452    -6321266.06549  -4911529.06145  23934866.057    23934875.859
       210.000         148.000
  21253239.977    -1544924.05049  -1197372.30047  21253239.668    21253247.325
       233.000         190.000
  22265576.353     2414324.03549   1877376.17246  22265576.172    22265584.724
       227.000         182.000
  22480728.036    -7828767.55849  -6080477.36446  22480727.057    22480736.458
       223.000         171.000
 98  3 17 23 28 59.9980000  0  8G30G24G 4G 5G 6G 8G 9G10
  22163606.901    -8021006.94249  -5495735.74546  22163607.254    22163613.872
       227.000         177.000
  19779713.114    -1718862.21749  -1331354.02148  19779712.940    19779720.116
       245.000         217.000
  21832741.793     2833592.27049   2198046.35746  21832741.817    21832749.056
       232.000         187.000
  20024134.222    -4989648.56849  -3875137.75448  20024133.761    20024140.548
       247.000         217.000
  23916514.341    -6417706.83549  -4986677.62945  23916513.962    23916522.822
       207.000         148.000
  21253152.022    -1545386.49449  -1197732.65947  21253151.559    21253159.178
       233.000         190.000
  22275690.770     2467475.67749   1918792.98646  22275690.720    22275698.689
       227.000         182.000
  22458757.887    -7944220.91349  -6170440.91146  22458756.886    22458766.461
       222.000         171.000
 98  3 17 23 29 29.9980000  0  8G30G24G 4G 5G 6G 8G 9G10
  22141353.356    -8137950.06449  -5586860.20046  22141354.050    22141361.030
       227.000         177.000
  19778590.873    -1724759.54249  -1335949.33748  19778590.906    19778598.088
       245.000         217.000
  21843903.551     2892247.53749   2243751.71946  21843904.080    21843911.076
       233.000         187.000
  20012596.135    -5050281.56449  -3922384.23648  20012595.888    20012602.600
       246.000         217.000
  23898194.417    -6513978.45249  -5061694.37645  23898193.855    23898203.511
       209.000         149.000
  21253197.931    -1545145.19249  -1197544.65947  21253197.667    21253205.605
       233.000         190.000
  22285880.598     2521023.18349   1960518.25646  22285880.216    22285888.850
       227.000         181.000
  22436852.467    -8059334.40449  -6260139.63546  22436851.321    22436860.648
       222.000         172.000
 98  3 17 23 29 59.9980000  0  8G30G24G 4G 5G 6G 8G 9G10
  22119169.022    -8254529.57749  -5677701.31346  22119169.468    22119176.539
       228.000         178.000
  19777590.303    -1730017.60349  -1340046.52048  19777590.109    19777597.307
       246.000         217.000
  21855141.673     2951303.94249   2289769.66046  21855142.220    21855149.490
       233.000         186.000
  20001172.088    -5110315.44849  -3969163.86948  20001171.667    20001178.240
       247.000         217.000
  23879912.868    -6610048.17349  -5136553.79545  23879912.301    23879922.071
       211.000         149.000
  21253380.274    -1544187.10549  -1196798.11047  21253379.671    21253387.626
       234.000         190.000
  22296147.746     2574976.93749   2002560.08546  22296147.868    22296156.223
       226.000         181.000
  22415011.930    -8174106.72349  -6349572.50546  22415011.231    22415020.289
       223.000         172.000
 98  3 17 23 30 29.9980000  0  8G30G24G 4G 5G 6G 8G 9G10
  22097070.304    -8370659.02249  -5768191.74246  22097070.327    22097077.787
       228.000         178.000
  19776725.838    -1734560.41549  -1343586.37348  19776725.748    19776732.995
       244.000         217.000
  21866471.273     3010840.95549   2336162.09746  21866472.036    21866478.699
       232.000         186.000
  19989878.237    -5169665.00049  -4015410.26448  19989877.736    19989884.572
       247.000         217.000
  23861687.506    -6705822.47149  -5211183.01745  23861686.238    23861696.787
       209.000         148.000
  21253717.150    -1542417.13749  -1195418.94147  21253716.758    21253724.878
       234.000         190.000
  22306509.687     2629429.11049   2044990.29746  22306509.565    22306518.089
       227.000         181.000
  22393251.403    -8288458.71349  -6438677.84446  22393250.525    22393259.542
       222.000         173.000
 98  3 17 23 30 59.9980000  0  8G30G24G 4G 5G 6G 8G 9G10
  22075076.233    -8486238.27849  -5858253.45146  22075076.293    22075084.252
       229.000         178.000
  19776015.075    -1738295.46749  -1346496.80148  19776015.030    19776022.236
       246.000         217.000
  21877909.741     3070950.34949   2383000.54646  21877909.748    21877917.563
       232.000         186.000
  19978728.400    -5228257.86449  -4061067.03348  19978727.974    19978734.716
       248.000         217.000
  23843537.838    -6801199.23149  -5285502.46445  23843537.852    23843547.235
       212.000         149.000
  21254231.147    -1539716.17149  -1193314.31847  21254230.452    21254238.543
       234.000         190.000
  22316985.466     2684479.47749   2087886.62146  22316985.782    22316993.933
       227.000         181.000
  22371592.245    -8402278.08049  -6527368.15646  22371591.210    22371600.718
       224.000         173.000
 98  3 17 23 31 29.9980000  0  8G30G24G 4G 5G 6G 8G 9G10
  22053154.265    -8601438.88849  -5948020.10246  22053154.779    22053161.382
       228.000         178.000
  19775429.435    -1741373.03349  -1348894.89948  19775429.355    19775436.520
       245.000         216.000
  21889429.776     3131488.32749   2430172.95446  21889430.143    21889437.616
       231.000         186.000
  19967692.807    -5286250.25149  -4106255.89348  19967692.314    19967699.069
       247.000         217.000
  23825435.149    -6896329.12349  -5359629.54045  23825434.825    23825444.795
       211.000         150.000
  21254894.053    -1536232.58949  -1190599.85847  21254893.294    21254901.865
       233.000         190.000
  22327543.681     2739963.28749   2131120.70446  22327543.423    22327551.686
       226.000         180.000
  22350005.459    -8515716.93249  -6615761.96546  22350004.564    22350014.319
       224.000         173.000
 98  3 17 23 31 59.9980000  0  8G30G24G 4G 5G 6G 8G 9G10
  22031300.933    -8716278.45849  -6037505.42846  22031300.808    22031307.942
       230.000         179.000
  19774964.204    -1743817.84549  -1350799.94148  19774964.347    19774971.439
       246.000         216.000
  21901025.806     3192425.81349   2477656.66846  21901026.445    21901033.138
       230.000         185.000
  19956769.050    -5343654.92449  -4150986.79848  19956768.687    19956775.467
       248.000         217.000
  23807374.693    -6991236.90449  -5433583.54545  23807375.087    23807383.308
       212.000         150.000
  21255704.463    -1531974.26649  -1187281.70647  21255704.022    21255712.491
       234.000         190.000
  22338180.749     2795861.58249   2174677.75746  22338180.929    22338188.889
       228.000         180.000
  22328486.917    -8628797.33649  -6703876.46146  22328486.570    22328495.394
       225.000         174.000
 98  3 17 23 32 29.9980000  0  8G30G24G 4G 5G 6G 8G 9G10
  22009487.527    -8830908.58049  -6126827.54746  22009487.579    22009494.285
       229.000         179.000
  19774588.211    -1745793.85249  -1352339.68548  19774588.048    19774595.109
       245.000         216.000
  21912665.686     3253593.70249   2525319.91946  21912665.827    21912673.676
       230.000         185.000
  19945927.865    -5400625.77649  -4195379.65648  19945927.532    19945934.179
       247.000         217.000
  23789325.391    -7086086.58749  -5507492.27345  23789325.093    23789334.210
       213.000         150.000
  21256634.805    -1527085.52949  -1183472.32247  21256634.188    21256642.248
       233.000         190.000
  22348869.475     2852031.02149   2218446.09646  22348869.400    22348878.160
       226.000         180.000
  22307014.731    -8741634.23949  -6791801.21946  22307013.786    22307023.158
       225.000         175.000
 98  3 17 23 32 59.9980000  0  8G30G24G 4G 5G 6G 8G 9G10
  21987764.890    -8945061.36449  -6215777.72046  21987765.157    21987771.997
       228.000         179.000
  19774348.025    -1747055.81649  -1353323.03348  19774347.854    19774354.879
       244.000         216.000
  21924396.079     3315237.25349   2573353.80946  21924396.286    21924403.837
       231.000         184.000
  19935219.893    -5456896.47249  -4239226.94448  19935219.515    19935226.176
       247.000         218.000
  23771333.901    -7180632.14749  -5581164.03745  23771333.468    23771343.078
       213.000         151.000
  21257732.132    -1521318.93549  -1178978.89347  21257731.759    21257739.375
       233.000         190.000
  22359659.397     2908732.42549   2262628.95246  22359659.560    22359667.980
       225.000         179.000
  22285640.865    -8853954.50649  -6879323.41446  22285639.873    22285649.441
       224.000         176.000
 98  3 17 23 33 29.9980000  0  8G30G24G 4G 5G 6G 8G 9G10
  21966147.563    -9058660.92149  -6304296.80446  21966147.542    21966154.694
       229.000         179.000
  19774256.033    -1747538.96949  -1353699.50848  19774255.848    19774262.981
       245.000         216.000
  21936228.142     3377415.04049   2621804.00046  21936228.165    21936236.157
       230.000         184.000
  19924662.845    -5512374.21449  -4282456.33548  19924662.383    19924668.945
       247.000         218.000
  23753413.542    -7274803.96649  -5654544.55945  23753413.704    23753421.795
       211.000         150.000
  21259003.828    -1514636.39049  -1173771.73447  21259003.508    21259011.271
       233.000         190.000
  22370563.482     2966033.71949   2307279.25146  22370563.431    22370572.198
       225.000         178.000
  22264379.459    -8965683.59949  -6966384.93546  22264378.202    22264387.880
       225.000         176.000
 98  3 17 23 33 59.9980000  0  8G30G24G 4G 5G 6G 8G 9G10
  21944628.482    -9171744.15949  -6392413.56246  21944629.009    21944636.681
       229.000         180.000
  19774301.108    -1747302.14249  -1353514.97248  19774301.176    19774308.578
       245.000         216.000
  21948151.414     3440071.93949   2670627.51646  21948151.841    21948159.132
       230.000         184.000
  19914247.204    -5567108.77949  -4325106.63848  19914246.904    19914253.357
       246.000         218.000
  23735553.714    -7368657.75649  -5727677.26945  23735553.688    23735562.641
       211.000         151.000
  21260435.888    -1507111.13749  -1167907.93447  21260435.467    21260443.315
       233.000         190.000
  22381568.542     3023865.64949   2352343.02346  22381568.393    22381577.819
       225.000         178.000
  22243223.464    -9076858.81749  -7053014.87446  22243222.238    22243231.581
       224.000         177.000
 98  3 17 23 34 29.9980000  0  8G30G24G 4G 5G 6G 8G 9G10
  21923178.069    -9284466.32449  -6480248.97646  21923178.439    21923184.961
       229.000         180.000
  19774455.975    -1746488.44749  -1352880.92048  19774455.929    19774463.319
       245.000         217.000
  21960139.057     3503067.06849   2719714.59246  21960139.732    21960147.120
       230.000         184.000
  19903947.564    -5621233.91949  -4367282.05948  19903947.144    19903953.760
       247.000         218.000
  23717726.785    -7462338.68049  -5800675.28045  23717726.739    23717735.691
       212.000         151.000
  21261996.730    -1498909.01449  -1161516.69447  21261996.186    21262004.378
       233.000         190.000
  22392643.589     3082065.16049   2397693.24146  22392643.446    22392652.055
       225.000         178.000
  22222146.733    -9187617.34949  -7139320.12146  22222145.599    22222154.940
       225.000         177.000
 98  3 17 23 34 59.9980000  0  8G30G24G 4G 5G 6G 8G 9G10
  21901793.122    -9396844.77949  -6567816.55046  21901793.074    21901800.030
       229.000         180.000
  19774719.647    -1745102.85449  -1351801.23048  19774719.387    19774726.711
       245.000         217.000
  21972188.899     3566389.02949   2769056.34646  21972189.290    21972196.235
       230.000         183.000
  19893759.700    -5674771.45349  -4408999.60248  19893759.177    19893765.767
       247.000         218.000
  23699930.417    -7555859.12349  -5873548.23645  23699929.920    23699939.186
       212.000         151.000
  21263679.838    -1490064.47849  -1154624.86547  21263679.671    21263687.390
       233.000         189.000
  22403780.199     3140588.07549   2443295.45646  22403779.926    22403788.680
       224.000         178.000
  22201141.719    -9297999.10949  -7225331.78446  22201140.850    22201149.838
       225.000         177.000
 98  3 17 23 35 29.9980000  0  8G30G24G 4G 5G 6G 8G 9G10
  21880475.899    -9508867.24249  -6655106.73646  21880476.241    21880483.209
       231.000         181.000
  19775098.751    -1743110.73149  -1350248.92948  19775098.834    19775105.885
       246.000         217.000
  21984307.880     3630074.77249   2818681.55946  21984308.280    21984316.207
       230.000         183.000
  19883689.169    -5727692.44649  -4450236.72948  19883688.579    19883695.316
       248.000         218.000
  23682168.122    -7649200.05149  -5946281.32145  23682167.666    23682177.106
       212.000         152.000
  21265488.586    -1480559.57849  -1147218.47947  21265488.109    21265496.025
       233.000         189.000
  22414978.482     3199435.11649   2489150.23846  22414978.373    22414987.268
       226.000         177.000
  22180211.689    -9407986.74449  -7311036.33146  22180211.049    22180220.196
       226.000         177.000
 98  3 17 23 35 59.9980000  0  8G30G24G 4G 5G 6G 8G 9G10
  21859193.862    -9620705.16249  -6742253.12546  21859193.435    21859201.172
       230.000         181.000
  19775559.968    -1740686.88849  -1348360.21848  19775560.035    19775567.213
       245.000         216.000
  21996463.435     3693952.45849   2868456.34546  21996463.545    21996471.228
       229.000         182.000
  19873702.333    -5780173.29549  -4491130.88548  19873701.743    19873708.390
       246.000         218.000
  23664403.639    -7742552.57649  -6019023.44045  23664402.505    23664413.047
       214.000         152.000
  21267392.879    -1470552.68849  -1139420.93247  21267392.331    21267400.654
       232.000         189.000
  22426202.667     3258418.31149   2535111.10746  22426202.633    22426211.562
       224.000         177.000
  22159319.994    -9517772.87249  -7396583.85646  22159319.412    22159327.490
       225.000         177.000
 98  3 17 23 36 29.9980000  0  8G30G24G 4G 5G 6G 8G 9G10
  21837964.632    -9732265.54849  -6829183.25246  21837964.891    21837972.330
       231.000         182.000
  19776121.428    -1737736.59449  -1346061.28848  19776121.336    19776128.553
       245.000         216.000
  22008672.149     3758109.53449   2918448.83146  22008672.263    22008679.655
       228.000         182.000
  19863819.316    -5832108.80749  -4531600.10648  19863818.814    19863825.738
       246.000         218.000
  23646656.090    -7835816.11949  -6091696.23045  23646655.811    23646664.733
       213.000         152.000
  21269414.076    -1459931.26949  -1131144.53447  21269413.292    21269421.256
       232.000         189.000
  22437473.122     3317644.71549   2581261.48446  22437472.701    22437481.812
       225.000         176.000
  22138485.832    -9627256.70449  -7481895.84046  22138485.006    22138493.844
       226.000         176.000
 98  3 17 23 36 59.9980000  0  8G30G24G 4G 5G 6G 8G 9G10
  21816804.087    -9843464.87149  -6915832.03346  21816804.521    21816811.208
       232.000         182.000
  19776792.688    -1734209.21949  -1343312.68448  19776792.661    19776799.822
       245.000         216.000
  22020946.193     3822610.02649   2968708.91446  22020946.396    22020953.870
       228.000         181.000
  19854051.576    -5883438.58049  -4571597.32248  19854051.126    19854057.684
       247.000         218.000
  23628937.710    -7928926.70949  -6164249.84845  23628938.077    23628946.411
       213.000         153.000
  21271565.706    -1448624.30149  -1122333.94247  21271565.711    21271573.439
       231.000         188.000
  22448803.907     3377187.86849   2627658.68646  22448804.196    22448812.508
       224.000         176.000
  22117722.636    -9736367.63649  -7566917.25846  22117721.530    22117730.533
       225.000         176.000
 98  3 17 23 37 29.9980000  0  8G30G24G 4G 5G 6G 8G 9G10
  21795715.436    -9954286.41649  -7002186.44646  21795715.500    21795722.491
       231.000         182.000
  19777573.050    -1730108.33049  -1340117.18948  19777572.931    19777580.151
       245.000         216.000
  22033286.137     3887456.58349   3019238.66046  22033286.363    22033294.116
       229.000         181.000
  19844403.358    -5934140.25349  -4611105.11348  19844402.846    19844409.410
       246.000         218.000
  23611250.085    -8021875.44149  -6236677.34045  23611249.992    23611258.749
       214.000         154.000
  21273851.750    -1436611.24949  -1112973.15347  21273851.569    21273859.420
       232.000         188.000
  22460199.666     3437072.56749   2674322.02346  22460199.727    22460208.282
       224.000         176.000
  22097032.422    -9845095.16449  -7651639.91246  22097031.593    22097040.492
       226.000         176.000
 98  3 17 23 37 59.9980000  0  8G30G24G 4G 5G 6G 8G 9G10
  21774679.630   -10064830.49449  -7088324.64646  21774679.483    21774686.702
       232.000         183.000
  19778439.662    -1725554.19149  -1336568.50648  19778439.421    19778446.921
       245.000         216.000
  22045671.027     3952539.35049   3069952.46646  22045671.479    22045678.242
       228.000         181.000
  19834851.235    -5984336.88249  -4650219.35948  19834850.888    19834857.601
       247.000         218.000
  23593574.915    -8114758.80149  -6309053.88045  23593574.828    23593583.735
       214.000         153.000
  21276252.330    -1423996.27749  -1103143.33047  21276251.737    21276259.887
       232.000         188.000
  22471640.028     3497191.70349   2721168.04046  22471640.077    22471649.559
       223.000         175.000
  22076396.167    -9953539.05449  -7736141.56046  22076395.230    22076404.410
       226.000         176.000
 98  3 17 23 38 29.9980000  0  8G30G24G 4G 5G 6G 8G 9G10
  21753722.909   -10174958.91649  -7174138.97146  21753723.571    21753729.809
       232.000         183.000
  19779418.784    -1720408.85049  -1332559.15348  19779418.573    19779425.797
       245.000         216.000
  22058126.933     4017995.39249   3120957.13446  22058126.537    22058134.369
       228.000         180.000
  19825420.298    -6033896.96849  -4688837.60748  19825419.927    19825426.505
       247.000         218.000
  23575940.027    -8207430.24749  -6381265.30945  23575939.627    23575948.642
       213.000         153.000
  21278793.632    -1410641.62049  -1092737.14147  21278793.408    21278800.946
       231.000         188.000
  22483152.132     3557687.78949   2768307.77946  22483152.527    22483159.936
       225.000         175.000
  22055843.631   -10061542.85149  -7820300.27046  22055842.358    22055851.457
       226.000         177.000
 98  3 17 23 38 59.9980000  0  8G30G24G 4G 5G 6G 8G 9G10
  21732840.906   -10284694.49449  -7259647.17646  21732840.957    21732847.114
       232.000         184.000
  19780507.531    -1714687.33949  -1328100.83548  19780507.480    19780514.674
       245.000         216.000
  22070648.720     4083797.73449   3172231.64146  22070648.838    22070656.814
       228.000         180.000
  19816103.701    -6082856.06249  -4726987.54648  19816103.427    19816110.039
       247.000         218.000
  23558339.392    -8299921.72049  -6453336.48345  23558338.691    23558348.654
       211.000         153.000
  21281470.213    -1396576.26649  -1081777.15447  21281469.805    21281478.295
       231.000         188.000
  22494731.185     3618535.62749   2815721.62046  22494731.112    22494739.662
       224.000         176.000
  22035368.763   -10169138.61149  -7904141.03446  22035367.912    22035376.477
       226.000         178.000
 98  3 17 23 39 29.9980000  0  8G30G24G 4G 5G 6G 8G 9G10
  21712013.990   -10394140.60149  -7344929.81746  21712014.765    21712020.739
       232.000         184.000
  19781691.338    -1708466.58249  -1323253.49548  19781691.210    19781698.456
       245.000         216.000
  22083215.940     4149838.68449   3223692.07446  22083216.677    22083223.945
       229.000         180.000
  19806881.868    -6131317.33249  -4764749.57248  19806881.511    19806888.132
       247.000         218.000
  23540756.128    -8392321.78049  -6525336.43845  23540755.834    23540764.798
       212.000         153.000
  21284262.493    -1381902.90049  -1070343.39447  21284261.772    21284270.119
       231.000         188.000
  22506358.263     3679635.89149   2863332.15046  22506358.352    22506366.783
       224.000         176.000
  22014954.969   -10276413.65749  -7987731.90746  22014954.594    22014962.818
       226.000         178.000
 98  3 17 23 39 59.9980000  0  8G30G24G 4G 5G 6G 8G 9G10
  21691245.334   -10503280.40149  -7429973.77946  21691245.203    21691252.185
       232.000         184.000
  19782973.656    -1701727.98549  -1318002.64248  19782973.872    19782980.846
       245.000         216.000
  22095830.440     4216127.68349   3275345.79346  22095830.595    22095838.382
       229.000         180.000
  19797756.830    -6179269.89349  -4802115.20048  19797756.338    19797762.929
       247.000         218.000
  23523193.347    -8484614.39449  -6597252.66845  23523193.452    23523201.712
       214.000         153.000
  21287171.232    -1366617.62749  -1058432.81747  21287171.078    21287178.899
       231.000         188.000
  22518034.331     3740993.86749   2911143.49546  22518034.339    22518043.576
       224.000         176.000
  21994609.001   -10383332.23649  -8071044.99946  21994608.040    21994616.456
       226.000         179.000
 98  3 17 23 40 29.9980000  0  8G30G24G 4G 5G 6G 8G 9G10
  21670546.646   -10612052.41749  -7514731.14946  21670546.873    21670553.623
       232.000         184.000
  19784368.421    -1694398.65149  -1312291.47248  19784368.297    19784375.532
       245.000         216.000
  22108502.157     4282717.57749   3327233.98946  22108502.582    22108509.640
       229.000         180.000
  19788745.164    -6226626.44049  -4839016.39948  19788744.847    19788751.522
       247.000         218.000
  23505662.884    -8576737.26549  -6669036.62545  23505662.758    23505671.388
       211.000         153.000
  21290208.594    -1350656.47149  -1045995.57947  21290208.425    21290216.548
       232.000         188.000
  22529772.738     3802679.61349   2959210.24346  22529772.683    22529781.360
       224.000         176.000
  21974343.035   -10489830.54649  -8154030.62146  21974342.459    21974350.543
       227.000         179.000
 98  3 17 23 40 59.9980000  0  8G30G24G 4G 5G 6G 8G 9G10
  21649925.223   -10720418.45049  -7599172.17146  21649925.049    21649932.032
       232.000         185.000
  19785880.606    -1686452.08949  -1306099.35248  19785880.540    19785887.696
       245.000         216.000
  22121234.963     4349628.72549   3379372.49746  22121235.337    22121242.742
       229.000         179.000
  19779854.083    -6273349.54149  -4875424.00648  19779853.632    19779860.378
       247.000         219.000
  23488171.795    -8668653.25149  -6740659.38845  23488172.477    23488180.798
       215.000         154.000
  21293378.461    -1333998.91549  -1033015.69847  21293378.041    21293386.071
       232.000         188.000
  22541579.083     3864721.95349   3007554.85546  22541579.649    22541587.979
       224.000         176.000
  21954162.354   -10595880.52149  -8236666.88946  21954161.300    21954170.175
       227.000         179.000
 98  3 17 23 41 29.9980000  0  8G30G24G 4G 5G 6G 8G 9G10
  21629369.261   -10828440.51849  -7683345.16746  21629369.329    21629376.459
       231.000         185.000
  19787492.618    -1677980.90149  -1299498.42648  19787492.524    19787499.700
       245.000         216.000
  22134015.057     4416788.37549   3431704.64846  22134015.460    22134022.582
       229.000         179.000
  19771071.475    -6319502.48349  -4911387.33048  19771071.122    19771077.713
       247.000         219.000
  23470705.714    -8760437.94949  -6812179.84445  23470705.639    23470714.683
       215.000         154.000
  21296665.285    -1316726.51249  -1019556.71246  21296664.936    21296672.674
       231.000         187.000
  22553437.064     3927035.65249   3056110.92546  22553436.950    22553446.625
       224.000         175.000
  21934052.370   -10701559.02949  -8319013.69646  21934051.282    21934060.499
       228.000         180.000
 98  3 17 23 41 59.9980000  0  8G30G24G 4G 5G 6G 8G 9G10
  21608859.304   -10936220.70049  -7767329.67846  21608859.058    21608866.363
       232.000         185.000
  19789181.690    -1669104.81949  -1292582.00348  19789181.465    19789188.868
       245.000         216.000
  22146821.952     4484088.97049   3484146.62946  22146821.994    22146829.697
       229.000         179.000
  19762379.198    -6365180.68849  -4946980.73248  19762378.700    19762385.383
       247.000         219.000
  23453241.246    -8852214.30749  -6883693.80745  23453241.499    23453249.954
       214.000         154.000
  21300048.456    -1298947.92849  -1005703.30746  21300048.213    21300056.284
       231.000         187.000
  22565325.730     3989510.43249   3104792.50946  22565325.610    22565334.030
       223.000         175.000
  21913989.196   -10806991.64249  -8401168.90546  21913988.062    21913996.828
       227.000         180.000
 98  3 17 23 42 29.9980000  0  8G30G24G 4G 5G 6G 8G 9G10
  21588417.646   -11043642.05749  -7851034.58046  21588417.140    21588424.589
       232.000         185.000
  19790967.906    -1659718.12149  -1285267.69448  19790967.808    19790974.923
       245.000         216.000
  22159674.770     4551630.52349   3536776.36746  22159674.876    22159682.483
       228.000         179.000
  19753797.881    -6410275.72649  -4982119.71448  19753797.501    19753803.974
       247.000         219.000
  23435798.882    -8943873.97749  -6955116.84345  23435798.944    23435808.011
       214.000         154.000
  21303549.504    -1280550.02249   -991367.31746  21303549.460    21303557.230
       231.000         187.000
  22577266.395     4052258.57249   3153687.09246  22577266.703    22577275.073
       223.000         174.000
  21893992.988   -10912072.18749  -8483049.77146  21893992.235    21894001.092
       228.000         181.000
 98  3 17 23 42 59.9980000  0  8G30G24G 4G 5G 6G 8G 9G10
  21568041.783   -11150717.71049  -7934470.10746  21568041.865    21568048.455
       232.000         185.000
  19792842.909    -1649864.96949  -1277589.91548  19792842.890    19792850.164
       245.000         216.000
  22172570.025     4619395.40849   3589580.12646  22172570.689    22172577.612
       228.000         178.000
  19745319.262    -6454831.24949  -5016838.29748  19745318.830    19745325.555
       247.000         219.000
  23418373.451    -9035444.97149  -7026470.75845  23418373.687    23418382.457
       215.000         154.000
  21307162.073    -1261566.11649   -976574.70046  21307161.809    21307169.597
       232.000         187.000
  22589253.637     4115251.71349   3202772.58446  22589254.295    22589262.613
       223.000         173.000
  21874060.661   -11016816.88249  -8564668.94346  21874059.784    21874068.334
       228.000         181.000
 98  3 17 23 43 29.9980000  0  8G30G24G 4G 5G 6G 8G 9G10
  21547730.748   -11257452.78549  -8017640.24046  21547730.806    21547737.949
       232.000         186.000
  19794806.216    -1639547.59349  -1269550.40048  19794806.291    19794813.513
       245.000         216.000
  22185509.141     4687390.75649   3642563.46846  22185509.731    22185516.712
       228.000         178.000
  19736940.434    -6498862.26649  -5051148.17248  19736940.171    19736946.750
       247.000         219.000
  23400965.019    -9126926.67949  -7097755.12245  23400964.050    23400973.429
       214.000         154.000
  21310884.550    -1242004.76749   -961332.12346  21310884.392    21310892.403
       231.000         186.000
  22601286.528     4178484.78949   3252045.05146  22601286.615    22601294.845
       222.000         173.000
  21854193.525   -11121218.95749  -8646021.13646  21854192.238    21854201.598
       229.000         182.000
 98  3 17 23 43 59.9980000  0  8G30G24G 4G 5G 6G 8G 9G10
  21527488.168   -11363827.83949  -8100529.84746  21527488.400    21527495.680
       232.000         186.000
  19796863.205    -1628738.03649  -1261127.36748  19796862.987    19796870.229
       245.000         216.000
  22198498.106     4755648.10549   3695750.97146  22198498.599    22198505.127
       228.000         178.000
  19728663.852    -6542356.02049  -5085039.40248  19728663.321    19728670.026
       247.000         219.000
  23383579.671    -9218286.88049  -7168944.79245  23383579.715    23383588.309
       215.000         154.000
  21314720.742    -1221845.70849   -945623.79546  21314720.626    21314728.516
       231.000         186.000
  22613369.196     4241979.37149   3301521.27746  22613369.540    22613378.177
       222.000         172.000
  21834402.225   -11225222.63749  -8727062.90346  21834401.408    21834410.377
       229.000         182.000
 98  3 17 23 44 29.9980000  0  8G30G24G 4G 5G 6G 8G 9G10
  21507298.280   -11469926.26349  -8183203.89046  21507298.217    21507305.234
       232.000         186.000
  19798995.081    -1617534.80649  -1252397.57648  19798994.961    19799002.288
       245.000         216.000
  22211522.190     4824089.91349   3749082.20346  22211522.633    22211530.127
       227.000         178.000
  19720472.297    -6585403.07849  -5118582.55748  19720471.791    19720478.360
       247.000         219.000
  23366202.280    -9309605.58349  -7240102.13745  23366202.155    23366210.711
       215.000         154.000
  21318655.648    -1201167.58549   -929511.00846  21318655.282    21318663.415
       231.000         186.000
  22625483.228     4305639.17049   3351126.25246  22625483.014    22625492.636
       222.000         172.000
  21814674.532   -11328892.00549  -8807844.15546  21814673.866    21814681.825
       229.000         182.000
 98  3 17 23 44 59.9980000  0  8G30G24G 4G 5G 6G 8G 9G10
  21487184.438   -11575625.05649  -8265566.53846  21487184.632    21487191.217
       233.000         187.000
  19801226.871    -1605806.63749  -1243258.74348  19801226.676    19801234.035
       245.000         216.000
  22224608.613     4892859.29649   3802668.69446  22224608.694    22224617.149
       227.000         178.000
  19712392.106    -6627864.66549  -5151669.50548  19712391.695    19712398.179
       248.000         219.000
  23348857.464    -9400752.76349  -7311125.83645  23348856.763    23348864.862
       215.000         154.000
  21322714.180    -1179839.85349   -912892.03646  21322713.902    21322721.762
       232.000         186.000
  22637651.618     4369584.42649   3400953.65346  22637651.410    22637660.620
       221.000         172.000
  21795035.980   -11432092.69049  -8888260.20446  21795034.761    21795043.334
       229.000         182.000
 98  3 17 23 45 29.9980000  0  8G30G24G 4G 5G 6G 8G 9G10
  21467136.582   -11680977.12249  -8347659.00546  21467136.790    21467143.136
       233.000         187.000
  19803552.922    -1593583.15049  -1233733.94648  19803552.946    19803560.320
       245.000         216.000
  22237746.673     4961900.04549   3856466.62446  22237747.158    22237754.556
       227.000         178.000
  19704418.830    -6669764.53849  -5184318.74948  19704418.415    19704425.079
       248.000         219.000
  23331536.118    -9491776.71949  -7382053.50845  23331535.414    23331544.418
       215.000         155.000
  21326886.816    -1157912.62549   -895805.91446  21326885.964    21326894.366
       231.000         187.000
  22649864.465     4433763.05749   3450962.90046  22649864.775    22649873.444
       222.000         172.000
  21775478.515   -11534867.61349  -8968344.49546  21775477.800    21775486.337
       228.000         182.000
 98  3 17 23 45 59.9980000  0  8G30G24G 4G 5G 6G 8G 9G10
  21447140.861   -11786055.33349  -8429538.08047  21447141.383    21447148.003
       233.000         188.000
  19805957.691    -1580946.21449  -1223886.98448  19805957.611    19805964.881
       245.000         215.000
  22250919.294     5031122.42049   3910406.09646  22250919.679    22250927.056
       227.000         177.000
  19696542.932    -6711152.59549  -5216569.17948  19696542.447    19696549.009
       247.000         219.000
  23314220.610    -9582769.71649  -7452957.06645  23314220.091    23314229.992
       216.000         156.000
  21331160.958    -1135451.81749   -878304.01346  21331160.945    21331168.416
       230.000         187.000
  22662105.633     4498090.59049   3501088.18146  22662106.140    22662115.117
       221.000         171.000
  21755988.360   -11637288.93949  -9048153.25446  21755987.453    21755996.363
       229.000         183.000
 98  3 17 23 46 29.9980000  0  8G30G24G 4G 5G 6G 8G 9G10
  21427199.767   -11890846.34549  -8511193.36747  21427200.208    21427206.793
       233.000         188.000
  19808444.218    -1567879.43649  -1213705.07848  19808444.119    19808451.361
       245.000         215.000
  22264125.533     5100521.29449   3964483.09546  22264126.526    22264133.626
       227.000         177.000
  19688768.872    -6752005.42549  -5248402.54948  19688768.469    19688775.104
       247.000         219.000
  23296913.468    -9673718.76549  -7523826.37345  23296913.223    23296921.999
       216.000         156.000
  21335540.543    -1112437.17649   -860370.56346  21335540.043    21335548.436
       231.000         186.000
  22674378.388     4562583.86949   3551342.61046  22674378.834    22674387.906
       221.000         172.000
  21736563.612   -11739366.25849  -9127693.94846  21736562.251    21736571.271
       229.000         183.000
 98  3 17 23 46 59.9980000  0  8G30G24G 4G 5G 6G 8G 9G10
  21407323.370   -11995297.53049  -8592583.85447  21407323.668    21407330.314
       234.000         189.000
  19811024.873    -1554318.07549  -1203137.78548  19811024.763    19811032.096
       246.000         215.000
  22277374.010     5170142.31549   4018733.18846  22277374.714    22277382.043
       227.000         177.000
  19681107.060    -6792268.53949  -5279776.40148  19681106.583    19681113.203
       248.000         219.000
  23279625.158    -9764569.08049  -7594618.75445  23279625.840    23279633.940
       215.000         156.000
  21340030.007    -1088844.91149   -841987.01746  21340030.065    21340037.815
       231.000         186.000
  22686693.001     4627297.03649   3601768.38246  22686693.049    22686701.016
       222.000         172.000
  21717212.879   -11841054.77449  -9206931.68446  21717211.937    21717220.609
       230.000         183.000
 98  3 17 23 47 29.9980000  0  8G30G24G 4G 5G 6G 8G 9G10
  21387507.699   -12099429.51249  -8673725.61347  21387508.286    21387514.733
       234.000         189.000
  19813690.405    -1540310.60749  -1192222.87748  19813690.458    19813697.526
       245.000         215.000
  22290657.076     5239945.03849   4073124.87146  22290657.379    22290665.052
       227.000         177.000
  19673548.781    -6831987.56749  -5310726.29148  19673548.426    19673555.050
       247.000         219.000
  23262348.591    -9855357.70649  -7665363.05145  23262347.692    23262357.089
       214.000         156.000
  21344621.514    -1064716.45249   -823185.65346  21344621.266    21344629.464
       230.000         186.000
  22699042.052     4692191.26149   3652335.24146  22699041.980    22699051.599
       222.000         171.000
  21697928.709   -11942393.58849  -9285896.91946  21697928.087    21697936.024
       230.000         184.000
 98  3 17 23 47 59.9980000  0  8G30G24G 4G 5G 6G 8G 9G10
  21367763.512   -12203185.91149  -8754574.71847  21367763.655    21367770.953
       234.000         189.000
  19816448.846    -1525814.92749  -1180927.54948  19816448.728    19816456.086
       245.000         215.000
  22303982.227     5309969.01849   4127688.96646  22303982.464    22303989.628
       226.000         176.000
  19666101.340    -6871124.20849  -5341222.37448  19666100.922    19666107.573
       247.000         219.000
  23245094.430    -9946028.63649  -7736015.65045  23245093.856    23245102.696
       213.000         156.000
  21349326.277    -1039992.91649   -803920.60446  21349325.669    21349333.690
       230.000         185.000
  22711433.305     4757307.33949   3703074.97446  22711432.642    22711441.922
       222.000         170.000
  21678719.977   -12043336.28849  -9364553.49746  21678718.735    21678727.598
       230.000         184.000
 98  3 17 23 48 29.9970000  0  8G30G24G 4G 5G 6G 8G 9G10
  21348071.806   -12306666.50849  -8835208.91147  21348072.027    21348078.723
       234.000         190.000
  19819280.444    -1510934.91749  -1169332.74148  19819280.328    19819287.473
       245.000         215.000
  22317332.050     5380122.91149   4182354.29546  22317332.642    22317339.973
       226.000         176.000
  19658744.466    -6909784.84449  -5371347.54548  19658744.045    19658750.640
       247.000         219.000
  23227845.716   -10036670.65649  -7806645.71445  23227845.477    23227853.843
       214.000         157.000
  21354123.188    -1014785.18849   -784278.25646  21354122.888    21354130.818
       230.000         185.000
  22723847.030     4822541.75349   3753906.90446  22723847.078    22723855.440
       221.000         170.000
  21659566.104   -12143990.35849  -9442985.17546  21659564.935    21659573.554
       230.000         185.000
 98  3 17 23 48 59.9970000  0  8G30G24G 4G 5G 6G 8G 9G10
  21328440.111   -12409831.82749  -8915597.43247  21328440.178    21328446.770
       235.000         190.000
  19822191.786    -1495635.70449  -1157411.28148  19822191.552    19822199.045
       245.000         215.000
  22330714.911     5450450.07849   4237154.63646  22330714.928    22330722.327
       225.000         175.000
  19651486.597    -6947925.07749  -5401067.20548  19651486.129    19651492.760
       247.000         219.000
  23210608.100   -10127254.25049  -7877230.24645  23210607.861    23210616.507
       216.000         157.000
  21359020.594     -989049.35649   -764224.40046  21359020.028    21359027.734
       230.000         185.000
  22736290.414     4887931.90849   3804860.20346  22736290.683    22736299.212
       221.000         170.000
  21640477.708   -12244300.32749  -9521148.70746  21640476.910    21640485.377
       231.000         185.000
 98  3 17 23 49 29.9970000  0  8G30G24G 4G 5G 6G 8G 9G10
  21308868.152   -12512683.03449  -8995741.19747  21308868.407    21308874.437
       235.000         191.000
  19825179.860    -1479933.22449  -1145175.59048  19825179.764    19825186.855
       245.000         215.000
  22344125.632     5520923.67849   4292069.07946  22344125.844    22344134.065
       224.000         175.000
  19644326.109    -6985553.67449  -5430388.19248  19644325.706    19644332.309
       248.000         219.000
  23193381.996   -10217778.19049  -7947768.31945  23193381.546    23193391.034
       217.000         157.000
  21364019.425     -962780.53949   -743755.23246  21364018.887    21364027.163
       230.000         185.000
  22748761.300     4953466.31449   3855925.89946  22748761.090    22748770.157
       221.000         169.000
  21621456.600   -12344256.53749  -9599036.59646  21621455.888    21621464.288
       231.000         185.000
 98  3 17 23 49 59.9970000  0  8G30G24G 4G 5G 6G 8G 9G10
  21289354.519   -12615228.00349  -9075646.33147  21289354.407    21289361.261
       235.000         191.000
  19828247.322    -1463813.57549  -1132614.83248  19828247.120    19828254.440
       245.000         215.000
  22357561.693     5591530.46049   4347087.30346  22357561.882    22357569.392
       225.000         175.000
  19637263.633    -7022667.34049  -5459307.92848  19637263.196    19637269.904
       248.000         219.000
  23176167.713   -10308239.62449  -8018257.66845  23176167.523    23176175.894
       217.000         158.000
  21369118.912     -935982.79749   -722873.90946  21369118.627    21369126.499
       230.000         185.000
  22761261.218     5019153.45149   3907110.61046  22761261.327    22761270.749
       219.000         169.000
  21602505.049   -12443847.09849  -9676639.55646  21602503.698    21602512.605
       231.000         185.000
 98  3 17 23 50 29.9970000  0  8G30G24G 4G 5G 6G 8G 9G10
  21269882.356   -12717554.79749  -9155381.46447  21269882.527    21269888.874
       235.000         191.000
  19831373.389    -1447386.20149  -1119814.29048  19831373.446    19831380.603
       245.000         215.000
  22371004.495     5662172.66749   4402133.11346  22371004.576    22371012.887
       224.000         175.000
  19630279.186    -7059370.82249  -5487908.04248  19630278.841    19630285.475
       247.000         219.000
  23158944.170   -10398749.35149  -8088784.65245  23158944.207    23158952.223
       216.000         159.000
  21374297.245     -908770.60349   -701669.64646  21374296.762    21374304.949
       230.000         184.000
  22773770.984     5084892.13249   3958335.48246  22773771.906    22773779.918
       220.000         168.000
  21583605.667   -12543163.52749  -9754028.91646  21583604.811    21583613.414
       229.000         185.000
 98  3 17 23 50 59.9970000  0  8G30G24G 4G 5G 6G 8G 9G10
  21250473.701   -12819548.02949  -9234856.68447  21250473.633    21250480.570
       235.000         191.000
  19834578.378    -1430543.94549  -1106690.46148  19834578.377    19834585.418
       245.000         215.000
  22384471.285     5732940.81449   4457277.07746  22384472.032    22384479.188
       224.000         174.000
  19623392.447    -7095560.97949  -5516108.16148  19623392.008    19623398.485
       247.000         219.000
  23141732.307   -10489198.13449  -8159264.12945  23141732.402    23141740.965
       217.000         159.000
  21379573.801     -881042.48249   -680063.35846  21379573.649    21379581.546
       230.000         184.000
  22786310.821     5150789.20949   4009683.78246  22786310.845    22786320.164
       219.000         168.000
  21564781.826   -12642083.03349  -9831108.98846  21564780.693    21564789.645
       230.000         185.000
 98  3 17 23 51 29.9970000  0  8G30G24G 4G 5G 6G 8G 9G10
  21231128.719   -12921206.46549  -9314071.01547  21231128.775    21231135.540
       235.000         191.000
  19837861.586    -1413290.62849  -1093246.32348  19837861.254    19837868.725
       245.000         215.000
  22397962.550     5803837.69749   4512521.36246  22397962.783    22397971.011
       224.000         173.000
  19616602.170    -7131244.13049  -5543913.21348  19616601.889    19616608.385
       248.000         219.000
  23124532.413   -10579583.77049  -8229694.41645  23124532.229    23124541.074
       217.000         160.000
  21384946.196     -852810.69749   -658064.60446  21384946.500    21384954.084
       230.000         184.000
  22798879.701     5216838.94649   4061151.03346  22798880.034    22798888.427
       219.000         167.000
  21546030.458   -12740621.98349  -9907892.52046  21546029.844    21546037.876
       230.000         186.000
 98  3 17 23 51 59.9970000  0  8G30G24G 4G 5G 6G 8G 9G10
  21211840.213   -13022567.98449  -9393053.99347  21211840.608    21211846.843
       235.000         191.000
  19841214.187    -1395672.49249  -1079517.91148  19841214.013    19841221.319
       245.000         215.000
  22411472.293     5874831.68749   4567841.30746  22411472.241    22411480.183
       224.000         172.000
  19609903.302    -7166447.15449  -5571344.14048  19609902.937    19609909.440
       248.000         219.000
  23107332.458   -10669969.93349  -8300125.10245  23107332.027    23107341.295
       219.000         160.000
  21390406.498     -824116.86349   -635705.80546  21390405.990    21390414.367
       230.000         184.000
  22811467.121     5282986.44649   4112694.46446  22811466.790    22811476.068
       219.000         167.000
  21527342.002   -12838830.27749  -9984418.39846  21527340.992    21527349.192
       230.000         186.000
 98  3 17 23 52 29.9970000  0  8G30G24G 4G 5G 6G 8G 9G10
  21192608.230   -13123632.36649  -9471805.42547  21192608.712    21192614.728
       235.000         192.000
  19844634.937    -1377696.42149  -1065510.59048  19844634.885    19844642.238
       245.000         215.000
  22425004.666     5945944.66749   4623253.97346  22425005.172    22425012.188
       224.000         172.000
  19603299.699    -7201149.14349  -5598384.65148  19603299.378    19603305.790
       248.000         220.000
  23090133.425   -10760351.48249  -8370552.21245  23090133.054    23090142.012
       218.000         160.000
  21395956.270     -794952.86749   -612980.65546  21395955.598    21395963.890
       230.000         184.000
  22824071.522     5349223.08649   4164307.36346  22824072.373    22824080.413
       219.000         166.000
  21508715.212   -12936714.55549 -10060691.80046  21508714.587    21508722.312
       231.000         187.000
 98  3 17 23 52 59.9970000  0  8G30G24G 4G 5G 6G 8G 9G10
  21173425.593   -13224437.41749  -9550354.78947  21173425.682    21173432.043
       236.000         192.000
  19848123.051    -1359366.23549  -1051227.33248  19848122.940    19848130.352
       245.000         215.000
  22438557.393     6017164.77049   4678750.10446  22438557.770    22438566.172
       223.000         171.000
  19596790.431    -7235355.64649  -5625039.06648  19596789.865    19596796.583
       248.000         219.000
  23072933.336   -10850738.21749  -8440983.35245  23072932.791    23072941.345
       217.000         160.000
  21401593.120     -765331.08149   -589898.78446  21401593.195    21401601.085
       229.000         183.000
  22836690.928     5415538.02449   4215981.26846  22836691.627    22836700.075
       219.000         166.000
  21490146.992   -13034291.23049 -10136725.51346  21490145.982    21490154.632
       231.000         187.000
 98  3 17 23 53 29.9970000  0  8G30G24G 4G 5G 6G 8G 9G10
  21154280.711   -13325044.30549  -9628749.73847  21154281.086    21154287.707
       235.000         192.000
  19851666.955    -1340742.87249  -1036715.62948  19851666.787    19851674.201
       245.000         215.000
  22452120.676     6088439.95349   4734289.16346  22452121.100    22452128.941
       223.000         172.000
  19590366.016    -7269116.22349  -5651346.01048  19590365.552    19590372.142
       248.000         219.000
  23055720.199   -10941193.79649  -8511468.14045  23055720.177    23055729.567
       217.000         160.000
  21407306.402     -735307.60749   -566503.91146  21407305.741    21407314.283
       229.000         183.000
  22849314.183     5481873.08349   4267670.85446  22849314.239    22849323.892
       220.000         166.000
  21471625.654   -13131621.23949 -10212567.02346  21471624.714    21471632.685
       231.000         187.000
 98  3 17 23 53 59.9970000  0  8G30G24G 4G 5G 6G 8G 9G10
  21135185.424   -13425390.49249  -9706941.53747  21135185.835    21135192.306
       236.000         192.000
  19855281.083    -1321750.37949  -1021916.28648  19855280.905    19855288.158
       245.000         215.000
  22465709.426     6159849.06449   4789932.58046  22465710.302    22465717.328
       223.000         171.000
  19584041.231    -7302353.12449  -5677244.88748  19584040.711    19584047.503
       247.000         219.000
  23038508.243   -11031642.86449  -8581947.85445  23038507.953    23038516.779
       216.000         160.000
  21413109.616     -704811.66249   -542740.88446  21413109.153    21413118.102
       229.000         183.000
  22861955.933     5548305.42249   4319436.25446  22861955.647    22861964.271
       218.000         165.000
  21453166.817   -13228622.97849 -10288152.73147  21453165.802    21453174.561
       231.000         188.000
 98  3 17 23 54 29.9970000  0  8G30G24G 4G 5G 6G 8G 9G10
  21116135.802   -13525496.75949  -9784946.38847  21116135.913    21116142.471
       237.000         193.000
  19858962.155    -1302406.10949  -1006842.83648  19858961.997    19858969.423
       245.000         215.000
  22479319.268     6231369.16449   4845662.48846  22479319.471    22479327.228
       223.000         171.000
  19577809.386    -7335101.45449  -5702763.06548  19577808.955    19577815.570
       248.000         219.000
  23021298.351   -11122080.94149  -8652418.99245  23021298.157    23021306.811
       217.000         160.000
  21418998.182     -673867.17049   -518628.33746  21418997.856    21419006.170
       229.000         182.000
  22874614.966     5614828.86749   4371272.63346  22874615.223    22874624.046
       218.000         165.000
  21434768.156   -13325308.28649 -10363491.87047  21434767.209    21434775.371
       231.000         188.000
 98  3 17 23 54 59.9970000  0  8G30G24G 4G 5G 6G 8G 9G10
  21097140.809   -13625315.86049  -9862727.47747  21097141.003    21097147.602
       236.000         193.000
  19862715.669    -1282681.15349   -991472.74848  19862715.548    19862723.059
       245.000         215.000
  22492951.012     6303004.23149   4901481.97346  22492950.674    22492959.199
       223.000         171.000
  19571673.066    -7367347.96549  -5727890.21648  19571672.653    19571679.389
       247.000         219.000
  23004095.576   -11212481.45849  -8722860.89145  23004094.986    23004103.794
       215.000         160.000
  21424974.357     -642462.06449   -494156.86746  21424974.099    21424981.591
       229.000         182.000
  22887297.474     5681475.76549   4423205.20246  22887297.494    22887306.515
       217.000         164.000
  21416436.136   -13421643.36649 -10438558.10547  21416434.691    21416443.508
       231.000         188.000
 98  3 17 23 55 29.9970000  0  8G30G24G 4G 5G 6G 8G 9G10
  21078185.224   -13724927.93249  -9940347.24147  21078185.276    21078192.136
       236.000         193.000
  19866518.760    -1262695.97549   -975899.88548  19866518.775    19866525.915
       245.000         215.000
  22506583.429     6374642.82449   4957304.21446  22506584.726    22506591.794
       223.000         171.000
  19565609.663    -7399211.27249  -5752718.76148  19565609.081    19565615.789
       247.000         219.000
  22986878.843   -11302955.50649  -8793360.07445  22986878.415    22986887.042
       215.000         160.000
  21431015.954     -610713.35349   -469417.64646  21431015.577    21431023.426
       229.000         182.000
  22899981.652     5748131.26849   4475144.49046  22899981.173    22899990.872
       218.000         164.000
  21398151.890   -13517727.33649 -10513428.67047  21398151.278    21398159.114
       231.000         188.000
 98  3 17 23 55 59.9970000  0  8G30G24G 4G 5G 6G 8G 9G10
  21059282.453   -13824262.56349 -10017750.81847  21059282.312    21059289.145
       236.000         194.000
  19870381.534    -1242397.30649   -960082.75048  19870381.451    19870388.526
       245.000         215.000
  22520225.435     6446331.68349   5013165.61446  22520225.732    22520233.670
       223.000         171.000
  19559626.162    -7430654.84249  -5777220.24448  19559625.853    19559632.555
       248.000         219.000
  22969658.351   -11393449.58649  -8863874.88545  22969657.407    22969666.409
       217.000         160.000
  21437131.060     -578578.35049   -444377.43346  21437130.653    21437139.014
       228.000         182.000
  22912674.686     5814833.20349   4527119.94346  22912675.165    22912684.597
       218.000         164.000
  21379927.510   -13613496.75149 -10588054.12847  21379926.295    21379934.539
       232.000         188.000
 98  3 17 23 56 29.9970000  0  8G30G24G 4G 5G 6G 8G 9G10
  21040440.209   -13923278.99949 -10094906.44547  21040440.446    21040446.889
       236.000         194.000
  19874306.154    -1221773.44249   -944012.21448  19874306.034    19874313.300
       245.000         215.000
  22533877.282     6518072.27249   5069067.33346  22533877.831    22533884.617
       222.000         170.000
  19553725.528    -7461662.95549  -5801382.41048  19553725.128    19553731.639
       248.000         219.000
  22952436.151   -11483952.55649  -8934396.60545  22952436.069    22952444.397
       217.000         161.000
  21443321.960     -546045.00049   -419026.81246  21443321.607    21443329.772
       228.000         182.000
  22925378.179     5881589.90749   4579138.08946  22925377.431    22925387.223
       218.000         164.000
  21361766.982   -13708930.68849 -10662418.17647  21361766.037    21361774.353
       232.000         189.000
 98  3 17 23 56 59.9970000  0  8G30G24G 4G 5G 6G 8G 9G10
  21021660.480   -14021967.26049 -10171806.35847  21021660.607    21021667.224
       237.000         195.000
  19878291.146    -1200832.11449   -927694.30148  19878291.055    19878298.303
       246.000         214.000
  22547539.350     6589866.87349   5125011.12846  22547538.834    22547547.392
       223.000         169.000
  19547910.405    -7492221.71149  -5825194.42748  19547910.143    19547916.539
       248.000         219.000
  22935210.580   -11574473.50149  -9004932.33645  22935211.194    22935218.623
       218.000         161.000
  21449587.287     -513120.53149   -393371.42146  21449586.550    21449595.703
       228.000         181.000
  22938089.544     5948388.25249   4631188.68546  22938089.741    22938098.724
       218.000         164.000
  21343672.788   -13804016.16949 -10736510.69447  21343672.093    21343680.149
       232.000         189.000
 98  3 17 23 57 29.9970000  0  8G30G24G 4G 5G 6G 8G 9G10
  21002929.910   -14120396.96049 -10248504.79047  21002930.444    21002936.553
       237.000         195.000
  19882321.686    -1179651.64349   -911190.04348  19882321.525    19882328.697
       245.000         214.000
  22561200.095     6661654.52749   5180949.52046  22561199.567    22561208.543
       221.000         168.000
  19542168.039    -7522398.22849  -5848708.59248  19542167.619    19542174.094
       248.000         219.000
  22917968.033   -11665083.86349  -9075537.74945  22917967.971    22917975.990
       218.000         162.000
  21455913.702     -479874.99749   -367465.85946  21455913.100    21455921.532
       228.000         181.000
  22950791.875     6015139.02649   4683202.19246  22950792.127    22950801.251
       217.000         164.000
  21325633.593   -13898812.69949 -10810378.05447  21325632.981    21325641.231
       232.000         190.000
 98  3 17 23 57 59.9970000  0  8G30G24G 4G 5G 6G 8G 9G10
  20984254.569   -14218536.44149 -10324977.08447  20984254.633    20984261.583
       237.000         195.000
  19886405.574    -1158190.79949   -894467.31948  19886405.538    19886412.754
       245.000         214.000
  22574867.071     6733474.86849   5236913.37746  22574866.685    22574875.441
       221.000         167.000
  19536511.086    -7552125.82249  -5871872.95348  19536510.535    19536517.190
       248.000         219.000
  22900717.861   -11755734.15649  -9146174.28045  22900717.463    22900725.848
       218.000         162.000
  21462310.290     -446260.60949   -341272.87446  21462309.802    21462318.738
       228.000         181.000
  22963492.817     6081882.59649   4735210.10146  22963492.205    22963502.387
       218.000         164.000
  21307655.295   -13993289.05049 -10883995.93147  21307654.518    21307662.830
       232.000         190.000
 98  3 17 23 58 29.9970000  0  8G30G24G 4G 5G 6G 8G 9G10
  20965639.247   -14316360.58549 -10401203.65547  20965639.470    20965646.038
       237.000         196.000
  19890548.019    -1136422.13449   -877504.73048  19890547.800    19890555.134
       245.000         214.000
  22588546.203     6805359.17249   5292927.07946  22588546.425    22588554.387
       221.000         167.000
  19530949.884    -7581350.02049  -5894645.05348  19530949.445    19530955.954
       248.000         219.000
  22883467.992   -11846382.78849  -9216809.52046  22883468.125    22883475.784
       220.000         163.000
  21468783.767     -412242.65949   -314765.43646  21468783.041    21468791.481
       228.000         181.000
  22976201.847     6148668.77949   4787251.20746  22976201.127    22976210.913
       218.000         164.000
  21289743.168   -14087417.64649 -10957342.82447  21289742.278    21289750.475
       231.000         190.000
 98  3 17 23 58 59.9970000  0  8G30G24G 4G 5G 6G 8G 9G10
  20947080.771   -14413885.97249 -10477197.43447  20947081.147    20947087.788
       237.000         196.000
  19894746.776    -1114357.56049   -860311.56748  19894746.723    19894753.986
       245.000         214.000
  22602235.930     6877298.96849   5348984.01346  22602236.088    22602244.719
       221.000         167.000
  19525483.413    -7610076.53949  -5917029.35648  19525483.029    19525489.383
       248.000         219.000
  22866215.555   -11937044.68249  -9287455.10046  22866215.908    22866223.214
       218.000         163.000
  21475332.859     -377827.31049   -287948.32946  21475332.307    21475340.460
       228.000         181.000
  22988917.299     6215488.89749   4839318.75746  22988917.154    22988925.977
       220.000         164.000
  21271896.076   -14181204.28949 -11030423.27047  21271895.153    21271903.497
       232.000         190.000
 98  3 17 23 59 29.9970000  0  8G30G24G 4G 5G 6G 8G 9G10
  20928588.552   -14511063.03049 -10552919.78147  20928588.749    20928595.221
       237.000         197.000
  19899015.710    -1091924.10849   -842830.96248  19899015.408    19899022.910
       245.000         214.000
  22615946.771     6949349.63949   5405127.34546  22615946.946    22615954.391
       220.000         167.000
  19520122.153    -7638250.09149  -5938982.77248  19520121.871    19520128.315
       248.000         220.000
  22848973.574   -12027651.67649  -9358057.89846  22848972.775    22848981.053
       218.000         163.000
  21481971.287     -342942.35649   -260765.29746  21481971.391    21481978.991
       228.000         181.000
  23001652.311     6282411.51649   4891466.18246  23001652.847    23001661.531
       217.000         164.000
  21254125.706   -14274588.12749 -11103189.83347  21254125.075    21254133.078
       233.000         190.000
 98  3 17 23 59 59.9970000  0  8G30G24G 4G 5G 6G 8G 9G10
  20910155.681   -14607928.29849 -10628399.17947  20910155.980    20910162.567
       238.000         197.000
  19903351.155    -1069141.06449   -825077.95048  19903351.127    19903358.500
       245.000         214.000
  22629673.755     7021485.11249   5461336.75646  22629674.292    22629681.728
       221.000         166.000
  19514860.946    -7665898.12649  -5960526.69848  19514860.693    19514867.066
       248.000         220.000
  22831737.004   -12118230.29549  -9428638.58546  22831737.017    22831745.213
       219.000         164.000
  21488695.624     -307606.20649   -233230.68346  21488695.286    21488702.980
       228.000         181.000
  23014403.749     6349420.61449   4943680.98846  23014403.680    23014412.735
       217.000         163.000
  21236427.673   -14367591.57049 -11175659.99747  21236426.918    21236435.089
       233.000         191.000
 98  3 18  0  0 29.9970000  0  8G30G24G 4G 5G 6G 8G 9G10
  20891770.479   -14704543.13549 -10703683.42747  20891770.488    20891777.276
       238.000         197.000
  19907741.458    -1046069.92249   -807100.44448  19907741.497    19907748.844
       245.000         214.000
  22643402.763     7093631.17449   5517554.42146  22643403.468    22643410.926
       220.000         166.000
  19509683.619    -7693105.36449  -5981727.14348  19509683.277    19509689.648
       248.000         220.000
  22814491.486   -12208855.74549  -9499255.75746  22814490.887    22814499.510
       219.000         164.000
  21495492.170     -271890.51749   -205400.31546  21495492.031    21495499.980
       228.000         181.000
  23027156.470     6416436.19749   4995900.84646  23027156.431    23027165.625
       218.000         163.000
  21218791.982   -14460267.72049 -11247875.12447  21218790.847    21218799.369
       233.000         191.000
 98  3 18  0  0 59.9970000  0  8G30G24G 4G 5G 6G 8G 9G10
  20873438.266   -14800879.59049 -10778750.76347  20873438.389    20873444.929
       238.000         197.000
  19912191.605    -1022684.45149   -788878.01048  19912191.467    19912198.824
       245.000         214.000
  22657137.926     7165809.88749   5573797.52546  22657138.459    22657146.225
       219.000         165.000
  19504590.450    -7719870.25949  -6002582.90648  19504590.043    19504596.513
       248.000         220.000
  22797240.138   -12299511.82249  -9569896.81546  22797239.689    22797247.843
       218.000         164.000
  21502364.527     -235776.18949   -177259.32446  21502364.203    21502372.558
       227.000         181.000
  23039910.763     6483459.89749   5048127.02846  23039911.071    23039919.891
       217.000         163.000
  21201223.758   -14552588.93749 -11319813.67847  21201223.368    21201230.971
       233.000         191.000
 98  3 18  0  1 29.9970000  0  8G30G24G 4G 5G 6G 8G 9G10
  20855156.871   -14896948.76649 -10853609.82947  20855157.015    20855163.747
       237.000         197.000
  19916695.624     -999015.79749   -770434.91148  19916695.519    19916702.828
       245.000         214.000
  22670874.296     7237995.03549   5630045.65446  22670875.040    22670882.707
       219.000         165.000
  19499575.227    -7746225.48849  -6023119.44948  19499574.815    19499581.323
       248.000         220.000
  22779978.739   -12390220.86249  -9640579.12346  22779978.359    22779986.199
       221.000         164.000
  21509306.842     -199294.32749   -148831.93746  21509306.767    21509314.537
       228.000         181.000
  23052660.439     6550459.46549   5100334.41846  23052659.926    23052670.447
       217.000         163.000
  21183716.696   -14644589.01149 -11391501.99847  21183715.789    21183724.008
       233.000         192.000
 98  3 18  0  1 59.9970000  0  8G30G24G 4G 5G 6G 8G 9G10
  20836936.748   -14992696.03249 -10928218.05147  20836936.769    20836943.360
       238.000         198.000
  19921255.883     -975051.59549   -751761.51248  19921255.782    19921263.049
       245.000         214.000
  22684616.367     7310210.34149   5686317.26446  22684616.926    22684624.094
       219.000         165.000
  19494645.739    -7772130.10449  -6043304.86348  19494645.298    19494651.813
       248.000         220.000
  22762710.727   -12480964.83649  -9711288.65446  22762710.344    22762718.821
       219.000         165.000
  21516323.453     -162422.07749   -120100.34346  21516323.229    21516331.660
       228.000         180.000
  23065409.118     6617453.93249   5152537.81745  23065409.080    23065419.092
       215.000         162.000
  21166274.661   -14736247.35649 -11462924.03647  21166273.953    21166281.971
       233.000         192.000
 98  3 18  0  2 29.9970000  0  8G30G24G 4G 5G 6G 8G 9G10
  20818781.956   -15088099.80949 -11002558.62647  20818782.177    20818788.795
       238.000         198.000
  19925871.730     -950795.38049   -732860.57248  19925871.806    19925879.130
       245.000         214.000
  22698363.653     7382452.75449   5742610.00546  22698364.030    22698371.964
       219.000         164.000
  19489805.651    -7797564.99949  -6063124.26148  19489805.059    19489811.642
       248.000         220.000
  22745439.238   -12571726.98949  -9782012.36646  22745439.300    22745447.424
       219.000         166.000
  21523414.339     -125159.48549    -91064.58846  21523414.130    21523421.873
       229.000         180.000
  23078156.879     6684443.86849   5204737.68145  23078156.555    23078166.775
       217.000         161.000
  21148898.717   -14827558.34949 -11534075.41347  21148898.043    21148906.082
       233.000         192.000
 98  3 18  0  2 59.9970000  0  8G30G24G 4G 5G 6G 8G 9G10
  20800688.691   -15183180.29449 -11076647.28247  20800688.803    20800695.390
       238.000         198.000
  19930538.011     -926273.95549   -713752.97248  19930537.866    19930545.064
       245.000         214.000
  22712113.648     7454709.11949   5798913.62346  22712113.801    22712121.654
       219.000         164.000
  19485054.070    -7822534.54949  -6082581.05348  19485053.438    19485060.181
       248.000         220.000
  22728163.083   -12662513.54949  -9852755.07646  22728162.920    22728170.834
       220.000         166.000
  21530573.525      -87537.69749    -61748.94446  21530572.964    21530581.411
       227.000         180.000
  23090901.260     6751415.98149   5256923.66945  23090901.122    23090910.704
       216.000         160.000
  21131588.263   -14918524.96949 -11604958.44947  21131587.187    21131596.286
       233.000         193.000
 98  3 18  0  3 29.9970000  0  8G30G24G 4G 5G 6G 8G 9G10
  20782671.834   -15277859.18149 -11150423.00247  20782672.026    20782678.496
       238.000         198.000
  19935269.248     -901411.11149   -694379.33448  19935269.280    19935276.443
       246.000         214.000
  22725881.036     7527056.99449   5855288.55446  22725881.889    22725889.193
       219.000         164.000
  19480411.271    -7846932.56649  -6101592.49748  19480410.852    19480417.401
       249.000         220.000
  22710898.697   -12753238.14749  -9923449.51946  22710898.772    22710907.391
       220.000         166.000
  21537817.476      -49470.50849    -32086.23646  21537817.209    21537825.250
       228.000         180.000
  23103658.303     6818454.69149   5309161.54245  23103658.430    23103667.448
       217.000         160.000
  21114361.649   -15009051.38849 -11675498.46747  21114360.842    21114369.128
       234.000         193.000
 98  3 18  0  3 59.9970000  0  8G30G24G 4G 5G 6G 8G 9G10
  20764718.088   -15372206.45449 -11223940.32647  20764718.145    20764725.072
       238.000         198.000
  19940055.571     -876258.95649   -674780.25748  19940055.437    19940062.847
       246.000         214.000
  22739656.075     7599444.91749   5911694.69346  22739656.004    22739664.132
       219.000         163.000
  19475867.752    -7870808.81149  -6120197.36548  19475867.318    19475873.877
       248.000         219.000
  22693636.826   -12843949.81049  -9994133.87346  22693636.303    22693645.092
       220.000         167.000
  21545134.718      -11018.30449     -2123.51846  21545134.214    21545142.620
       228.000         180.000
  23116416.422     6885498.67549   5361403.52945  23116417.207    23116425.892
       218.000         160.000
  21097213.683   -15099164.29349 -11745716.27147  21097212.714    21097220.957
       234.000         193.000
 98  3 18  0  4 29.9970000  0  8G30G24G 4G 5G 6G 8G 9G10
  20746806.276   -15466333.41249 -11297285.97247  20746806.355    20746812.997
       238.000         199.000
  19944879.985     -850906.30149   -655024.94648  19944879.787    19944886.947
       245.000         213.000
  22753419.941     7671774.17249   5968055.10746  22753420.195    22753428.480
       218.000         163.000
  19471403.188    -7894270.19849  -6138478.96748  19471402.778    19471409.329
       248.000         219.000
  22676359.462   -12934742.74549 -10064881.55246  22676359.143    22676367.121
       219.000         167.000
  21552503.672       27705.98849     28051.21446  21552502.873    21552512.468
       227.000         180.000
  23129156.128     6952445.70149   5413569.96045  23129156.198    23129166.041
       217.000         160.000
  21080128.094   -15188949.43549 -11815678.67047  21080127.631    21080135.722
       234.000         193.000
 98  3 18  0  4 59.9970000  0  8G30G24G 4G 5G 6G 8G 9G10
  20728962.372   -15560103.55049 -11370353.57747  20728962.708    20728969.242
       238.000         199.000
  19949769.470     -825211.81149   -635003.27048  19949769.372    19949776.488
       245.000         213.000
  22767199.323     7744185.16549   6024479.21446  22767199.316    22767206.915
       217.000         163.000
  19467042.819    -7917184.00249  -6156333.88348  19467042.387    19467049.032
       248.000         219.000
  22659089.460   -13025497.00649 -10135599.08546  22659088.190    22659097.776
       219.000         167.000
  21559949.925       66836.23549     58542.27646  21559949.148    21559957.728
       227.000         179.000
  23141904.178     7019437.03449   5465770.91845  23141904.153    23141913.490
       218.000         160.000
  21063130.314   -15278273.06149 -11885281.45247  21063129.579    21063137.665
       233.000         194.000
 98  3 18  0  5 29.9970000  0  8G30G24G 4G 5G 6G 8G 9G10
  20711172.173   -15653591.53749 -11443201.32847  20711172.484    20711178.873
       239.000         199.000
  19954708.253     -799258.21749   -614779.69548  19954708.183    19954715.386
       245.000         213.000
  22780977.826     7816591.39449   6080899.60946  22780978.617    22780986.291
       216.000         163.000
  19462768.736    -7939644.44049  -6173835.52348  19462768.276    19462774.961
       248.000         219.000
  22641809.740   -13116302.17149 -10206356.28446  22641808.842    22641818.311
       221.000         167.000
  21567460.280      106303.23549     89295.73446  21567459.938    21567468.599
       227.000         179.000
  23154644.640     7086388.61249   5517940.91145  23154643.924    23154653.137
       217.000         158.000
  21046201.331   -15367235.54149 -11954602.82047  21046200.449    21046208.591
       234.000         194.000
 98  3 18  0  5 59.9970000  0  8G30G24G 4G 5G 6G 8G 9G10
  20693434.364   -15746804.16049 -11515834.51047  20693434.453    20693441.138
       238.000         199.000
  19959698.139     -773036.06549   -594346.85548  19959697.869    19959705.213
       245.000         213.000
  22794754.676     7888989.27049   6137313.49846  22794754.590    22794762.704
       217.000         163.000
  19458578.827    -7961662.63549  -6190992.55948  19458578.496    19458585.102
       247.000         219.000
  22624519.490   -13207162.46749 -10277156.45346  22624519.391    22624527.819
       220.000         167.000
  21575030.630      146085.51649    120294.87846  21575030.597    21575038.419
       226.000         179.000
  23167376.482     7153294.71649   5570075.46345  23167377.218    23167386.225
       217.000         158.000
  21029337.366   -15455855.94649 -12023657.63447  21029336.343    21029344.858
       234.000         194.000
 98  3 18  0  6 29.9970000  0  8G30G24G 4G 5G 6G 8G 9G10
  20675763.672   -15839664.26149 -11588192.99747  20675764.026    20675770.476
       239.000         200.000
  19964754.139     -746466.78749   -573643.52548  19964754.108    19964761.511
       244.000         213.000
  22808543.158     7961448.49649   6193775.19245  22808543.094    22808551.096
       218.000         162.000
  19454489.348    -7983153.00749  -6207738.30748  19454488.758    19454495.367
       248.000         220.000
  22607234.605   -13297994.69549 -10347934.75246  22607234.078    22607242.446
       220.000         168.000
  21582676.531      186264.89549    151603.44146  21582676.324    21582684.847
       226.000         179.000
  23180115.094     7220236.41149   5622237.74945  23180114.740    23180124.713
       215.000         158.000
  21012551.594   -15544065.35849 -12092392.19347  21012550.904    21012558.754
       233.000         194.000
 98  3 18  0  6 59.9970000  0  8G30G24G 4G 5G 6G 8G 9G10
  20658147.895   -15932235.78449 -11660326.62147  20658147.982    20658154.783
       239.000         200.000
  19969860.270     -719634.02249   -552734.88748  19969860.353    19969867.586
       245.000         213.000
  22822331.176     8033904.93649   6250234.70745  22822331.329    22822340.010
       217.000         162.000
  19450485.826    -8004191.71649  -6224132.10948  19450485.539    19450492.066
       248.000         219.000
  22589941.910   -13388867.99249 -10418745.03946  22589941.209    22589950.138
       219.000         168.000
  21590385.617      226776.07849    183170.56046  21590385.697    21590393.926
       228.000         179.000
  23192848.683     7287151.75849   5674379.50145  23192848.995    23192859.337
       217.000         158.000
  20995831.848   -15631928.12449 -12160856.64447  20995831.418    20995839.292
       234.000         194.000
 98  3 18  0  7 29.9970000  0  8G30G24G 4G 5G 6G 8G 9G10
  20640613.915   -16024377.41049 -11732125.26147  20640614.230    20640620.548
       239.000         200.000
  19975041.775     -692405.13949   -531517.58248  19975041.666    19975048.976
       245.000         213.000
  22836144.065     8106492.11949   6306796.10745  22836144.236    22836152.589
       218.000         162.000
  19446593.743    -8024644.90649  -6240069.66448  19446593.394    19446600.010
       248.000         220.000
  22572668.568   -13479639.97649 -10489476.39646  22572668.457    22572677.171
       221.000         168.000
  21598182.819      267750.48149    215098.62446  21598182.489    21598190.098
       228.000         179.000
  23205603.120     7354176.25849   5726606.29345  23205602.975    23205612.631
       218.000         158.000
  20979206.469   -15719294.86649 -12228934.57947  20979205.708    20979213.803
       235.000         195.000
 98  3 18  0  7 59.9970000  0  8G30G24G 4G 5G 6G 8G 9G10
  20623143.250   -16116186.28349 -11803664.61247  20623143.315    20623149.948
       239.000         200.000
  19980278.216     -664887.39049   -510075.18448  19980277.901    19980285.348
       245.000         213.000
  22849961.339     8179102.50249   6363375.57745  22849961.881    22849969.935
       218.000         162.000
  19442795.781    -8044603.40249  -6255621.74048  19442795.323    19442801.853
       248.000         220.000
  22555394.685   -13570414.62949 -10560209.82046  22555394.295    22555403.039
       220.000         169.000
  21606047.815      309080.80049    247304.03446  21606047.934    21606055.744
       227.000         179.000
  23218359.610     7421211.75749   5778841.67045  23218359.504    23218369.045
       216.000         157.000
  20962658.752   -15806253.56049 -12296694.55447  20962658.034    20962665.763
       234.000         195.000
 98  3 18  0  8 29.9970000  0  8G30G24G 4G 5G 6G 8G 9G10
  20605727.577   -16207706.26949 -11874978.86247  20605727.592    20605734.228
       239.000         200.000
  19985548.941     -637189.52849   -488492.44047  19985548.852    19985555.927
       245.000         212.000
  22863769.857     8251666.02849   6419918.54345  22863770.171    22863778.580
       217.000         161.000
  19439076.678    -8064147.52449  -6270850.93348  19439076.188    19439082.844
       247.000         220.000
  22538103.605   -13661279.61349 -10631013.64946  22538103.226    22538111.508
       220.000         169.000
  21613967.830      350700.60149    279735.00146  21613967.432    21613976.371
       227.000         179.000
  23231104.987     7488188.74649   5831031.45345  23231105.240    23231114.604
       215.000         156.000
  20946175.712   -15892872.47149 -12364189.76747  20946174.785    20946183.031
       236.000         196.000
 98  3 18  0  8 59.9970000  0  8G30G24G 4G 5G 6G 8G 9G10
  20588371.207   -16298914.40749 -11946050.11147  20588371.227    20588378.005
       239.000         201.000
  19990853.126     -609315.70449   -466772.58047  19990852.841    19990860.307
       245.000         212.000
  22877569.267     8324182.22749   6476424.62645  22877569.408    22877577.636
       216.000         161.000
  19435435.523    -8083281.72349  -6285760.70048  19435434.968    19435441.682
       247.000         219.000
  22520792.671   -13752248.82249 -10701898.69246  22520792.130    22520800.257
       221.000         170.000
  21621941.166      392600.84149    312384.49846  21621941.132    21621949.397
       226.000         178.000
  23243839.439     7555108.38849   5883176.56145  23243839.914    23243848.802
       215.000         156.000
  20929756.083   -15979158.12049 -12431425.29347  20929755.422    20929763.586
       235.000         196.000
 98  3 18  0  9 29.9970000  0  8G30G24G 4G 5G 6G 8G 9G10
  20571076.547   -16389798.33449 -12016868.73147  20571076.590    20571083.398
       240.000         201.000
  19996194.441     -581246.82149   -444900.72747  19996194.393    19996201.711
       245.000         212.000
  22891360.125     8396653.34349   6532895.58745  22891360.731    22891368.089
       217.000         161.000
  19431876.741    -8101983.04049  -6300333.15748  19431876.282    19431882.979
       248.000         219.000
  22503466.764   -13843296.86249 -10772845.16046  22503466.554    22503474.685
       221.000         170.000
  21629969.917      434792.09749    345260.75146  21629969.184    21629977.656
       226.000         177.000
  23256561.312     7621961.69249   5935269.98045  23256561.787    23256571.377
       217.000         155.000
  20913400.877   -16065105.42149 -12498397.17347  20913400.064    20913408.099
       236.000         196.000
 98  3 18  0  9 59.9970000  0  8G30G24G 4G 5G 6G 8G 9G10
  20553845.400   -16480348.40749 -12087427.20647  20553845.629    20553851.974
       240.000         201.000
  20001572.910     -552982.90149   -422876.90047  20001572.999    20001580.034
       245.000         212.000
  22905144.599     8469090.93149   6589340.43045  22905144.858    22905152.134
       218.000         160.000
  19428401.971    -8120242.97749  -6314561.68248  19428401.597    19428408.230
       248.000         219.000
  22486129.419   -13934404.99049 -10843838.44846  22486128.957    22486137.257
       222.000         170.000
  21638055.048      477279.61449    378367.85646  21638055.306    21638063.339
       226.000         177.000
  23269267.232     7688731.14649   5987298.04545  23269267.321    23269277.020
       215.000         155.000
  20897110.565   -16150711.50449 -12565103.17347  20897109.822    20897117.571
       236.000         196.000
 98  3 18  0 10 29.9970000  0  8G30G24G 4G 5G 6G 8G 9G10
  20536693.005   -16570484.67349 -12157663.23347  20536693.213    20536699.729
       240.000         201.000
  20007003.641     -524444.41549   -400639.11947  20007003.560    20007010.828
       244.000         212.000
  22918937.903     8541574.66649   6645821.22245  22918937.949    22918946.806
       218.000         160.000
  19425025.042    -8137988.93349  -6328389.69748  19425024.585    19425031.259
       248.000         219.000
  22468796.356   -14025490.72149 -10914814.28446  22468795.946    22468804.661
       221.000         170.000
  21646209.851      520133.31349    411760.30246  21646209.541    21646218.251
       227.000         176.000
  23281970.199     7755485.32149   6039314.21845  23281970.008    23281978.913
       215.000         155.000
  20880902.165   -16235887.03149 -12631473.66647  20880901.573    20880909.234
       235.000         196.000
 98  3 18  0 10 59.9970000  0  8G30G24G 4G 5G 6G 8G 9G10
  20519596.103   -16660329.38149 -12227672.07447  20519596.319    20519602.793
       240.000         202.000
  20012472.607     -495704.77449   -378244.59847  20012472.314    20012479.734
       244.000         211.000
  22932718.318     8613991.27849   6702249.70945  22932718.749    22932726.817
       219.000         160.000
  19421727.367    -8155318.36749  -6341893.15148  19421726.928    19421733.534
       248.000         219.000
  22451452.069   -14116635.40149 -10985836.06446  22451451.633    22451460.068
       222.000         171.000
  21654415.001      563251.55349    445358.88646  21654414.351    21654422.932
       226.000         176.000
  23294647.802     7822106.37749   6091226.64945  23294647.661    23294657.412
       214.000         155.000
  20864759.187   -16320718.86749 -12697576.35647  20864758.228    20864766.454
       236.000         196.000
 98  3 18  0 11 29.9970000  0  8G30G24G 4G 5G 6G 8G 9G10
  20502564.239   -16749832.39149 -12297414.65547  20502564.540    20502570.986
       240.000         202.000
  20017990.415     -466708.39449   -355650.02147  20017990.294    20017997.602
       244.000         211.000
  22946497.112     8686398.92449   6758671.21345  22946497.241    22946505.937
       218.000         160.000
  19418519.735    -8172174.65049  -6355027.91848  19418519.239    19418525.956
       247.000         219.000
  22434109.193   -14207772.48249 -11056851.91346  22434108.940    22434116.708
       222.000         171.000
  21662682.113      606695.27849    479211.09146  21662681.937    21662689.983
       225.000         176.000
  23307309.338     7888643.20249   6143073.45145  23307309.455    23307318.791
       215.000         155.000
  20848695.596   -16405133.41949 -12763353.88347  20848694.899    20848702.717
       236.000         196.000
 98  3 18  0 11 59.9970000  0  8G30G24G 4G 5G 6G 8G 9G10
  20485610.108   -16838926.97949 -12366838.99247  20485610.407    20485616.634
       240.000         202.000
  20023570.090     -437387.17149   -332802.32747  20023569.941    20023577.359
       244.000         212.000
  22960286.830     8758864.11549   6815137.56145  22960286.464    22960295.470
       216.000         160.000
  19415414.275    -8188493.98549  -6367744.29248  19415413.929    19415420.350
       248.000         220.000
  22416775.138   -14298863.15449 -11127831.61346  22416775.419    22416783.472
       222.000         171.000
  21671022.674      650525.13449    513364.16846  21671022.433    21671031.538
       226.000         176.000
  23319970.677     7955178.86749   6194919.35045  23319971.640    23319981.097
       212.000         154.000
  20832727.707   -16489045.02149 -12828739.51347  20832726.903    20832734.822
       236.000         197.000
 98  3 18  0 12 29.9970000  0  8G30G24G 4G 5G 6G 8G 9G10
  20468745.867   -16927549.04149 -12435895.12547  20468746.092    20468752.461
       241.000         203.000
  20029224.400     -407673.42449   -309648.76547  20029224.416    20029231.864
       244.000         212.000
  22974096.612     8831434.85249   6871686.15245  22974096.854    22974104.952
       217.000         159.000
  19412423.016    -8204213.34149  -6379993.14748  19412422.599    19412429.167
       247.000         219.000
  22399458.494   -14389862.30749 -11198739.99346  22399457.878    22399465.736
       220.000         171.000
  21679446.603      694792.86149    547858.45646  21679446.122    21679454.642
       224.000         176.000
  23332646.247     8021789.34849   6246823.54245  23332646.265    23332656.570
       209.000         154.000
  20816866.012   -16572398.61049 -12893690.32247  20816865.394    20816873.256
       236.000         197.000
 98  3 18  0 12 59.9970000  0  8G30G24G 4G 5G 6G 8G 9G10
  20451939.843   -17015865.21849 -12504712.90347  20451939.967    20451946.572
       241.000         203.000
  20034921.088     -377737.11149   -286321.77547  20034920.983    20034928.534
       244.000         211.000
  22987894.005     8903940.50249   6928184.02045  22987894.592    22987901.116
       217.000         158.000
  19409515.199    -8219493.82649  -6391900.01848  19409514.763    19409521.353
       247.000         219.000
  22382128.899   -14480929.68349 -11269701.53646  22382128.105    22382136.992
       222.000         171.000
  21687920.220      739321.98649    582556.42946  21687920.565    21687928.498
       225.000         175.000
  23345303.819     8088305.48849   6298654.20845  23345303.623    23345314.084
       215.000         154.000
  20801075.773   -16655376.77749 -12958348.59247  20801074.756    20801082.793
       236.000         197.000
 98  3 18  0 13 29.9970000  0  8G30G24G 4G 5G 6G 8G 9G10
  20435208.687   -17103787.85049 -12573224.02047  20435208.789    20435215.314
       240.000         203.000
  20040672.370     -347514.08349   -262771.37147  20040672.321    20040679.698
       244.000         211.000
  23001694.145     8976460.59449   6984693.15045  23001694.248    23001702.125
       216.000         157.000
  19406706.501    -8234253.46949  -6403401.03948  19406706.157    19406712.783
       247.000         219.000
  22364799.891   -14571994.11749 -11340660.77446  22364799.472    22364807.435
       222.000         171.000
  21696455.956      784177.38849    617508.64646  21696455.297    21696464.129
       225.000         175.000
  23357960.813     8154817.81249   6350481.91145  23357960.530    23357970.346
       213.000         154.000
  20785370.745   -16737907.12249 -13022657.91147  20785369.918    20785377.874
       236.000         198.000
 98  3 18  0 13 59.9970000  0  8G30G24G 4G 5G 6G 8G 9G10
  20418540.547   -17191379.40949 -12641477.15747  20418540.748    20418547.244
       241.000         203.000
  20046465.038     -317073.57549   -239051.50147  20046465.061    20046472.401
       244.000         211.000
  23015484.393     9048928.68649   7041161.74745  23015484.522    23015492.784
       216.000         156.000
  19403985.620    -8248551.83749  -6414542.62748  19403985.151    19403991.835
       247.000         219.000
  22347459.619   -14663117.76349 -11411666.16646  22347459.296    22347467.029
       222.000         171.000
  21705039.210      829282.63149    652655.53146  21705038.834    21705047.917
       225.000         175.000
  23370606.313     8221269.62749   6402262.47245  23370606.556    23370616.185
       213.000         154.000
  20769737.402   -16820060.73349 -13086673.67347  20769736.700    20769744.369
       236.000         198.000
 98  3 18  0 14 29.9970000  0  8G30G24G 4G 5G 6G 8G 9G10
  20401936.770   -17278632.71949 -12709466.72647  20401936.983    20401943.360
       241.000         203.000
  20052296.602     -286428.48949   -215172.21847  20052296.384    20052303.593
       244.000         211.000
  23029264.149     9121341.55049   7097587.32045  23029264.062    23029273.224
       215.000         156.000
  19401351.805    -8262392.68649  -6425327.70648  19401351.354    19401358.062
       248.000         219.000
  22330113.588   -14754271.28249 -11482694.82746  22330114.144    22330121.402
       223.000         172.000
  21713671.423      874644.72349    688002.56846  21713670.669    21713679.307
       225.000         175.000
  23383236.709     8287642.22549   6453981.29445  23383236.932    23383245.914
       215.000         153.000
  20754172.791   -16901852.98849 -13150407.85847  20754171.896    20754179.766
       236.000         198.000
 98  3 18  0 14 59.9970000  0  8G30G24G 4G 5G 6G 8G 9G10
  20385392.376   -17365573.97949 -12777213.13947  20385392.516    20385399.004
       242.000         203.000
  20058161.262     -255609.22549   -191157.22047  20058161.104    20058168.370
       244.000         211.000
  23043031.339     9193688.55849   7153961.58245  23043031.102    23043039.761
       214.000         155.000
  19398799.586    -8275804.68249  -6435778.61748  19398799.161    19398805.737
       247.000         220.000
  22312759.342   -14845468.25449 -11553757.34146  22312759.248    22312767.361
       222.000         172.000
  21722350.011      920250.58149    723539.55646  21722350.769    21722357.692
       226.000         175.000
  23395847.426     8353911.39449   6505619.54345  23395847.402    23395857.126
       211.000         153.000
  20738676.877   -16983284.57849 -13213861.00847  20738676.013    20738683.690
       236.000         198.000
 98  3 18  0 15 29.9970000  0  8G30G24G 4G 5G 6G 8G 9G10
  20368896.407   -17452260.72049 -12844761.22247  20368896.586    20368903.036
       241.000         203.000
  20064046.354     -224682.97149   -167058.84947  20064046.540    20064053.860
       244.000         211.000
  23056776.140     9265917.95749   7210244.19345  23056776.436    23056784.616
       215.000         155.000
  19396318.190    -8288844.67649  -6445939.65348  19396317.958    19396324.406
       248.000         220.000
  22295381.903   -14936786.76149 -11624914.56546  22295381.808    22295390.112
       222.000         172.000
  21731065.451      966049.95849    759227.32746  21731065.406    21731073.711
       227.000         175.000
  23408427.044     8420017.61949   6557130.81445  23408427.623    23408437.220
       211.000         152.000
  20723241.355   -17064398.53049 -13277066.64947  20723240.449    20723248.223
       236.000         197.000
 98  3 18  0 15 59.9970000  0  8G30G24G 4G 5G 6G 8G 9G10
  20352465.705   -17538604.51649 -12912042.07747  20352466.071    20352472.253
       242.000         204.000
  20069968.224     -193563.54649   -142809.95647  20069968.190    20069975.536
       244.000         211.000
  23070515.346     9338117.70849   7266503.70745  23070515.864    23070523.627
       214.000         155.000
  19393924.002    -8301426.26549  -6455743.49248  19393923.456    19393930.205
       247.000         219.000
  22277999.035   -15028133.93449 -11696094.11146  22277998.463    22278006.880
       223.000         172.000
  21739835.489     1012136.50649    795138.87946  21739834.816    21739843.736
       226.000         175.000
  23420988.275     8486026.80849   6608566.46445  23420988.057    23420997.192
       210.000         152.000
  20707883.702   -17145103.22049 -13339953.38447  20707882.801    20707890.526
       236.000         197.000
 98  3 18  0 16 29.9970000  0  8G30G24G 4G 5G 6G 8G 9G10
  20336081.246   -17624705.39049 -12979133.64347  20336081.784    20336087.988
       242.000         204.000
  20075907.819     -162350.81749   -118488.35747  20075907.678    20075915.026
       244.000         210.000
  23084228.905     9410182.65149   7322658.16745  23084229.720    23084237.127
       215.000         155.000
  19391597.937    -8313649.69949  -6465268.24748  19391597.576    19391604.050
       248.000         219.000
  22260590.870   -15119614.66049 -11767377.72146  22260591.103    22260598.672
       222.000         172.000
  21748640.854     1058408.35649    831194.80946  21748640.230    21748648.869
       226.000         175.000
  23433507.092     8551813.43649   6659828.70045  23433507.900    23433517.182
       211.000         153.000
  20692585.145   -17225497.42149 -13402598.18347  20692584.152    20692591.815
       237.000         197.000
 98  3 18  0 16 59.9970000  0  8G30G24G 4G 5G 6G 8G 9G10
  20319745.949   -17710547.92749 -13046023.90647  20319746.092    20319752.620
       242.000         204.000
  20081867.922     -131030.12749    -94082.63547  20081867.732    20081875.200
       243.000         210.000
  23097919.633     9482127.65749   7378719.16345  23097920.103    23097927.539
       216.000         155.000
  19389345.162    -8325488.15749  -6474493.02148  19389344.696    19389351.454
       247.000         219.000
  22243156.695   -15211231.85649 -11838767.68546  22243156.643    22243164.440
       224.000         172.000
  21757480.814     1104862.38449    867392.71046  21757480.330    21757488.604
       226.000         175.000
  23445986.537     8617393.05349   6710929.62845  23445986.311    23445996.059
       207.000         153.000
  20677350.783   -17305554.26949 -13464980.10347  20677349.569    20677357.584
       236.000         198.000
 98  3 18  0 17 29.9970000  0  8G30G24G 4G 5G 6G 8G 9G10
  20303472.656   -17796064.74849 -13112660.36447  20303472.938    20303479.371
       242.000         205.000
  20087860.237      -99540.25249    -69545.08047  20087859.954    20087867.349
       245.000         210.000
  23111598.253     9554008.97349   7434730.53745  23111598.883    23111606.271
       216.000         155.000
  19387180.370    -8336864.05449  -6483357.36348  19387179.925    19387186.684
       247.000         219.000
  22225709.008   -15302919.74649 -11910212.73246  22225708.362    22225716.598
       224.000         172.000
  21766367.134     1151560.22049    903780.57746  21766365.968    21766375.423
       225.000         174.000
  23458436.734     8682818.80049   6761910.64945  23458436.962    23458446.817
       212.000         152.000
  20662189.119   -17385229.09949 -13527064.35447  20662188.345    20662196.131
       236.000         198.000
 98  3 18  0 17 59.9970000  0  8G30G24G 4G 5G 6G 8G 9G10
  20287246.865   -17881331.67749 -13179102.10247  20287246.941    20287253.649
       242.000         205.000
  20093870.722      -67954.89249    -44933.12047  20093870.613    20093878.061
       244.000         210.000
  23125246.635     9625731.89149   7490618.48545  23125246.185    23125253.871
       216.000         154.000
  19385087.320    -8347863.25449  -6491928.17648  19385086.804    19385093.515
       247.000         219.000
  22208233.474   -15394754.29549 -11981772.05446  22208233.250    22208240.868
       223.000         172.000
  21775282.767     1198411.96149    940288.37846  21775282.636    21775291.118
       226.000         174.000
  23470842.203     8748009.65749   6812708.63745  23470841.235    23470852.341
       209.000         151.000
  20647082.171   -17464616.40949 -13588924.55847  20647081.083    20647089.258
       236.000         198.000
 98  3 18  0 18 29.9970000  0  8G30G24G 4G 5G 6G 8G 9G10
  20271049.887   -17966447.45049 -13245426.05147  20271049.964    20271056.633
       242.000         205.000
  20099879.608      -36378.14249    -20327.86847  20099879.533    20099886.827
       245.000         210.000
  23138845.479     9697194.16349   7546303.32245  23138845.850    23138853.405
       215.000         154.000
  19383048.135    -8358579.09349  -6500278.18548  19383047.585    19383054.327
       247.000         219.000
  22190707.637   -15486853.10049 -12053537.28746  22190707.713    22190715.638
       223.000         172.000
  21784207.470     1245311.36149    976833.30946  21784207.157    21784215.512
       225.000         174.000
  23483185.839     8812876.13049   6863253.85045  23483185.729    23483195.727
       209.000         150.000
  20632010.346   -17543819.10249 -13650640.90547  20632009.497    20632017.295
       236.000         199.000
 98  3 18  0 18 59.9970000  0  8G30G24G 4G 5G 6G 8G 9G10
  20254878.311   -18051429.40249 -13311645.72747  20254878.439    20254884.725
       242.000         205.000
  20105882.651       -4832.15449      4253.41447  20105882.517    20105889.889
       245.000         210.000
  23152390.719     9768374.92849   7601768.80645  23152390.444    23152398.969
       215.000         154.000
  19381060.175    -8369025.92249  -6508418.57448  19381059.782    19381066.364
       248.000         219.000
  22173128.991   -15579229.28249 -12125518.66746  22173128.752    22173136.426
       222.000         172.000
  21793136.908     1292235.70249   1013397.68446  21793136.416    21793144.908
       225.000         174.000
  23495468.241     8877420.28949   6913547.91145  23495467.986    23495478.208
       212.000         150.000
  20616971.367   -17622849.32549 -13712222.86047  20616970.498    20616978.473
       237.000         199.000
 98  3 18  0 19 29.9970000  0  8G30G24G 4G 5G 6G 8G 9G10
  20238740.096   -18136236.17549 -13377728.89847  20238740.312    20238746.517
       242.000         205.000
  20111888.561       26728.99449     28846.51347  20111888.349    20111895.586
       244.000         209.000
  23165888.150     9839304.30249   7657038.41245  23165888.239    23165895.710
       214.000         153.000
  19379129.617    -8379171.16049  -6516323.95848  19379128.938    19379135.634
       247.000         219.000
  22155505.400   -15671841.47649 -12197683.95046  22155505.543    22155513.237
       223.000         172.000
  21802078.326     1339223.12549   1050011.21346  21802077.696    21802086.665
       225.000         173.000
  23507698.947     8941692.96149   6963630.43145  23507698.469    23507708.627
       210.000         149.000
  20601973.012   -17701666.14149 -13773638.52547  20601972.181    20601979.829
       238.000         199.000
 98  3 18  0 19 59.9970000  0  8G30G24G 4G 5G 6G 8G 9G10
  20222626.100   -18220915.66549 -13443712.88647  20222626.137    20222632.860
       243.000         206.000
  20117888.680       58259.89249     53416.03547  20117888.665    20117895.767
       244.000         209.000
  23179327.177     9909926.59149   7712068.70845  23179327.096    23179336.192
       215.000         152.000
  19377244.201    -8389078.89449  -6524044.27448  19377243.633    19377250.468
       247.000         219.000
  22137828.435   -15764734.24649 -12270067.86546  22137827.921    22137836.143
       222.000         172.000
  21811019.793     1386210.60049   1086624.77546  21811019.246    21811027.843
       224.000         173.000
  23519867.665     9005639.39349   7013458.74245  23519868.604    23519878.565
       209.000         149.000
  20587010.639   -17780293.92049 -13834906.89047  20587009.720    20587017.576
       237.000         200.000
 98  3 18  0 20 29.9970000  0  8G30G24G 4G 5G 6G 8G 9G10
  20206559.995   -18305343.40249 -13509500.70047  20206560.140    20206566.268
       242.000         206.000
  20123903.359       89867.15249     78045.06547  20123902.952    20123910.262
       244.000         209.000
  23192730.461     9980361.06549   7766952.68445  23192729.977    23192738.195
       215.000         152.000
  19375424.121    -8398643.51449  -6531497.22848  19375423.593    19375430.238
       247.000         219.000
  22120123.902   -15857771.92749 -12342564.69346  22120124.307    22120131.670
       223.000         173.000
  21819981.170     1433302.96949   1123320.08046  21819981.571    21819989.358
       223.000         172.000
  23531994.957     9069368.05549   7063117.35345  23531995.209    23532005.243
       207.000         149.000
  20572110.702   -17858593.59349 -13895919.58247  20572109.915    20572117.412
       237.000         200.000
 98  3 18  0 20 59.9970000  0  8G30G24G 4G 5G 6G 8G 9G10
  20190561.142   -18389417.80449 -13575013.19347  20190561.445    20190567.647
       243.000         206.000
  20129951.795      121652.16249    102812.60147  20129951.535    20129958.889
       244.000         208.000
  23206115.501    10050700.14149   7821762.31245  23206115.351    23206123.681
       215.000         150.000
  19373682.895    -8407793.58149  -6538627.15448  19373682.489    19373689.039
       247.000         219.000
  22102412.501   -15950845.73249 -12415089.67446  22102411.909    22102419.491
       223.000         173.000
  21828979.649     1480590.19649   1160167.21346  21828978.852    21828987.997
       224.000         172.000
  23544099.728     9132978.46349   7112683.81845  23544099.269    23544109.978
       208.000         148.000
  20557293.725   -17936457.16249 -13956592.45547  20557292.882    20557300.608
       238.000         200.000
 98  3 18  0 21 29.9970000  0  8G30G24G 4G 5G 6G 8G 9G10
  20174630.112   -18473135.86049 -13640248.01547  20174630.174    20174636.557
       243.000         206.000
  20136031.748      153602.73549    127709.14347  20136031.595    20136038.974
       244.000         208.000
  23219483.374    10120948.86649   7876501.53945  23219483.576    23219492.176
       215.000         150.000
  19372015.682    -8416554.87749  -6545454.14148  19372015.163    19372021.906
       247.000         219.000
  22084690.773   -16043973.75749 -12487656.91346  22084690.637    22084697.856
       223.000         173.000
  21838014.906     1528070.89149   1197165.10546  21838014.267    21838022.858
       224.000         171.000
  23556176.390     9196441.57749   7162135.51645  23556176.888    23556185.723
       211.000         147.000
  20542558.921   -18013888.84149 -14016928.79247  20542558.173    20542565.933
       238.000         201.000
 98  3 18  0 21 59.9970000  0  8G30G24G 4G 5G 6G 8G 9G10
  20158761.382   -18556526.41749 -13705227.64047  20158761.410    20158767.984
       243.000         206.000
  20142136.150      185681.56049    152705.62747  20142135.969    20142143.365
       244.000         208.000
  23232828.467    10191077.84349   7931147.43945  23232828.508    23232836.931
       214.000         151.000
  19370415.687    -8424963.03449  -6552005.95848  19370415.231    19370421.732
       248.000         218.000
  22066953.308   -16137184.37249 -12560288.50946  22066952.637    22066960.729
       224.000         173.000
  21847080.562     1575711.23749   1234287.40046  21847080.081    21847088.736
       224.000         171.000
  23568214.885     9259704.38549   7211431.11245  23568213.885    23568225.098
       211.000         147.000
  20527902.119   -18090910.84649 -14076945.90247  20527901.260    20527909.185
       238.000         201.000
 98  3 18  0 22 29.9960000  0  8G30G24G 4G 5G 6G 8G 9G10
  20142965.736   -18639532.97249 -13769908.04447  20142966.065    20142972.112
       243.000         206.000
  20148273.786      217935.13449    177838.27747  20148273.710    20148280.880
       243.000         208.000
  23246158.504    10261127.50049   7985731.54745  23246158.539    23246167.946
       215.000         151.000
  19368893.964    -8432959.60449  -6558237.05148  19368893.364    19368899.993
       247.000         218.000
  22049207.158   -16230440.64749 -12632955.69046  22049206.872    22049214.421
       224.000         174.000
  21856186.229     1623561.52149   1271573.28246  21856185.198    21856194.988
       224.000         171.000
  23580225.997     9322822.85749   7260614.24945  23580227.078    23580237.116
       208.000         146.000
  20513331.147   -18167481.62349 -14136611.40247  20513330.117    20513337.922
       238.000         201.000
 98  3 18  0 22 59.9960000  0  8G30G24G 4G 5G 6G 8G 9G10
  20127234.609   -18722200.51449 -13834324.28347  20127234.695    20127241.138
       243.000         206.000
  20154439.880      250338.13249    203087.35747  20154439.692    20154447.030
       243.000         207.000
  23259466.599    10331061.83149   8040225.78245  23259466.476    23259475.282
       213.000         152.000
  19367448.545    -8440555.20049  -6564155.70148  19367448.215    19367454.670
       247.000         218.000
  22031442.150   -16323796.30549 -12705700.30146  22031442.340    22031449.825
       223.000         175.000
  21865330.355     1671613.92249   1309016.64846  21865330.457    21865338.301
       224.000         171.000
  23592202.937     9385761.94049   7309657.59245  23592203.278    23592213.343
       210.000         146.000
  20498837.004   -18243648.57549 -14195962.23847  20498835.991    20498843.961
       237.000         201.000
 98  3 18  0 23 29.9960000  0  8G30G24G 4G 5G 6G 8G 9G10
  20111567.580   -18804531.27649 -13898478.09347  20111567.721    20111573.960
       243.000         207.000
  20160630.946      282872.46049    228438.77247  20160630.736    20160638.193
       243.000         207.000
  23272750.761    10400870.52149   8094622.12445  23272750.520    23272759.029
       213.000         151.000
  19366085.126    -8447720.22549  -6569738.84148  19366084.579    19366091.303
       248.000         219.000
  22013657.608   -16417254.71049 -12778524.98846  22013657.452    22013665.352
       225.000         175.000
  21874512.425     1719865.57049   1346615.27646  21874511.990    21874520.722
       224.000         171.000
  23604141.215     9448497.76949   7358542.56045  23604141.583    23604151.985
       205.000         146.000
  20484417.492   -18319423.20649 -14255007.37047  20484416.603    20484424.416
       238.000         201.000
 98  3 18  0 23 59.9960000  0  8G30G24G 4G 5G 6G 8G 9G10
  20095959.867   -18886550.17349 -13962388.89647  20095959.956    20095966.207
       244.000         207.000
  20166844.161      315523.16849    253880.87547  20166844.084    20166851.459
       243.000         207.000
  23286003.647    10470514.97449   8148890.49045  23286004.914    23286012.707
       212.000         150.000
  19364802.618    -8454459.90849  -6574990.54748  19364802.276    19364808.835
       247.000         219.000
  21995853.147   -16510817.49749 -12851431.00746  21995852.838    21995859.749
       225.000         176.000
  21883726.623     1768286.19249   1384345.58346  21883725.842    21883734.788
       224.000         171.000
  23616039.273     9511022.29549   7407262.87545  23616038.637    23616049.207
       209.000         146.000
  20470068.003   -18394830.07349 -14313765.93447  20470067.277    20470074.968
       238.000         201.000
 98  3 18  0 24 29.9960000  0  8G30G24G 4G 5G 6G 8G 9G10
  20080416.086   -18968233.11749 -14026037.91747  20080416.317    20080422.421
       243.000         207.000
  20173082.953      348308.30549    279427.72347  20173082.586    20173089.933
       243.000         207.000
  23299231.367    10540026.94749   8203055.62045  23299231.698    23299240.083
       210.000         149.000
  19363606.433    -8460745.91149  -6579888.73948  19363606.014    19363612.596
       247.000         219.000
  21978032.023   -16604468.05449 -12924405.42046  21978031.945    21978039.153
       225.000         176.000
  21892977.028     1816897.24749   1422224.26146  21892976.418    21892985.535
       222.000         172.000
  23627902.334     9573362.67149   7455839.68945  23627901.724    23627912.998
       205.000         146.000
  20455789.508   -18469863.78349 -14372233.72547  20455788.582    20455796.453
       238.000         201.000
 98  3 18  0 24 59.9960000  0  8G30G24G 4G 5G 6G 8G 9G10
  20064936.394   -19049579.50249 -14089424.68547  20064936.803    20064942.953
       243.000         207.000
  20179344.375      381212.33549    305067.22147  20179344.321    20179351.756
       243.000         206.000
  23312436.987    10609422.85949   8257130.31345  23312436.806    23312446.327
       213.000         148.000
  19362496.281    -8466579.80849  -6584434.64048  19362495.823    19362502.417
       248.000         219.000
  21960196.173   -16698195.69449 -12997439.89946  21960196.572    21960203.897
       225.000         176.000
  21902261.348     1865686.73349   1460241.98946  21902260.151    21902269.611
       222.000         171.000
  23639727.816     9635505.54649   7504262.62845  23639727.457    23639738.454
       204.000         146.000
  20441580.817   -18544530.74949 -14430415.74347  20441579.949    20441587.700
       238.000         202.000
 98  3 18  0 25 29.9960000  0  8G30G24G 4G 5G 6G 8G 9G10
  20049531.010   -19130535.26649 -14152507.07647  20049531.248    20049537.253
       243.000         208.000
  20185636.526      414277.88749    330832.57847  20185636.365    20185643.657
       242.000         206.000
  23325631.698    10678761.56149   8311160.44245  23325632.081    23325641.049
       213.000         148.000
  19361479.683    -8471922.23049  -6588597.57348  19361479.227    19361485.895
       247.000         219.000
  21942356.428   -16791943.86649 -13070490.38646  21942356.882    21942364.036
       226.000         176.000
  21911582.541     1914669.99249   1498410.69846  21911582.107    21911591.259
       221.000         171.000
  23651525.435     9697502.20449   7552571.60145  23651525.370    23651536.118
       205.000         145.000
  20427452.926   -18618773.02149 -14488266.82947  20427452.139    20427459.716
       238.000         202.000
 98  3 18  0 25 59.9960000  0  8G30G24G 4G 5G 6G 8G 9G10
  20034192.951   -19211137.25649 -14215313.79947  20034193.147    20034199.207
       243.000         208.000
  20191954.384      447478.41249    356703.11347  20191954.341    20191961.524
       243.000         206.000
  23338807.860    10748002.58449   8365114.45345  23338808.259    23338816.629
       212.000         148.000
  19360546.188    -8476827.63549  -6592419.97448  19360545.763    19360552.312
       247.000         219.000
  21924505.364   -16885751.64049 -13143587.31446  21924505.291    21924512.639
       225.000         176.000
  21920931.235     1963797.50849   1536691.82946  21920930.865    21920939.849
       220.000         170.000
  23663289.791     9759324.17449   7600744.47045  23663290.065    23663300.678
       209.000         145.000
  20413402.128   -18692610.52149 -14545802.50747  20413401.346    20413409.366
       238.000         202.000
 98  3 18  0 26 29.9960000  0  8G30G24G 4G 5G 6G 8G 9G10
  20018915.789   -19291419.04049 -14277871.00547  20018915.993    20018922.298
       243.000         208.000
  20198289.349      480768.70649    382643.59647  20198289.255    20198296.539
       243.000         206.000
  23351959.276    10817113.37249   8418966.98845  23351960.964    23351967.738
       212.000         148.000
  19359689.432    -8481329.79949  -6595928.15548  19359688.806    19359695.659
       247.000         219.000
  21906632.756   -16979672.54249 -13216772.39646  21906632.414    21906640.074
       225.000         177.000
  21930299.606     2013028.71949   1575053.75546  21930299.380    21930308.021
       222.000         169.000
  23675012.605     9820927.78249   7648747.17745  23675011.650    23675022.707
       207.000         143.000
  20399421.098   -18766081.18749 -14603052.33947  20399420.135    20399428.086
       238.000         202.000
 98  3 18  0 26 59.9960000  0  8G30G24G 4G 5G 6G 8G 9G10
  20003711.022   -19371320.47349 -14340131.83847  20003711.089    20003717.263
       243.000         208.000
  20204651.186      514200.30849    408694.19047  20204651.001    20204658.357
       243.000         206.000
  23365094.171    10886137.50749   8472751.99345  23365094.422    23365102.952
       212.000         148.000
  19358920.977    -8485368.05049  -6599074.84948  19358920.558    19358927.106
       247.000         218.000
  21888752.007   -17073636.13649 -13289990.74346  21888752.102    21888759.523
       226.000         176.000
  21939699.573     2062425.51549   1613544.70546  21939699.402    21939708.488
       220.000         169.000
  23686704.621     9882369.52249   7696623.75645  23686703.346    23686715.109
       208.000         143.000
  20385524.568   -18839107.90549 -14659956.23947  20385523.915    20385531.445
       239.000         202.000
 98  3 18  0 27 29.9960000  0  8G30G24G 4G 5G 6G 8G 9G10
  19988575.569   -19450857.63949 -14402108.82847  19988575.767    19988581.632
       243.000         208.000
  20211039.539      547771.07249    434853.21747  20211039.399    20211046.945
       243.000         206.000
  23378206.464    10955043.29949   8526444.78545  23378206.175    23378215.122
       210.000         147.000
  19358237.540    -8488959.53349  -6601873.41348  19358236.971    19358243.735
       247.000         218.000
  21870858.755   -17167665.40249 -13363260.26746  21870858.480    21870866.769
       227.000         176.000
  21949129.701     2111981.04749   1652159.35346  21949128.804    21949138.132
       220.000         168.000
  23698364.661     9943643.30349   7744369.44845  23698364.314    23698374.711
       209.000         142.000
  20371713.405   -18911686.04049 -14716510.59647  20371712.777    20371720.217
       239.000         202.000
 98  3 18  0 27 59.9960000  0  8G30G24G 4G 5G 6G 8G 9G10
  19973515.247   -19530000.20549 -14463778.34247  19973515.423    19973521.619
       243.000         209.000
  20217459.489      581508.15949    461141.85047  20217459.364    20217466.836
       243.000         206.000
  23391299.947    11023850.01049   8580060.37545  23391300.719    23391308.624
       210.000         147.000
  19357643.429    -8492081.65749  -6604306.24248  19357642.963    19357649.753
       247.000         218.000
  21852958.202   -17261733.10649 -13436559.73946  21852957.482    21852965.814
       227.000         177.000
  21958599.089     2161743.05449   1690934.88946  21958598.229    21958607.579
       220.000         167.000
  23709999.168    10004782.78049   7792010.49445  23710000.098    23710010.578
       199.000         143.000
  20357993.203   -18983786.19249 -14772692.49647  20357992.265    20358000.075
       239.000         202.000
 98  3 18  0 28 29.9960000  0  8G30G24G 4G 5G 6G 8G 9G10
  19958527.872   -19608759.35949 -14525149.09047  19958527.989    19958534.109
       244.000         209.000
  20223902.310      615365.42049    487524.12447  20223902.174    20223909.558
       242.000         205.000
  23404371.016    11092538.62949   8633583.94445  23404371.281    23404380.342
       211.000         147.000
  19357132.092    -8494768.77349  -6606400.10248  19357131.637    19357138.324
       247.000         218.000
  21835046.826   -17355857.87649 -13509903.66946  21835046.862    21835054.802
       226.000         177.000
  21968104.107     2211692.03649   1729856.11646  21968103.568    21968113.072
       220.000         167.000
  23721602.023    10065755.83149   7839521.85245  23721601.587    23721612.102
       208.000         144.000
  20344357.891   -19055440.21449 -14828526.75847  20344356.985    20344364.690
       239.000         202.000
 98  3 18  0 28 59.9960000  0  8G30G24G 4G 5G 6G 8G 9G10
  19943614.068   -19687131.79549 -14586218.50447  19943614.123    19943620.408
       244.000         209.000
  20230369.342      649349.93149    514005.55647  20230369.057    20230376.760
       242.000         205.000
  23417419.475    11161108.56549   8687015.02745  23417420.497    23417429.003
       212.000         148.000
  19356702.283    -8497027.40349  -6608160.07948  19356701.644    19356708.325
       247.000         218.000
  21817128.643   -17450018.42349 -13583275.47946  21817128.206    21817136.350
       226.000         177.000
  21977644.547     2261827.14949   1768922.37846  21977644.433    21977652.736
       220.000         167.000
  23733174.310    10126568.01349   7886907.86945  23733174.775    23733185.759
       207.000         146.000
  20330811.298   -19126627.95449 -14883997.68647  20330810.413    20330818.295
       239.000         202.000
 98  3 18  0 29 29.9960000  0  8G30G24G 4G 5G 6G 8G 9G10
  19928782.798   -19765070.62649 -14646950.04147  19928782.881    19928789.410
       244.000         209.000
  20236868.812      683504.92349    540619.82847  20236868.707    20236876.235
       242.000         205.000
  23430453.488    11229602.35349   8740386.78345  23430454.484    23430462.305
       213.000         149.000
  19356358.012    -8498836.56749  -6609569.82548  19356357.572    19356364.243
       247.000         218.000
  21799210.501   -17544178.68949 -13656647.07246  21799210.421    21799217.591
       227.000         178.000
  21987224.461     2312169.42849   1808150.06646  21987224.032    21987232.886
       221.000         167.000
  23744722.114    10187251.12249   7934193.29945  23744722.481    23744732.991
       211.000         146.000
  20317358.202   -19197324.06949 -14939085.52847  20317357.106    20317365.292
       239.000         203.000
 98  3 18  0 29 59.9960000  0  8G30G24G 4G 5G 6G 8G 9G10
  19914040.209   -19842543.24349 -14707318.29247  19914040.347    19914046.497
       244.000         209.000
  20243402.277      717838.74149    567373.44847  20243402.054    20243409.532
       242.000         205.000
  23443475.530    11298033.17649   8793709.47845  23443475.819    23443483.969
       212.000         148.000
  19356102.033    -8500181.87149  -6610618.11948  19356101.490    19356108.184
       247.000         218.000
  21781297.771   -17638310.78149 -13729996.69746  21781297.432    21781305.318
       228.000         178.000
  21996844.792     2362724.15549   1847543.29846  21996844.941    21996852.588
       221.000         167.000
  23756244.869    10247802.60849   7981376.16545  23756245.274    23756255.408
       209.000         146.000
  20303997.893   -19267532.76049 -14993793.55647  20303997.005    20304004.596
       239.000         203.000
 98  3 18  0 30 29.9960000  0  8G30G24G 4G 5G 6G 8G 9G10
  19899387.176   -19919545.16849 -14767319.77647  19899387.211    19899393.613
       244.000         209.000
  20249970.971      752357.37649    594271.08147  20249970.987    20249978.296
       242.000         205.000
  23456486.558    11366406.69149   8846987.51545  23456486.302    23456494.820
       211.000         148.000
  19355936.291    -8501052.80749  -6611296.78148  19355935.675    19355942.559
       247.000         218.000
  21763390.677   -17732413.30249 -13803323.28746  21763390.678    21763398.241
       228.000         179.000
  22006503.734     2413481.87749   1887094.71746  22006503.984    22006512.390
       220.000         167.000
  23767740.266    10308210.83849   8028447.39945  23767740.516    23767751.065
       209.000         146.000
  20290730.127   -19337255.14249 -15048122.64647  20290729.240    20290736.852
       239.000         203.000
 98  3 18  0 30 59.9960000  0  8G30G24G 4G 5G 6G 8G 9G10
  19884814.979   -19996122.37449 -14826990.30847  19884815.199    19884821.417
       244.000         210.000
  20256569.171      787031.14149    621289.59447  20256568.909    20256576.574
       242.000         205.000
  23469478.557    11434679.85549   8900187.35045  23469479.517    23469486.434
       209.000         147.000
  19355856.285    -8501473.16049  -6611624.33348  19355855.660    19355862.524
       247.000         218.000
  21745480.747   -17826530.48949 -13876661.29846  21745480.387    21745487.362
       228.000         179.000
  22016192.902     2464398.54249   1926769.97146  22016191.987    22016201.355
       220.000         167.000
  23779200.091    10368432.56449   8075373.30145  23779200.532    23779210.787
       208.000         146.000
  20277549.313   -19406520.54149 -15102095.64147  20277548.116    20277556.257
       239.000         203.000
 98  3 18  0 31 29.9960000  0  8G30G24G 4G 5G 6G 8G 9G10
  19870336.100   -20072209.45249 -14886278.91747  19870336.272    19870342.537
       244.000         210.000
  20263204.502      821900.00049    648460.13147  20263204.306    20263211.875
       242.000         204.000
  23482460.881    11502902.58949   8953347.89345  23482461.310    23482468.808
       211.000         146.000
  19355871.740    -8501391.88349  -6611561.00448  19355871.099    19355878.017
       247.000         218.000
  21727571.876   -17920641.80049 -13949994.72246  21727571.715    21727579.497
       228.000         180.000
  22025921.601     2515523.14349   1966607.26546  22025921.182    22025930.747
       220.000         167.000
  23790630.324    10428498.64649   8122177.92945  23790629.850    23790641.101
       202.000         145.000
  20264463.187   -19475288.32649 -15155680.87547  20264462.325    20264470.069
       239.000         203.000
 98  3 18  0 31 59.9960000  0  8G30G24G 4G 5G 6G 8G 9G10
  19855935.925   -20147882.90649 -14945245.22847  19855936.161    19855942.504
       244.000         210.000
  20269862.585      856888.39349    675723.80847  20269862.276    20269869.788
       241.000         204.000
  23495420.081    11571003.65849   9006413.62745  23495420.499    23495429.060
       210.000         146.000
  19355973.443    -8500857.34849  -6611144.49448  19355972.939    19355979.777
       247.000         218.000
  21709647.930   -18014832.79849 -14023390.24746  21709647.604    21709655.369
       228.000         180.000
  22035677.476     2566790.39549   2006555.71046  22035677.988    22035685.620
       220.000         167.000
  23802017.519    10488338.82749   8168806.52245  23802017.826    23802028.485
       206.000         145.000
  20251461.923   -19543610.14549 -15208918.61347  20251461.165    20251468.811
       239.000         203.000
 98  3 18  0 32 29.9960000  0  8G30G24G 4G 5G 6G 8G 9G10
  19841618.017   -20223123.92049 -15003874.57047  19841618.254    19841624.466
       244.000         210.000
  20276549.041      892026.07249    703103.81547  20276549.057    20276556.273
       241.000         204.000
  23508364.326    11639025.82249   9059417.89145  23508364.908    23508373.453
       211.000         146.000
  19356169.720    -8499825.79549  -6610340.69648  19356169.273    19356176.076
       247.000         218.000
  21691713.589   -18109078.34349 -14096828.27646  21691713.329    21691721.180
       228.000         181.000
  22045467.617     2618237.76549   2046644.51546  22045466.991    22045476.246
       219.000         165.000
  23813370.269    10547996.89549   8215293.20745  23813370.427    23813381.464
       213.000         145.000
  20238555.151   -19611435.47649 -15261769.47647  20238554.021    20238562.033
       239.000         203.000
 98  3 18  0 32 59.9960000  0  8G30G24G 4G 5G 6G 8G 9G10
  19827386.235   -20297912.46149 -15062151.33447  19827386.506    19827392.774
       244.000         210.000
  20283264.128      927314.12349    730600.99547  20283263.989    20283271.478
       241.000         203.000
  23521295.271    11706978.34649   9112367.87345  23521295.556    23521304.400
       211.000         146.000
  19356462.596    -8498286.93149  -6609141.59148  19356462.170    19356468.779
       247.000         218.000
  21673771.231   -18203365.83649 -14170298.98546  21673770.511    21673778.586
       229.000         181.000
  22055293.106     2669870.99849   2086878.14446  22055292.898    22055301.199
       218.000         164.000
  23824691.735    10607491.53249   8261652.55845  23824692.569    23824702.473
       210.000         144.000
  20225746.320   -19678746.06949 -15314219.24247  20225745.388    20225753.106
       239.000         203.000
 98  3 18  0 33 29.9960000  0  9G30G24G 4G 5G 6G17G 8G 9G10
  19813235.442   -20372275.25349 -15120096.34747  19813235.552    19813241.832
       245.000         211.000
  20290004.073      962732.70449    758199.88747  20290004.072    20290011.242
       241.000         203.000
  23534207.644    11774833.14149   9165241.72645  23534208.307    23534216.459
       210.000         146.000
  19356846.580    -8496269.25049  -6607569.38148  19356846.204    19356852.804
       247.000         218.000
  21655815.426   -18297723.96949 -14243824.74646  21655815.341    21655822.795
       229.000         181.000
  23979668.190    -1292952.74059   -694114.98845  23979668.301    23979679.757
       203.000         134.000
  22065148.407     2721660.99149   2127233.91946  22065147.946    22065157.266
       217.000         163.000
  23835977.504    10666797.70249   8307865.03445  23835977.836    23835988.565
       211.000         144.000
  20213029.343   -19745573.91849 -15366292.85147  20213028.581    20213036.180
       240.000         203.000
 98  3 18  0 33 59.9960000  0  9G30G24G 4G 5G 6G17G 8G 9G10
  19799170.285   -20446188.06849 -15177690.72447  19799170.430    19799176.826
       244.000         211.000
  20296778.406      998331.95449    785939.56447  20296778.213    20296785.616
       241.000         203.000
  23547109.649    11842633.48549   9218073.12645  23547109.605    23547118.929
       211.000         146.000
  19357330.699    -8493725.10649  -6605586.93448  19357330.129    19357336.893
       247.000         218.000
  21637861.241   -18392073.45249 -14317343.75446  21637860.441    21637868.586
       230.000         181.000
  23956217.885    -1416184.18449   -790139.31745  23956217.456    23956229.950
       201.000         134.000
  22075042.241     2773653.57749   2167747.55846  22075042.056    22075050.808
       217.000         163.000
  23847238.360    10725973.47349   8353975.90845  23847238.910    23847248.989
       203.000         143.000
  20200413.880   -19811868.31149 -15417950.77547  20200413.075    20200420.697
       239.000         203.000
 98  3 18  0 34 29.9960000  0  9G30G24G 4G 5G 6G17G 8G 9G10
  19785183.500   -20519689.12549 -15234964.24747  19785183.792    19785190.011
       245.000         211.000
  20303579.436     1034071.73749    813788.74647  20303579.275    20303586.601
       241.000         203.000
  23559993.415    11910337.66049   9270829.58845  23559993.576    23560001.127
       212.000         146.000
  19357903.091    -8490717.12049  -6603243.05148  19357902.493    19357909.284
       247.000         217.000
  21619906.094   -18486428.13749 -14390866.82546  21619905.661    21619912.983
       229.000         181.000
  23932781.519    -1539343.89749   -886107.73745  23932780.911    23932792.298
       201.000         135.000
  22084966.270     2825804.80449   2208384.81146  22084965.846    22084975.377
       216.000         163.000
  23858468.120    10784985.93249   8399959.51545  23858467.936    23858478.585
       207.000         143.000
  20187890.759   -19877677.65749 -15469230.73847  20187889.905    20187897.686
       239.000         203.000
 98  3 18  0 34 59.9960000  0  8G30G24G 4G 5G 6G17G 8G10
  19771282.361   -20592740.02849 -15291887.00747  19771282.596    19771288.777
       245.000         211.000
  20310415.104     1069993.22149    841779.51447  20310414.962    20310422.538
       241.000         203.000
  23572864.443    11977975.41549   9323534.31145  23572864.236    23572874.013
       211.000         146.000
  19358566.164    -8487232.74849  -6600527.96548  19358565.694    19358572.454
       247.000         217.000
  21601958.430   -18580743.51749 -14464359.26746  21601958.255    21601965.265
       230.000         181.000
  23909363.131    -1662407.89849   -982001.58345  23909361.663    23909374.759
       195.000         136.000
  22094926.585     2878146.52849   2249170.51345  22094926.391    22094935.452
       217.000         162.000
  20175464.750   -19942976.74349 -15520113.10047  20175463.837    20175471.733
       240.000         204.000
 98  3 18  0 35 29.9960000  0  8G30G24G 4G 5G 6G17G 8G10
  19757463.980   -20665355.96049 -15348470.82547  19757464.172    19757470.360
       245.000         211.000
  20317285.709     1106098.75149    869913.69347  20317285.486    20317293.060
       241.000         203.000
  23585722.275    12045543.48949   9376184.72945  23585722.364    23585731.552
       208.000         145.000
  19359318.102    -8483281.18249  -6597448.82948  19359317.633    19359324.322
       247.000         217.000
  21584017.506   -18675023.45749 -14537824.09646  21584017.206    21584024.443
       229.000         182.000
  23885962.041    -1785381.11549  -1077824.67845  23885960.644    23885972.910
       205.000         137.000
  22104922.795     2930676.57749   2290102.95746  22104922.700    22104931.724
       217.000         163.000
  20163133.894   -20007775.80749 -15570605.83647  20163133.013    20163140.788
       241.000         204.000
 98  3 18  0 35 59.9960000  0  8G30G24G 4G 5G 6G17G 8G10
  19743727.012   -20737543.95549 -15404721.18847  19743727.022    19743733.353
       244.000         211.000
  20324186.774     1142364.10749    898172.40947  20324186.678    20324194.385
       241.000         202.000
  23598564.473    12113029.40149   9428771.13145  23598565.383    23598573.205
       210.000         144.000
  19360155.762    -8478879.06849  -6594018.61848  19360155.283    19360162.155
       246.000         217.000
  21566083.829   -18769265.44349 -14611259.35246  21566083.981    21566090.206
       227.000         182.000
  23862578.861    -1908260.47749  -1173574.64045  23862578.121    23862589.352
       202.000         137.000
  22114951.247     2983376.02649   2331167.41046  22114950.908    22114960.250
       217.000         163.000
  20150895.785   -20072087.36749 -15620718.70347  20150895.275    20150902.562
       240.000         205.000
 98  3 18  0 36 29.9960000  0  8G30G24G 4G 5G 6G17G 8G10
  19730076.691   -20809276.79149 -15460616.87747  19730076.782    19730083.154
       245.000         211.000
  20331117.929     1178787.56549    926554.32147  20331117.940    20331125.490
       241.000         202.000
  23611391.626    12180436.40549   9481296.02545  23611392.663    23611401.126
       209.000         143.000
  19361080.483    -8474019.62149  -6590232.04348  19361080.083    19361086.864
       247.000         217.000
  21548154.258   -18863485.60649 -14684677.61146  21548153.903    21548162.034
       228.000         182.000
  23839214.961    -2031038.22349  -1269245.43445  23839213.556    23839225.281
       200.000         138.000
  22125010.773     3036238.86149   2372359.15846  22125010.324    22125019.948
       218.000         163.000
  20138753.145   -20135897.44549 -15670440.80247  20138752.182    20138759.680
       241.000         205.000
 98  3 18  0 36 59.9960000  0  8G30G24G 4G 5G 6G17G 8G10
  19716517.443   -20880530.83849 -15516139.48247  19716517.469    19716523.759
       245.000         211.000
  20338079.243     1215369.46149    955059.69847  20338079.091    20338086.384
       241.000         202.000
  23624204.984    12247771.03149   9533764.55245  23624204.893    23624214.181
       206.000         142.000
  19362097.517    -8468675.02249  -6586067.42048  19362097.129    19362103.995
       246.000         217.000
  21530224.866   -18957705.09249 -14758095.33246  21530224.606    21530231.680
       229.000         182.000
  23815874.254    -2153693.70249  -1364820.92745  23815872.644    23815885.308
       209.000         140.000
  22135101.634     3089266.22949   2413679.12646  22135101.458    22135111.306
       218.000         164.000
  20126711.068   -20199178.91749 -15719750.99947  20126710.388    20126717.793
       240.000         205.000
 98  3 18  0 37 29.9960000  0  8G30G24G 4G 5G 6G17G 8G10
  19703046.615   -20951320.55549 -15571300.27547  19703046.864    19703052.970
       244.000         211.000
  20345062.293     1252065.60849    983654.09547  20345062.127    20345069.497
       241.000         202.000
  23636997.820    12314997.83349   9586149.03045  23636997.877    23637006.890
       210.000         142.000
  19363204.467    -8462857.90249  -6581534.60748  19363204.023    19363210.810
       247.000         217.000
  21512288.188   -19051962.75349 -14831542.80946  21512287.663    21512295.749
       229.000         182.000
  23792551.118    -2276257.12849  -1460324.72045  23792550.230    23792560.642
       211.000         140.000
  22145216.218     3142418.08149   2455096.09046  22145216.246    22145224.963
       217.000         164.000
  20114766.399   -20261948.56549 -15768662.38047  20114765.667    20114772.866
       241.000         205.000
 98  3 18  0 37 59.9960000  0  8G30G24G 4G 5G 6G17G 8G10
  19689672.292   -21021603.11349 -15626065.87747  19689672.254    19689678.411
       245.000         211.000
  20352071.340     1288898.21449   1012354.82547  20352071.214    20352078.905
       241.000         202.000
  23649774.209    12382138.00449   9638466.02945  23649774.612    23649783.833
       207.000         141.000
  19364406.990    -8456538.69949  -6576610.55748  19364406.520    19364413.234
       247.000         217.000
  21494349.205   -19146232.36149 -14904999.59646  21494349.222    21494356.590
       229.000         183.000
  23769248.090    -2398715.09649  -1555746.32845  23769247.243    23769259.678
       208.000         140.000
  22155357.423     3195710.07649   2496622.26446  22155357.055    22155366.077
       218.000         163.000
  20102926.543   -20324167.08249 -15817144.29747  20102925.724    20102933.409
       241.000         205.000
 98  3 18  0 38 29.9960000  0  8G30G24G 4G 5G 6G17G 8G10
  19676389.417   -21091404.91349 -15680456.86647  19676389.589    19676395.835
       244.000         211.000
  20359099.927     1325833.67349   1041135.69847  20359099.699    20359107.362
       241.000         201.000
  23662526.676    12449152.31449   9690684.94645  23662528.233    23662534.845
       211.000         140.000
  19365698.946    -8449749.52549  -6571320.30148  19365698.626    19365705.267
       247.000         217.000
  21476400.364   -19240553.72749 -14978496.72446  21476400.198    21476407.040
       229.000         183.000
  23745956.583    -2521112.14349  -1651120.49345  23745955.797    23745966.426
       204.000         141.000
  22165519.603     3249112.63049   2538234.59445  22165519.480    22165528.898
       218.000         162.000
  20091185.415   -20385866.92449 -15865222.06147  20091184.442    20091191.979
       240.000         205.000
 98  3 18  0 38 59.9960000  0  8G30G24G 4G 5G 6G17G 8G10
  19663203.025   -21160699.67949 -15734452.75947  19663203.158    19663209.294
       244.000         211.000
  20366156.598     1362916.61149   1070031.49647  20366156.603    20366164.054
       240.000         201.000
  23675263.351    12516084.07149   9742839.53345  23675262.847    23675271.705
       205.000         141.000
  19367086.545    -8442457.60749  -6565638.29148  19367086.065    19367092.880
       247.000         217.000
  21458452.844   -19334867.94449 -15051988.26746  21458452.882    21458460.037
       229.000         183.000
  23722683.226    -2643413.68349  -1746420.21345  23722682.009    23722694.522
       207.000         141.000
  22175710.897     3302667.82849   2579965.83245  22175710.505    22175719.464
       218.000         162.000
  20079548.406   -20447019.64149 -15912873.47947  20079547.548    20079554.831
       240.000         205.000
 98  3 18  0 39 29.9960000  0  8G30G24G 4G 5G 6G17G 8G10
  19650092.275   -21229596.98449 -15788138.93847  19650092.244    19650098.555
       244.000         211.000
  20373224.689     1400059.79349   1098974.23747  20373224.360    20373232.062
       240.000         201.000
  23687965.759    12582836.04749   9794854.04345  23687965.862    23687975.552
       206.000         141.000
  19368548.742    -8434773.78149  -6559650.89648  19368548.303    19368555.234
       246.000         217.000
  21440493.523   -19429244.64149 -15125528.49846  21440493.275    21440500.373
       229.000         183.000
  23699406.956    -2765730.58349  -1841731.91245  23699405.913    23699416.624
       202.000         142.000
  22185912.982     3356280.11149   2621741.58445  22185912.982    22185921.570
       217.000         162.000
  20067994.839   -20507733.74449 -15960183.12547  20067994.087    20068001.573
       240.000         205.000
 98  3 18  0 39 59.9960000  0  8G30G24G 4G 5G 6G17G 8G10
  19637077.935   -21297987.57749 -15841430.28947  19637078.014    19637084.406
       244.000         211.000
  20380327.769     1437386.72949   1128060.15247  20380327.703    20380334.849
       240.000         201.000
  23700657.379    12649531.00749   9846824.12245  23700658.476    23700665.927
       207.000         140.000
  19370106.965    -8426585.36449  -6553270.32148  19370106.564    19370113.291
       246.000         217.000
  21422546.584   -19523556.19349 -15199017.97646  21422546.500    21422553.988
       229.000         183.000
  23676153.500    -2887927.09649  -1936949.78945  23676152.691    23676164.049
       205.000         142.000
  22196150.564     3410078.48949   2663662.32645  22196149.545    22196159.277
       217.000         161.000
  20056546.218   -20567896.61549 -16007063.24647  20056545.193    20056552.922
       240.000         205.000
 98  3 18  0 40 29.9960000  0  8G30G24G 4G 5G 6G17G 8G10
  19624154.621   -21365899.94749 -15894348.99047  19624154.890    19624160.964
       244.000         211.000
  20387460.567     1474869.79649   1157267.73447  20387460.245    20387467.794
       239.000         200.000
  23713333.684    12716145.56749   9898731.54945  23713334.060    23713342.326
       207.000         139.000
  19371755.754    -8417921.05849  -6546518.92248  19371755.123    19371761.815
       247.000         216.000
  21404607.771   -19617825.24849 -15272474.33446  21404607.519    21404614.648
       229.000         184.000
  23652920.459    -3010016.72049  -2032084.36545  23652918.955    23652932.009
       208.000         142.000
  22206420.606     3464047.46749   2705716.01345  22206420.225    22206429.114
       217.000         161.000
  20045197.771   -20627532.66449 -16053532.84947  20045196.639    20045204.090
       240.000         205.000
 98  3 18  0 40 59.9960000  0  7G30G24G 5G 6G17G 8G10
  19611321.007   -21433340.89249 -15946900.35147  19611320.985    19611327.189
       245.000         212.000
  20394618.807     1512486.69849   1186579.60147  20394618.479    20394626.213
       238.000         200.000
  19373493.160    -8408790.87549  -6539404.50248  19373492.780    19373499.602
       246.000         216.000
  21386673.536   -19712070.10849 -15345911.84646  21386673.064    21386680.439
       229.000         184.000
  23629704.756    -3132015.52449  -2127148.18645  23629703.087    23629713.577
       210.000         142.000
  22216718.292     3518161.70249   2747882.87145  22216717.497    22216726.906
       217.000         161.000
  20033948.504   -20686647.81249 -16099596.55947  20033947.647    20033955.091
       240.000         205.000
 98  3 18  0 41 29.9960000  0  7G30G24G 5G 6G17G 8G10
  19598577.370   -21500309.13549 -15999083.37447  19598577.437    19598583.578
       245.000         212.000
  20401800.455     1550226.45849   1215987.20447  20401800.338    20401807.512
       238.000         200.000
  19375319.098    -8399195.62449  -6531927.69348  19375318.606    19375325.405
       246.000         216.000
  21368739.712   -19806312.79649 -15419347.65246  21368739.180    21368746.919
       230.000         184.000
  23606508.410    -3253912.21949  -2222132.43245  23606506.735    23606518.135
       205.000         142.000
  22227042.425     3572415.40749   2790158.41645  22227042.199    22227051.656
       217.000         160.000
  20022798.835   -20745239.76349 -16145252.57647  20022797.885    20022805.517
       240.000         206.000
 98  3 18  0 41 59.9960000  0  7G30G24G 5G 6G17G 8G10
  19585915.534   -21566847.28049 -16050931.25647  19585915.643    19585921.832
       245.000         212.000
  20408993.942     1588028.59849   1245443.41147  20408993.918    20409001.041
       238.000         199.000
  19377226.047    -8389174.61949  -6524119.12848  19377225.646    19377232.235
       246.000         216.000
  21350795.703   -19900609.12749 -15492825.26746  21350795.792    21350802.807
       230.000         184.000
  23583322.255    -3375755.11649  -2317074.75545  23583321.147    23583332.006
       206.000         141.000
  22237381.111     3626745.59949   2832493.55845  22237380.122    22237389.891
       215.000         160.000
  20011737.970   -20803364.88749 -16190544.83247  20011737.043    20011744.869
       240.000         206.000
 98  3 18  0 42 29.9960000  0  7G30G24G 5G 6G17G 8G10
  19573353.220   -21632862.63449 -16102371.77147  19573353.439    19573359.613
       245.000         212.000
  20416216.299     1625982.20849   1275017.65347  20416216.098    20416223.827
       238.000         199.000
  19379230.376    -8378641.72249  -6515911.68448  19379229.938    19379236.644
       247.000         216.000
  21332857.568   -19994874.50549 -15566278.75746  21332857.410    21332864.865
       229.000         184.000
  23560159.596    -3497474.61249  -2411920.91045  23560158.791    23560168.355
       211.000         142.000
  22247747.660     3681221.97549   2874942.60745  22247747.725    22247757.149
       216.000         160.000
  20000785.047   -20860922.77449 -16235395.09247  20000784.125    20000791.727
       241.000         206.000
 98  3 18  0 42 59.9960000  0  7G30G24G 5G 6G17G 8G10
  19560854.112   -21698545.87549 -16153553.49747  19560854.342    19560860.407
       244.000         212.000
  20423434.419     1663913.69149   1304574.64147  20423434.231    20423441.598
       238.000         199.000
  19381297.466    -8367779.24349  -6507447.42248  19381297.007    19381303.744
       247.000         216.000
  21314891.054   -20089288.82849 -15639848.31146  21314890.548    21314898.639
       229.000         185.000
  23536987.868    -3619242.34149  -2506804.66245  23536986.843    23536998.650
       209.000         142.000
  22258105.926     3735654.79649   2917357.71245  22258105.464    22258115.619
       216.000         160.000
  19989905.726   -20918093.54649 -16279943.69847  19989904.927    19989912.214
       240.000         206.000
 98  3 18  0 43 29.9960000  0  7G30G24G 5G 6G17G 8G10
  19548436.347   -21763801.47849 -16204402.00147  19548436.519    19548442.894
       244.000         212.000
  20430670.861     1701941.62149   1334206.79347  20430670.771    20430678.170
       238.000         199.000
  19383446.376    -8356486.62249  -6498647.98748  19383445.950    19383452.623
       246.000         216.000
  21296917.857   -20183738.69049 -15713445.55846  21296917.841    21296924.924
       230.000         185.000
  23513829.142    -3740941.85349  -2601635.24245  23513828.086    23513839.459
       207.000         142.000
  22268476.728     3790153.32649   2959824.02245  22268476.275    22268486.904
       216.000         161.000
  19979120.727   -20974769.03849 -16324106.37747  19979119.713    19979127.385
       240.000         206.000
 98  3 18  0 43 59.9960000  0  7G30G24G 5G 6G17G 8G10
  19536105.165   -21828602.13249 -16254895.99847  19536105.186    19536111.430
       245.000         212.000
  20437925.693     1740066.03349   1363914.11947  20437925.658    20437933.226
       237.000         199.000
  19385679.681    -8344750.54749  -6489503.00248  19385679.224    19385685.937
       246.000         216.000
  21278941.221   -20278206.60949 -15787056.87346  21278941.086    21278948.032
       230.000         185.000
  23490682.696    -3862576.96949  -2696415.64845  23490680.810    23490692.764
       205.000         142.000
  22278860.834     3844721.90949   3002344.91045  22278860.606    22278869.990
       216.000         161.000
  19968431.169   -21030942.65149 -16367877.98047  19968430.343    19968437.630
       240.000         206.000
 98  3 18  0 44 29.9960000  0  7G30G24G 5G 6G17G 8G10
  19523864.114   -21892929.04349 -16305020.85047  19523864.270    19523870.606
       245.000         212.000
  20445201.306     1778299.75349   1393706.61847  20445201.232    20445208.642
       238.000         198.000
  19387998.938    -8332562.84649  -6480006.10248  19387998.538    19388005.332
       246.000         216.000
  21260962.374   -20372685.81449 -15860676.99046  21260961.872    21260969.163
       231.000         186.000
  23467555.219    -3984112.30049  -2791118.31145  23467554.760    23467564.575
       208.000         142.000
  22289262.163     3899381.10849   3044936.41345  22289261.276    22289271.148
       215.000         160.000
  19957842.701   -21086585.08149 -16411235.68147  19957841.524    19957849.271
       240.000         206.000
 98  3 18  0 44 59.9960000  0  7G30G24G 5G 6G17G 8G10
  19511707.302   -21956813.43849 -16354800.88247  19511707.656    19511713.772
       244.000         212.000
  20452485.823     1816580.06849   1423535.43347  20452485.799    20452492.976
       237.000         198.000
  19390396.789    -8319962.03149  -6470187.29348  19390396.428    19390403.024
       246.000         216.000
  21242971.259   -20467229.40549 -15934347.27346  21242971.327    21242978.239
       230.000         186.000
  23444440.393    -4105580.99549  -2885769.05745  23444439.352    23444449.872
       205.000         142.000
  22299671.926     3954084.75349   3087562.54245  22299671.269    22299681.784
       214.000         160.000
  19947344.999   -21141750.62049 -16454221.77447  19947343.961    19947351.495
       240.000         206.000
 98  3 18  0 45 29.9960000  0  7G30G24G 5G 6G17G 8G10
  19499666.734   -22020087.20349 -16404105.09648  19499666.882    19499672.927
       245.000         213.000
  20459801.948     1855026.54249   1453493.72047  20459801.604    20459809.073
       238.000         197.000
  19392900.064    -8306807.21449  -6459936.79448  19392899.515    19392906.234
       246.000         216.000
  21224994.063   -20561699.82849 -16007960.53746  21224993.703    21225001.426
       230.000         186.000
  23421363.593    -4226849.69149  -2980263.96545  23421362.588    23421372.622
       208.000         141.000
  22310115.438     4008965.77249   3130326.89045  22310114.959    22310125.253
       215.000         160.000
  19936963.570   -21196305.16349 -16496731.77047  19936962.538    19936969.929
       240.000         206.000
 98  3 18  0 45 59.9960000  0  7G30G24G 5G 6G17G 8G10
  19487732.997   -22082799.39749 -16452971.72548  19487733.133    19487739.284
       245.000         213.000
  20467137.222     1893573.69049   1483530.45447  20467137.196    20467144.786
       237.000         197.000
  19395497.543    -8293157.52049  -6449300.67648  19395496.917    19395503.716
       246.000         215.000
  21207019.765   -20656155.43149 -16081562.25746  21207019.706    21207026.531
       231.000         186.000
  23398315.223    -4347968.72649  -3074642.24845  23398314.064    23398324.664
       205.000         143.000
  22320580.332     4063958.88449   3173178.58045  22320580.773    22320590.355
       215.000         160.000
  19926687.493   -21250306.26049 -16538810.51247  19926686.582    19926694.290
       241.000         206.000
 98  3 18  0 46 29.9960000  0  7G30G24G 5G 6G17G 8G10
  19475883.360   -22145069.70349 -16501494.02648  19475883.506    19475889.698
       245.000         213.000
  20474475.642     1932137.36749   1513580.06747  20474475.546    20474482.935
       237.000         197.000
  19398166.930    -8279129.72749  -6438369.93848  19398166.179    19398173.105
       246.000         215.000
  21189028.196   -20750701.53849 -16155234.49446  21189028.171    21189035.391
       231.000         187.000
  23375275.616    -4469041.55849  -3168984.54945  23375274.684    23375285.270
       209.000         143.000
  22331045.873     4118955.14749   3216032.72545  22331045.209    22331055.580
       217.000         160.000
  19916498.305   -21303850.57649 -16580533.32347  19916497.266    19916504.710
       240.000         206.000
 98  3 18  0 46 59.9960000  0  7G30G24G 5G 6G17G 8G10
  19464126.651   -22206851.54049 -16549635.70148  19464126.725    19464133.025
       245.000         213.000
  20481828.371     1970776.27349   1543688.30147  20481828.465    20481835.841
       237.000         197.000
  19400917.586    -8264675.01349  -6427106.53548  19400917.105    19400923.880
       246.000         215.000
  21171031.191   -20845276.48849 -16228929.20646  21171031.030    21171037.935
       231.000         187.000
  23352252.131    -4590030.22049  -3263261.26945  23352251.613    23352261.730
       212.000         144.000
  22341521.314     4174003.14149   3258927.17645  22341521.307    22341530.566
       215.000         160.000
  19906404.341   -21356894.58449 -16621866.28447  19906403.404    19906411.007
       240.000         206.000
 98  3 18  0 47 29.9960000  0  7G30G24G 5G 6G17G 8G10
  19452458.063   -22268170.18649 -16597416.44748  19452458.054    19452464.570
       245.000         213.000
  20489198.536     2009506.51949   1573867.71147  20489198.233    20489205.903
       237.000         197.000
  19403747.269    -8249804.92849  -6415519.46548  19403746.816    19403753.720
       246.000         215.000
  21153031.532   -20939865.06649 -16302634.53847  21153031.101    21153038.592
       232.000         188.000
  23329243.917    -4710938.35449  -3357475.24245  23329242.661    23329253.347
       210.000         145.000
  22352006.423     4229102.17849   3301861.41645  22352006.158    22352015.838
       218.000         160.000
  19896405.821   -21409437.06049 -16662808.43947  19896405.145    19896412.497
       241.000         207.000
 98  3 18  0 47 59.9960000  0  7G30G24G 5G 6G17G 8G10
  19440882.912   -22328997.80049 -16644814.57148  19440882.917    19440889.225
       244.000         213.000
  20496599.077     2048396.53749   1604171.61847  20496598.940    20496606.447
       237.000         197.000
  19406666.214    -8234466.00149  -6403567.06448  19406665.805    19406672.499
       246.000         215.000
  21135041.766   -21034401.49949 -16376299.23447  21135041.545    21135048.503
       231.000         188.000
  23306260.437    -4831716.72749  -3451588.10745  23306258.953    23306269.410
       207.000         146.000
  22362511.358     4284305.48849   3344876.89945  22362511.066    22362519.825
       217.000         159.000
  19886514.918   -21461414.08749 -16703309.98947  19886514.063    19886521.582
       241.000         207.000
 98  3 18  0 48 29.9960000  0  7G30G24G 5G 6G17G 8G10
  19429396.009   -22389361.84149 -16691851.46748  19429396.159    19429402.488
       245.000         213.000
  20504024.705     2087418.49649   1634578.33747  20504024.769    20504032.039
       237.000         196.000
  19409670.553    -8218678.10849  -6391264.81748  19409670.145    19409676.951
       246.000         215.000
  21117057.429   -21128909.53349 -16449941.80747  21117056.936    21117064.009
       231.000         188.000
  23283295.842    -4952395.52249  -3545623.36845  23283294.700    23283305.472
       213.000         147.000
  22373032.141     4339591.77349   3387957.03045  22373031.802    22373040.828
       216.000         159.000
  19876726.780   -21512851.17849 -16743390.80947  19876725.899    19876733.212
       241.000         207.000
 98  3 18  0 48 59.9960000  0  7G30G24G 5G 6G17G 8G10
  19418006.428   -22449214.40649 -16738489.81048  19418006.684    19418012.669
       246.000         213.000
  20511480.107     2126597.01049   1665107.04747  20511479.828    20511487.380
       237.000         195.000
  19412770.975    -8202385.07049  -6378568.95648  19412770.449    19412777.424
       246.000         215.000
  21099087.152   -21223343.54149 -16523526.70047  21099086.776    21099094.572
       231.000         188.000
  23260360.982    -5072918.19049  -3639536.98845  23260359.618    23260369.772
       210.000         147.000
  22383578.062     4395010.38249   3431140.28345  22383577.452    22383586.482
       214.000         158.000
  19867049.500   -21563705.48849 -16783017.51447  19867048.808    19867056.038
       242.000         207.000
 98  3 18  0 49 29.9950000  0  7G30G24G 5G 6G17G 8G10
  19406701.427   -22508622.78849 -16784782.03948  19406701.540    19406707.670
       245.000         213.000
  20518947.870     2165840.56449   1695686.43447  20518947.448    20518955.115
       236.000         195.000
  19415954.299    -8185656.46149  -6365533.68748  19415953.825    19415960.745
       245.000         215.000
  21081117.150   -21317776.20349 -16597110.54547  21081117.096    21081124.119
       232.000         189.000
  23237442.736    -5193353.65749  -3733382.65545  23237441.774    23237452.381
       211.000         148.000
  22394134.792     4450486.09049   3474368.01645  22394134.134    22394143.218
       215.000         157.000
  19857471.491   -21614038.28349 -16822237.84347  19857470.679    19857477.805
       241.000         207.000
 98  3 18  0 49 59.9950000  0  7G30G24G 5G 6G17G 8G10
  19395497.576   -22567499.37349 -16830659.87848  19395497.636    19395503.763
       246.000         213.000
  20526441.025     2205217.33249   1726369.63547  20526440.971    20526448.571
       237.000         195.000
  19419236.997    -8168405.84949  -6352091.66448  19419236.462    19419243.420
       246.000         214.000
  21063158.335   -21412150.31849 -16670648.75447  21063158.689    21063165.669
       233.000         189.000
  23214552.406    -5313642.50149  -3827114.08545  23214551.181    23214561.862
       212.000         149.000
  22404716.284     4506092.14249   3517697.32445  22404715.668    22404725.520
       214.000         156.000
  19848005.304   -21663783.47849 -16861000.30247  19848004.612    19848011.796
       242.000         207.000
 98  3 18  0 50 29.9950000  0  7G30G24G 5G 6G17G 8G10
  19384383.182   -22625905.93349 -16876171.46648  19384383.341    19384389.348
       246.000         213.000
  20533940.581     2244627.57049   1757078.90747  20533940.699    20533947.789
       236.000         195.000
  19422602.083    -8150722.12749  -6338312.15648  19422601.573    19422608.619
       245.000         214.000
  21045192.028   -21506563.98349 -16744217.80047  21045191.677    21045198.776
       232.000         190.000
  23191674.850    -5433864.13249  -3920793.14845  23191674.198    23191684.430
       209.000         149.000
  22415305.437     4561738.37249   3561057.93345  22415304.907    22415314.867
       215.000         155.000
  19838634.768   -21713025.88949 -16899370.98547  19838633.790    19838641.358
       241.000         207.000
 98  3 18  0 50 59.9950000  0  7G30G24G 5G 6G17G 8G10
  19373340.442   -22683935.86449 -16921389.56848  19373340.575    19373346.459
       246.000         213.000
  20541427.234     2283970.08049   1787735.41147  20541427.356    20541434.709
       236.000         195.000
  19426029.081    -8132713.14249  -6324279.18848  19426028.530    19426035.402
       245.000         214.000
  21027199.058   -21601117.61349 -16817895.89847  21027198.673    21027205.953
       233.000         190.000
  23168789.034    -5554129.16749  -4014506.03545  23168788.701    23168798.739
       210.000         149.000
  22425882.137     4617318.92849   3604367.36645  22425882.155    22425891.501
       214.000         155.000
  19829340.568   -21761867.06449 -16937429.00847  19829339.774    19829346.881
       241.000         207.000
 98  3 18  0 51 29.9950000  0  7G30G24G 5G 6G17G 8G10
  19362376.352   -22741552.52849 -16966285.65748  19362376.536    19362382.505
       246.000         214.000
  20548905.465     2323268.35049   1818357.43547  20548905.019    20548912.953
       236.000         195.000
  19429520.814    -8114363.97649  -6309981.15048  19429520.423    19429527.346
       246.000         214.000
  21009184.744   -21695783.16149 -16891661.21247  21009184.624    21009191.876
       233.000         190.000
  23145897.850    -5674422.53249  -4108240.99145  23145897.089    23145907.508
       212.000         149.000
  22436447.055     4672837.81049   3647628.74645  22436446.331    22436456.002
       213.000         155.000
  19820127.829   -21810280.10749 -16975153.43047  19820126.882    19820133.974
       242.000         207.000
 98  3 18  0 51 59.9950000  0  7G30G24G 5G 6G17G 8G10
  19351508.033   -22798666.10849 -17010789.72148  19351508.190    19351513.998
       246.000         214.000
  20556393.169     2362616.73149   1849018.51347  20556392.965    20556400.612
       236.000         195.000
  19433091.479    -8095600.18449  -6295360.02048  19433091.071    19433097.880
       245.000         214.000
  20991165.565   -21790474.38149 -16965446.53147  20991164.879    20991172.337
       233.000         190.000
  23123019.300    -5794649.76049  -4201924.42445  23123017.648    23123029.477
       209.000         149.000
  22447014.993     4728372.72649   3690902.60345  22447014.465    22447023.771
       212.000         154.000
  19811013.167   -21858177.65749 -17012476.16147  19811012.172    19811019.467
       241.000         207.000
 98  3 18  0 52 29.9950000  0  7G30G24G 5G 6G17G 8G10
  19340752.959   -22855184.32749 -17054829.87148  19340753.135    19340759.112
       246.000         214.000
  20563906.695     2402100.70049   1879785.24147  20563906.364    20563914.254
       235.000         194.000
  19436754.804    -8076349.29649  -6280359.33848  19436754.265    19436761.286
       245.000         214.000
  20973159.955   -21885094.33349 -17039176.31447  20973160.123    20973166.904
       233.000         191.000
  23100172.376    -5914710.66649  -4295478.26045  23100171.064    23100182.337
       210.000         149.000
  22457603.443     4784015.13949   3734260.23945  22457603.195    22457613.253
       213.000         155.000
  19802014.681   -21905464.94049 -17049323.35847  19802013.691    19802021.176
       241.000         207.000
 98  3 18  0 52 59.9950000  0  7G30G24G 5G 6G17G 8G10
  19330122.115   -22911049.68049 -17098361.29748  19330122.165    19330128.295
       246.000         214.000
  20571461.155     2441799.69549   1910719.51547  20571460.894    20571468.497
       235.000         194.000
  19440524.712    -8056538.43849  -6264922.32048  19440524.335    19440531.022
       245.000         213.000
  20955183.650   -21979560.51749 -17112786.28047  20955183.578    20955190.490
       233.000         191.000
  23077371.450    -6034530.07949  -4388843.91545  23077370.799    23077380.999
       209.000         149.000
  22468224.169     4839826.87549   3777749.81645  22468224.182    22468233.539
       211.000         155.000
  19793145.643   -21952071.84149 -17085640.39147  19793144.811    19793152.005
       241.000         207.000
 98  3 18  0 53 29.9950000  0  7G30G24G 5G 6G17G 8G10
  19319585.031   -22966422.24549 -17141508.73148  19319585.179    19319591.023
       246.000         214.000
  20579027.544     2481561.17649   1941702.49147  20579027.446    20579034.885
       235.000         194.000
  19444372.079    -8036320.32349  -6249167.95648  19444371.572    19444378.510
       245.000         213.000
  20937208.724   -22074019.24249 -17186390.43147  20937208.232    20937215.210
       233.000         191.000
  23054589.534    -6154249.55849  -4482131.71545  23054588.730    23054599.072
       212.000         149.000
  22478846.262     4895645.66249   3821244.88745  22478846.279    22478856.337
       213.000         155.000
  19784378.611   -21998142.71049 -17121539.74047  19784377.860    19784385.045
       241.000         208.000
 98  3 18  0 53 59.9950000  0  7G30G24G 5G 6G17G 8G10
  19309127.578   -23021376.51649 -17184330.22148  19309127.819    19309133.649
       246.000         214.000
  20586593.765     2521321.84849   1972684.83347  20586594.028    20586601.389
       236.000         194.000
  19448284.409    -8015760.96349  -6233147.68548  19448283.833    19448290.711
       245.000         213.000
  20919221.933   -22168540.30649 -17260043.15247  20919221.314    20919228.649
       233.000         191.000
  23031813.260    -6273939.41349  -4575396.43845  23031812.508    23031822.970
       210.000         150.000
  22489457.519     4951407.47749   3864695.55345  22489457.672    22489466.995
       214.000         155.000
  19775699.022   -22043754.12049 -17157081.06347  19775698.119    19775705.699
       242.000         208.000
 98  3 18  0 54 29.9950000  0  7G30G24G 5G 6G17G 8G10
  19298785.268   -23075725.61949 -17226680.15448  19298785.309    19298791.180
       246.000         214.000
  20594196.073     2561271.95849   2003814.78947  20594195.805    20594203.319
       235.000         193.000
  19452301.392    -7994651.65049  -6216698.88448  19452300.872    19452307.669
       245.000         213.000
  20901259.704   -22262931.96349 -17333595.03947  20901259.579    20901266.508
       233.000         192.000
  23009078.480    -6393411.02849  -4668491.09045  23009078.077    23009087.887
       210.000         150.000
  22500092.822     5007296.32349   3908245.21445  22500092.270    22500101.786
       213.000         154.000
  19767142.215   -22088720.37049 -17192119.66747  19767141.323    19767148.676
       242.000         208.000
 98  3 18  0 54 59.9950000  0  7G30G24G 5G 6G17G 8G10
  19288521.095   -23129664.17149 -17268710.17948  19288521.255    19288527.139
       246.000         214.000
  20601798.972     2601225.70649   2034947.57247  20601798.602    20601806.397
       234.000         193.000
  19456390.169    -7973165.03649  -6199956.08548  19456389.772    19456396.543
       245.000         213.000
  20883286.734   -22357380.47549 -17407191.23847  20883286.632    20883293.648
       234.000         192.000
  22986350.872    -6512844.51449  -4761556.03845  22986349.821    22986360.443
       211.000         150.000
  22510714.950     5063115.82249   3951740.84745  22510714.667    22510723.961
       213.000         154.000
  19758673.090   -22133225.91449 -17226799.28347  19758672.396    19758679.512
       242.000         208.000
 98  3 18  0 55 29.9950000  0  7G30G24G 5G 6G17G 8G10
  19278333.752   -23183198.78349 -17310425.44648  19278333.887    19278339.857
       246.000         214.000
  20609396.985     2641153.65249   2066060.25047  20609396.752    20609404.232
       234.000         193.000
  19460547.157    -7951320.05749  -6182934.04048  19460546.724    19460553.703
       245.000         213.000
  20865299.879   -22451901.91449 -17480844.26147  20865299.983    20865306.646
       234.000         192.000
  22963628.567    -6632250.73849  -4854599.75845  22963627.501    22963636.967
       211.000         150.000
  22521321.231     5118852.03549   3995171.56545  22521320.934    22521330.721
       213.000         153.000
  19750289.088   -22177284.06749 -17261130.28047  19750288.160    19750295.487
       242.000         208.000
 98  3 18  0 55 59.9950000  0  7G30G24G 5G 6G17G 8G10
  19268265.577   -23236107.25949 -17351652.81048  19268265.687    19268271.557
       245.000         214.000
  20617031.548     2681273.41349   2097322.39847  20617031.536    20617039.184
       234.000         192.000
  19464813.090    -7928902.30749  -6165465.67348  19464812.471    19464819.412
       244.000         213.000
  20847339.323   -22546285.21049 -17554389.63247  20847339.177    20847346.123
       234.000         192.000
  22940954.724    -6751401.83849  -4947444.67245  22940953.988    22940963.570
       211.000         151.000
  22531954.270     5174728.47449   4038711.56145  22531954.722    22531963.823
       214.000         153.000
  19742030.705   -22220682.01049 -17294946.82547  19742029.627    19742036.967
       242.000         209.000
 98  3 18  0 56 29.9950000  0  7G30G24G 5G 6G17G 8G10
  19258265.806   -23288656.41149 -17392600.18848  19258265.810    19258271.895
       246.000         214.000
  20624651.514     2721316.56349   2128524.85047  20624651.001    20624658.843
       234.000         192.000
  19469134.548    -7906192.92949  -6147770.07048  19469134.069    19469141.208
       244.000         213.000
  20829355.272   -22640791.86849 -17628031.13947  20829355.048    20829361.833
       234.000         192.000
  22918282.347    -6870545.42749  -5040283.72845  22918281.374    22918292.040
       212.000         151.000
  22542565.851     5230492.19649   4082163.71745  22542566.296    22542575.141
       212.000         153.000
  19733850.420   -22263669.64849 -17328443.65247  19733849.520    19733856.626
       242.000         209.000
 98  3 18  0 56 59.9950000  0  7G30G24G 5G 6G17G 8G10
  19248358.371   -23340720.10549 -17433169.28448  19248358.629    19248364.589
       245.000         214.000
  20632279.028     2761399.45049   2159758.27447  20632278.891    20632286.509
       234.000         191.000
  19473528.349    -7883103.34849  -6129778.20148  19473528.007    19473534.974
       245.000         213.000
  20811369.707   -22735306.54849 -17701678.89847  20811369.329    20811376.038
       234.000         192.000
  22895633.660    -6989564.47749  -5133025.73645  22895633.133    22895643.071
       213.000         152.000
  22553178.949     5286264.28049   4125622.39545  22553178.439    22553188.079
       212.000         153.000
  19725770.342   -22306130.66649 -17361530.12147  19725769.304    19725776.605
       242.000         209.000
 98  3 18  0 57 29.9950000  0  7G30G24G 5G 6G17G 8G10
  19238554.951   -23392237.26349 -17473312.51448  19238555.055    19238560.963
       246.000         214.000
  20639922.878     2801568.39649   2191058.74447  20639922.399    20639929.817
       233.000         191.000
  19478000.328    -7859603.22849  -6111466.43548  19477999.951    19478006.923
       245.000         213.000
  20793389.987   -22829790.41349 -17775302.64347  20793389.396    20793396.738
       234.000         192.000
  22873016.178    -7108419.51149  -5225639.94945  22873015.651    22873026.069
       213.000         152.000
  22563803.545     5342096.80149   4169128.17045  22563803.444    22563813.203
       213.000         153.000
  19717799.173   -22348019.24949 -17394170.54247  19717798.182    19717805.825
       242.000         208.000
 98  3 18  0 57 59.9950000  0  7G30G24G 5G 6G17G 8G10
  19228861.082   -23443178.71749 -17513007.13948  19228861.206    19228866.993
       246.000         214.000
  20647589.893     2841858.99049   2222454.01247  20647589.771    20647597.319
       233.000         190.000
  19482555.896    -7835663.70949  -6092812.28048  19482555.388    19482562.372
       245.000         213.000
  20775420.996   -22924217.64549 -17848882.25747  20775420.765    20775427.264
       234.000         192.000
  22850435.072    -7227083.94149  -5318105.60945  22850434.234    22850444.472
       212.000         153.000
  22574444.910     5398017.12249   4212702.35745  22574444.607    22574454.635
       212.000         153.000
  19709941.944   -22389309.01149 -17426344.35047  19709941.102    19709948.269
       242.000         208.000
 98  3 18  0 58 29.9950000  0  7G30G24G 5G 6G17G 8G10
  19219245.399   -23493709.46549 -17552381.72948  19219245.513    19219251.506
       246.000         214.000
  20655246.593     2882095.44849   2253807.10047  20655246.201    20655254.239
       234.000         190.000
  19487164.276    -7811446.69649  -6073941.89447  19487163.737    19487170.864
       245.000         212.000
  20757430.845   -23018756.38749 -17922548.76147  20757430.430    20757437.520
       236.000         193.000
  22827854.697    -7345744.08749  -5410567.95645  22827853.806    22827864.447
       212.000         153.000
  22585069.266     5453848.14649   4256206.95345  22585069.132    22585079.124
       211.000         153.000
  19702164.524   -22430179.50749 -17458191.45347  19702163.736    19702170.852
       242.000         208.000
 98  3 18  0 58 59.9950000  0  7G30G24G 5G 6G17G 8G10
  19209717.975   -23543776.45649 -17591394.95548  19209718.139    19209723.904
       245.000         214.000
  20662900.492     2922316.92349   2285148.51147  20662900.592    20662908.047
       233.000         190.000
  19491838.771    -7786882.02149  -6054800.60847  19491838.311    19491845.183
       244.000         212.000
  20739426.992   -23113366.98949 -17996271.26447  20739427.053    20739433.821
       234.000         193.000
  22805280.290    -7464373.11649  -5503006.04545  22805279.314    22805289.231
       212.000         153.000
  22595679.800     5509606.69049   4299655.08045  22595678.997    22595690.302
       211.000         153.000
  19694473.256   -22470597.27049 -17489685.78047  19694472.111    19694479.465
       242.000         208.000
 98  3 18  0 59 29.9950000  0  7G30G24G 5G 6G17G 8G10
  19200284.879   -23593347.65149 -17630021.84448  19200284.989    19200291.018
       246.000         214.000
  20670555.174     2962542.55149   2316493.15847  20670555.372    20670562.478
       233.000         189.000
  19496589.997    -7761914.20349  -6035345.18147  19496589.392    19496596.351
       244.000         212.000
  20721417.028   -23208009.70349 -18070018.79247  20721416.842    20721423.401
       235.000         193.000
  22782716.618    -7582945.15549  -5595399.71845  22782715.254    22782725.902
       214.000         153.000
  22606281.207     5565317.14549   4343065.73645  22606281.457    22606291.023
       212.000         153.000
  19686875.539   -22510523.26949 -17520796.92047  19686874.530    19686881.853
       241.000         208.000
 98  3 18  0 59 59.9950000  0  7G30G24G 5G 6G17G 8G10
  19190946.055   -23642423.45249 -17668262.71548  19190946.274    19190952.287
       246.000         214.000
  20678210.622     3002772.08949   2347840.85047  20678210.003    20678218.073
       233.000         189.000
  19501421.027    -7736526.88849  -6015562.87447  19501420.637    19501427.304
       244.000         212.000
  20703405.704   -23302659.64049 -18143771.94147  20703405.461    20703412.090
       235.000         193.000
  22760165.232    -7701453.44549  -5687743.72945  22760164.686    22760173.997
       213.000         154.000
  22616871.751     5620970.52349   4386431.92045  22616871.566    22616882.332
       213.000         153.000
  19679372.819   -22549950.11249 -17551519.10647  19679371.774    19679379.142
       242.000         208.000
 98  3 18  1  0 29.9950000  0  7G30G24G 5G 6G17G 8G10
  19181713.436   -23690941.06249 -17706068.62948  19181713.506    19181719.704
       246.000         214.000
  20685877.757     3043063.00849   2379236.37847  20685877.945    20685885.213
       233.000         189.000
  19506344.213    -7710655.52349  -5995403.38447  19506343.739    19506350.765
       245.000         212.000
  20685404.958   -23397254.07749 -18217481.85047  20685404.902    20685411.702
       235.000         194.000
  22737637.840    -7819834.94949  -5779988.95245  22737637.111    22737646.420
       214.000         153.000
  22627462.257     5676623.57649   4429797.84645  22627461.944    22627472.379
       213.000         152.000
  19671976.943   -22588815.43249 -17581803.73947  19671976.044    19671983.206
       242.000         208.000
 98  3 18  1  0 59.9950000  0  7G30G24G 5G 6G17G 8G10
  19172598.174   -23738842.01149 -17743394.03248  19172598.256    19172604.255
       246.000         214.000
  20693566.573     3083468.04449   2410720.82047  20693566.272    20693573.992
       233.000         189.000
  19511369.705    -7684246.49749  -5974824.93647  19511369.190    19511376.171
       244.000         212.000
  20667426.843   -23491729.57949 -18291099.07747  20667426.648    20667433.567
       235.000         194.000
  22715146.497    -7938027.25349  -5872086.75645  22715145.962    22715155.777
       213.000         154.000
  22638063.068     5732331.22149   4473206.30645  22638062.635    22638072.380
       210.000         151.000
  19664701.516   -22627048.04349 -17611595.35547  19664700.681    19664707.782
       242.000         208.000
 98  3 18  1  1 29.9950000  0  7G30G24G 5G 6G17G 8G10
  19163575.576   -23786255.99649 -17780339.98348  19163575.763    19163581.762
       246.000         214.000
  20701255.638     3123874.47449   2442206.34947  20701255.079    20701262.591
       233.000         189.000
  19516469.837    -7657444.94649  -5953940.62847  19516469.379    19516476.380
       244.000         211.000
  20649450.684   -23586194.87149 -18364708.34747  20649450.553    20649457.137
       235.000         194.000
  22692670.907    -8056137.08349  -5964120.28645  22692670.491    22692679.713
       214.000         154.000
  22648655.803     5787996.18249   4516581.52145  22648654.333    22648666.487
       209.000         150.000
  19657525.534   -22664758.05649 -17640979.75047  19657524.429    19657531.602
       242.000         208.000
 98  3 18  1  1 59.9950000  0  7G30G24G 5G 6G17G 8G10
  19154637.005   -23833228.58449 -17816941.98748  19154637.121    19154643.002
       246.000         214.000
  20708941.041     3164261.37249   2473676.65647  20708940.978    20708948.372
       232.000         188.000
  19521635.547    -7630299.06049  -5932788.00947  19521634.983    19521641.980
       244.000         211.000
  20631468.251   -23680692.81849 -18438343.06347  20631467.982    20631474.661
       235.000         194.000
  22670207.388    -8174183.48949  -6056104.39545  22670206.682    22670216.210
       214.000         154.000
  22659233.965     5843584.64349   4559897.11345  22659233.979    22659243.716
       210.000         150.000
  19650440.435   -22701990.27449 -17669991.83847  19650439.674    19650446.768
       242.000         208.000
 98  3 18  1  2 29.9950000  0  7G30G24G 5G 6G17G 8G10
  19145787.348   -23879733.89449 -17853179.87748  19145787.637    19145793.582
       246.000         215.000
  20716627.677     3204654.90549   2505152.14047  20716627.627    20716635.377
       232.000         188.000
  19526871.489    -7602784.09549  -5911347.79147  19526871.098    19526877.960
       244.000         211.000
  20613482.835   -23775206.30849 -18511989.88747  20613482.773    20613489.487
       235.000         195.000
  22647761.104    -8292139.38449  -6148017.97945  22647760.412    22647769.900
       214.000         154.000
  22669804.218     5899131.27749   4603180.12145  22669803.851    22669814.076
       211.000         149.000
  19643452.456   -22738712.21449 -17698606.30847  19643451.571    19643458.623
       242.000         208.000
 98  3 18  1  2 59.9950000  0  7G30G24G 5G 6G17G 8G10
  19137025.497   -23925777.73349 -17889058.18348  19137025.603    19137031.514
       246.000         215.000
  20724314.823     3245051.35349   2536629.88447  20724314.426    20724322.420
       231.000         188.000
  19532173.423    -7574922.32849  -5889637.33947  19532173.048    19532179.901
       244.000         211.000
  20595494.128   -23869737.42049 -18585650.44847  20595493.786    20595500.825
       235.000         195.000
  22625332.662    -8410001.34149  -6239858.35345  22625331.619    22625342.098
       216.000         154.000
  22680365.514     5954631.07249   4646426.62845  22680365.060    22680376.583
       212.000         149.000
  19636562.039   -22774921.64249 -17726821.41647  19636561.202    19636568.221
       242.000         208.000
 98  3 18  1  3 29.9950000  0  7G30G24G 5G 6G17G 8G10
  19128371.604   -23971254.14149 -17924494.33148  19128371.764    19128377.676
       246.000         215.000
  20732024.988     3285568.72849   2568201.86747  20732024.968    20732032.820
       232.000         188.000
  19537562.013    -7546605.05349  -5867571.94647  19537561.638    19537568.537
       244.000         211.000
  20577522.302   -23964179.75249 -18659241.82147  20577521.978    20577529.044
       235.000         195.000
  22602946.040    -8527643.37349  -6331527.37545  22602945.606    22602954.751
       215.000         155.000
  22690937.326     6010186.02449   4689716.10845  22690935.982    22690947.429
       210.000         148.000
  19629791.328   -22810501.83049 -17754546.21147  19629790.299    19629797.348
       242.000         208.000
 98  3 18  1  3 59.9950000  0  7G30G24G 5G 6G17G 8G10
  19119813.502   -24016227.06349 -17959538.15848  19119813.529    19119819.591
       246.000         215.000
  20739740.473     3326113.96049   2599795.54946  20739739.737    20739748.160
       231.000         187.000
  19543025.108    -7517896.44149  -5845201.61847  19543024.606    19543031.567
       244.000         211.000
  20559551.389   -24058617.30049 -18732829.48147  20559550.769    20559558.407
       235.000         195.000
  22580585.070    -8645150.60149  -6423091.35445  22580584.267    22580593.493
       214.000         155.000
  22701498.817     6065686.61349   4732963.22745  22701498.240    22701509.912
       212.000         147.000
  19623123.742   -22845540.01749 -17781848.66947  19623122.795    19623130.102
       242.000         208.000
 98  3 18  1  4 29.9950000  0  7G30G24G 5G 6G17G 8G10
  19111360.551   -24060647.56249 -17994151.52248  19111360.550    19111366.455
       246.000         215.000
  20747464.115     3366701.86349   2631422.48046  20747464.099    20747471.932
       230.000         187.000
  19548567.096    -7488773.20649  -5822508.20447  19548566.629    19548573.639
       244.000         210.000
  20541588.792   -24153011.04049 -18806382.99747  20541588.404    20541595.446
       235.000         196.000
  22558251.716    -8762512.77349  -6514542.31545  22558250.658    22558260.344
       216.000         156.000
  22712054.209     6121155.22849   4776185.43245  22712052.823    22712064.340
       211.000         147.000
  19616567.663   -22879992.32849 -17808694.60347  19616566.723    19616573.704
       242.000         208.000
 98  3 18  1  4 59.9950000  0  7G30G24G 5G 6G17G 8G10
  19102992.886   -24104620.00949 -18028415.75248  19102993.043    19102998.742
       246.000         215.000
  20755176.494     3407231.05249   2663003.65546  20755176.320    20755183.855
       230.000         186.000
  19554165.033    -7459355.94049  -5799585.67147  19554164.564    19554171.451
       244.000         210.000
  20523613.730   -24247470.34049 -18879987.60047  20523613.658    20523620.227
       236.000         196.000
  22535924.765    -8879841.79049  -6605967.43645  22535924.094    22535933.457
       216.000         157.000
  22722581.136     6176474.49049   4819291.26245  22722581.084    22722590.479
       206.000         147.000
  19610101.073   -22913974.25849 -17835174.00047  19610099.870    19610107.305
       242.000         208.000
 98  3 18  1  5 29.9950000  0  7G30G24G 5G 6G17G 8G10
  19094728.237   -24148050.96849 -18062258.04548  19094728.335    19094734.202
       246.000         215.000
  20762893.718     3447785.34149   2694604.39846  20762893.518    20762901.054
       231.000         186.000
  19559837.409    -7429547.50249  -5776358.33247  19559836.877    19559843.865
       244.000         210.000
  20505644.800   -24341897.60149 -18953567.23747  20505644.548    20505651.187
       236.000         196.000
  22513616.598    -8997071.73549  -6697315.35045  22513615.219    22513624.665
       216.000         157.000
  22733094.096     6231720.08449   4862339.69045  22733093.907    22733104.327
       205.000         146.000
  19603738.594   -22947409.17649 -17861227.15747  19603737.915    19603744.762
       241.000         208.000
 98  3 18  1  5 59.9950000  0  7G30G24G 5G 6G17G 8G10
  19086575.264   -24190895.05949 -18095643.04048  19086575.359    19086581.263
       246.000         215.000
  20770620.067     3488387.26149   2726242.25646  20770619.499    20770627.149
       231.000         186.000
  19565587.682    -7399329.66949  -5752811.98747  19565587.106    19565594.135
       243.000         210.000
  20487689.308   -24436254.22049 -19027091.82947  20487689.018    20487695.793
       236.000         196.000
  22491330.548    -9114185.13149  -6788572.44845  22491329.696    22491339.996
       215.000         158.000
  22743601.361     6286935.93649   4905364.93045  22743601.332    22743612.515
       207.000         146.000
  19597483.270   -22980281.23649 -17886841.72947  19597482.355    19597489.581
       242.000         208.000
 98  3 18  1  6 29.9950000  0  7G30G24G 5G 6G17G 8G10
  19078529.284   -24233176.85249 -18128589.88148  19078529.469    19078535.142
       246.000         215.000
  20778356.182     3529040.71749   2757920.25846  20778356.333    20778363.653
       230.000         186.000
  19571412.138    -7368722.05449  -5728961.91447  19571411.504    19571418.722
       243.000         210.000
  20469744.640   -24530553.94349 -19100572.08247  20469744.671    20469751.535
       235.000         197.000
  22469066.333    -9231183.97349  -6879740.26745  22469065.699    22469074.714
       216.000         158.000
  22754105.281     6342134.10249   4948376.38845  22754104.621    22754115.251
       206.000         147.000
  19591333.909   -23012596.23749 -17912022.23147  19591332.833    19591340.236
       242.000         208.000
 98  3 18  1  6 59.9950000  0  7G30G24G 5G 6G17G 8G10
  19070579.551   -24274953.00549 -18161142.71948  19070579.632    19070585.509
       246.000         214.000
  20786096.707     3569717.56449   2789616.49246  20786096.315    20786104.232
       230.000         185.000
  19577305.498    -7337752.33249  -5704829.68447  19577304.944    19577311.861
       243.000         209.000
  20451801.341   -24624846.44649 -19174046.71847  20451801.133    20451808.069
       236.000         197.000
  22446820.687    -9348085.12849  -6970831.96945  22446820.260    22446829.029
       215.000         159.000
  22764597.586     6397270.92149   4991340.05245  22764597.657    22764608.095
       212.000         146.000
  19585281.784   -23044400.33149 -17936804.62347  19585280.682    19585288.033
       242.000         208.000
 98  3 18  1  7 29.9950000  0  7G30G24G 5G 6G17G 8G10
  19062725.806   -24316224.58149 -18193302.37448  19062725.999    19062731.807
       246.000         215.000
  20793838.859     3610402.99149   2821319.41446  20793838.515    20793846.612
       230.000         185.000
  19583270.005    -7306408.54349  -5680405.96947  19583269.704    19583276.365
       243.000         209.000
  20433859.413   -24719131.61949 -19247515.63747  20433859.364    20433865.946
       236.000         197.000
  22424597.190    -9464869.98249  -7061833.03845  22424595.655    22424606.115
       216.000         159.000
  22775078.778     6452349.16249   5034258.06445  22775078.761    22775089.373
       210.000         147.000
  19579326.568   -23075695.07449 -17961190.11647  19579325.755    19579332.795
       242.000         208.000
 98  3 18  1  7 59.9950000  0  7G30G24G 5G 6G17G 8G10
  19054984.243   -24356906.67049 -18225002.69048  19054984.369    19054990.280
       246.000         214.000
  20801600.787     3651192.00249   2853103.05046  20801600.741    20801608.465
       230.000         185.000
  19589324.531    -7274591.94449  -5655613.82847  19589324.013    19589331.094
       243.000         209.000
  20415934.310   -24813328.53549 -19320915.78347  20415934.353    20415940.899
       237.000         197.000
  22402417.369    -9581425.24649  -7152655.21345  22402416.110    22402425.639
       217.000         159.000
  22785568.808     6507474.02449   5077212.40345  22785568.739    22785578.122
       211.000         147.000
  19573487.751   -23106378.20049 -17985099.02147  19573487.087    19573493.924
       242.000         208.000
 98  3 18  1  8 29.9950000  0  7G30G24G 5G 6G17G 8G10
  19047334.035   -24397108.70549 -18256328.94148  19047334.235    19047339.962
       246.000         215.000
  20809364.050     3691988.32549   2884892.38046  20809363.927    20809371.621
       230.000         185.000
  19595452.122    -7242391.32849  -5630522.45647  19595451.621    19595458.532
       243.000         209.000
  20398005.647   -24907544.14249 -19394330.49547  20398005.355    20398012.054
       236.000         197.000
  22380261.430    -9697855.07749  -7243379.63945  22380260.008    22380270.000
       217.000         160.000
  22796044.779     6562525.41649   5120109.50045  22796044.807    22796054.047
       212.000         147.000
  19567748.755   -23136536.72649 -18008599.15447  19567747.980    19567755.021
       242.000         208.000
 98  3 18  1  8 59.9950000  0  7G30G24G 5G 6G17G 8G10
  19039781.988   -24436794.89549 -18287253.23348  19039782.103    19039787.877
       246.000         215.000
  20817128.417     3732790.26949   2916686.09146  20817128.282    20817136.447
       230.000         185.000
  19601656.516    -7209787.05849  -5605116.54547  19601655.826    19601662.943
       242.000         209.000
  20380079.523   -25001746.43749 -19467734.83247  20380079.295    20380086.080
       237.000         198.000
  22358131.971    -9814145.48049  -7333995.42645  22358130.978    22358139.879
       216.000         160.000
  22806506.777     6617503.00649   5162949.07945  22806507.833    22806517.496
       211.000         147.000
  19562112.064   -23166157.67649 -18031680.39447  19562111.252    19562118.195
       242.000         208.000
 98  3 18  1  9 29.9950000  0  7G30G24G 5G 6G17G 8G10
  19032347.843   -24475861.63149 -18317694.83948  19032347.970    19032353.765
       246.000         215.000
  20824906.490     3773664.02549   2948535.76346  20824906.517    20824914.509
       230.000         185.000
  19607949.944    -7176714.88749  -5579346.04447  19607949.429    19607956.341
       243.000         208.000
  20362173.913   -25095840.99249 -19541055.22347  20362173.441    20362180.244
       238.000         198.000
  22336041.081    -9930233.44649  -7424453.46345  22336040.891    22336049.526
       217.000         160.000
  22816971.079     6672492.66849   5205798.06545  22816970.950    22816981.532
       211.000         147.000
  19556592.617   -23195162.53149 -18054281.56247  19556591.623    19556598.734
       242.000         208.000
 98  3 18  1  9 59.9950000  0  7G30G24G 5G 6G17G 8G10
  19025016.214   -24514389.59449 -18347716.61848  19025016.425    19025022.168
       246.000         215.000
  20832683.817     3814534.03949   2980382.52846  20832683.823    20832691.266
       230.000         184.000
  19614314.671    -7143268.05449  -5553283.59047  19614314.143    19614321.090
       243.000         208.000
  20344273.732   -25189906.86849 -19614353.25947  20344273.343    20344280.537
       238.000         198.000
  22313969.517   -10046219.70549  -7514832.24845  22313967.652    22313977.758
       217.000         160.000
  22827419.070     6727396.87649   5248580.47245  22827418.447    22827428.715
       206.000         147.000
  19551175.557   -23223629.16449 -18076463.33147  19551174.643    19551181.838
       242.000         208.000
 98  3 18  1 10 29.9950000  0  7G30G24G 5G 6G17G 8G10
  19017785.577   -24552386.83149 -18377324.84548  19017785.611    19017791.620
       246.000         215.000
  20840455.448     3855374.31249   3012206.11246  20840455.253    20840462.626
       230.000         184.000
  19620745.374    -7109474.56149  -5526951.01247  19620744.661    19620751.851
       242.000         208.000
  20326378.084   -25283948.85649 -19687632.68247  20326377.682    20326384.667
       237.000         198.000
  22291915.092   -10162115.90649  -7605140.86745  22291913.809    22291923.329
       215.000         160.000
  22837844.678     6782183.40949   5291271.17645  22837844.539    22837854.846
       214.000         147.000
  19545855.274   -23251587.31249 -18098248.87847  19545854.077    19545861.314
       242.000         208.000
 98  3 18  1 10 59.9950000  0  7G30G24G 5G 6G17G 8G10
  19010658.835   -24589837.83949 -18406507.44848  19010658.885    19010664.985
       246.000         215.000
  20848225.582     3896206.46849   3044023.37446  20848225.993    20848233.013
       229.000         184.000
  19627243.143    -7075328.46349  -5500343.68747  19627242.603    19627249.744
       242.000         207.000
  20308492.279   -25377939.12649 -19760871.81047  20308491.704    20308498.853
       237.000         198.000
  22269884.665   -10277885.98349  -7695351.19745  22269883.261    22269892.692
       216.000         160.000
  22848251.287     6836870.55949   5333884.43145  22848249.916    22848261.370
       208.000         146.000
  19540633.277   -23279028.96949 -18119631.97147  19540632.412    19540639.572
       241.000         208.000
 98  3 18  1 11 29.9950000  0  7G30G24G 5G 6G17G 8G10
  19003620.968   -24626822.07849 -18435326.32848  19003621.107    19003626.954
       246.000         215.000
  20855985.439     3936984.55349   3075798.50946  20855984.982    20855992.936
       230.000         184.000
  19633796.631    -7040889.84449  -5473508.41747  19633796.066    19633802.960
       242.000         207.000
  20290602.460   -25471950.43349 -19834127.32747  20290601.919    20290608.964
       238.000         198.000
  22247869.601   -10393575.30449  -7785498.58845  22247869.051    22247876.491
       217.000         160.000
  22858627.694     6891398.61049   5376373.72345  22858627.501    22858638.133
       210.000         146.000
  19535501.071   -23305998.71849 -18140647.33547  19535500.085    19535507.294
       242.000         208.000
 98  3 18  1 11 59.9950000  0  7G30G24G 5G 6G17G 8G10
  18996684.157   -24663275.37349 -18463731.48748  18996684.269    18996690.189
       246.000         215.000
  20863752.123     3977798.82949   3107601.83546  20863751.615    20863759.773
       230.000         184.000
  19640423.515    -7006065.38849  -5446372.49447  19640422.888    19640429.898
       242.000         207.000
  20272722.795   -25565908.51449 -19907341.37447  20272722.686    20272729.385
       238.000         198.000
  22225887.870   -10509089.68449  -7875509.66445  22225886.319    22225895.321
       217.000         159.000
  22868987.436     6945839.14049   5418794.80745  22868987.010    22868998.524
       203.000         146.000
  19530476.367   -23332403.55149 -18161222.50847  19530475.443    19530482.654
       242.000         208.000
 98  3 18  1 12 29.9950000  0  7G30G24G 5G 6G17G 8G10
  18989829.569   -24699296.53249 -18491799.91748  18989829.724    18989835.827
       246.000         215.000
  20871506.877     4018550.11349   3139356.08446  20871506.437    20871514.442
       230.000         184.000
  19647104.193    -6970958.22249  -5419016.27947  19647103.673    19647110.810
       242.000         207.000
  20254833.310   -25659918.20449 -19980595.63047  20254833.021    20254839.722
       239.000         199.000
  22203921.105   -10624525.72949  -7965459.70345  22203920.466    22203929.777
       219.000         160.000
  22879314.171     7000106.22549   5461080.73945  22879314.260    22879324.803
       204.000         146.000
  19525541.978   -23358333.87349 -18181427.92847  19525541.069    19525548.275
       242.000         208.000
 98  3 18  1 12 59.9950000  0  7G30G24G 5G 6G17G 8G10
  18983068.249   -24734827.30449 -18519486.22648  18983068.415    18983074.496
       246.000         215.000
  20879262.583     4059306.43949   3171114.26446  20879262.397    20879270.246
       229.000         183.000
  19653852.803    -6935494.26849  -5391382.04747  19653852.361    19653859.467
       242.000         206.000
  20236944.270   -25753925.71949 -20053848.20547  20236944.015    20236950.785
       238.000         199.000
  22181978.998   -10739831.79949  -8055308.46845  22181978.716    22181986.915
       217.000         160.000
  22889621.963     7054273.65649   5503289.02745  22889621.095    22889632.032
       208.000         146.000
  19520714.145   -23383704.12249 -18201196.93047  19520713.301    19520720.552
       242.000         208.000
 98  3 18  1 13 29.9950000  0  7G30G24G 5G 6G17G 8G10
  18976396.469   -24769887.63649 -18546805.95748  18976396.594    18976402.559
       246.000         215.000
  20887011.469     4100027.38049   3202844.86746  20887010.923    20887018.536
       228.000         182.000
  19660664.223    -6899700.15449  -5363490.54847  19660663.796    19660670.693
       242.000         206.000
  20219048.822   -25847966.70049 -20127126.84947  20219048.444    20219055.454
       239.000         199.000
  22160051.156   -10855063.30749  -8145099.12945  22160050.336    22160059.054
       218.000         160.000
  22899906.010     7108315.67349   5545399.58745  22899906.165    22899917.553
       209.000         146.000
  19515986.660   -23408547.16249 -18220555.11647  19515985.874    19515992.844
       242.000         208.000
 98  3 18  1 13 59.9940000  0  7G30G24G 5G 6G17G 8G10
  18969814.696   -24804475.06349 -18573757.19248  18969815.100    18969820.953
       246.000         215.000
  20894750.076     4140694.25149   3234533.33846  20894749.766    20894757.734
       229.000         182.000
  19667533.705    -6863600.76149  -5335361.16447  19667532.970    19667540.227
       242.000         206.000
  20201148.273   -25942034.64449 -20200426.50347  20201147.956    20201154.964
       239.000         200.000
  22138131.066   -10970253.75149  -8234857.81445  22138130.411    22138139.238
       219.000         161.000
  22910163.667     7162219.17849   5587402.21945  22910162.814    22910175.060
       210.000         146.000
  19511352.583   -23432899.14049 -18239530.65747  19511351.652    19511358.865
       242.000         208.000
 98  3 18  1 14 29.9940000  0  7G30G24G 5G 6G17G 8G10
  18963329.749   -24838553.67449 -18600311.94848  18963329.750    18963335.805
       246.000         215.000
  20902482.578     4181329.02949   3266196.81146  20902482.283    20902490.146
       228.000         181.000
  19674465.350    -6827174.85649  -5306977.36147  19674464.771    19674471.947
       241.000         206.000
  20183249.154   -26036095.06449 -20273720.30647  20183248.728    20183255.888
       240.000         200.000
  22116223.096   -11085380.30049  -8324566.70045  22116222.748    22116231.180
       218.000         161.000
  22920399.113     7216006.12049   5629314.03145  22920398.418    22920409.821
       210.000         146.000
  19506812.270   -23456758.68449 -18258122.48447  19506811.445    19506818.457
       242.000         208.000
 98  3 18  1 14 59.9940000  0  7G30G24G 5G 6G17G 8G10
  18956927.560   -24872197.23449 -18626527.69848  18956927.592    18956933.675
       246.000         215.000
  20910193.811     4221851.80549   3297773.00846  20910193.784    20910201.402
       229.000         181.000
  19681445.768    -6790492.37149  -5278393.61847  19681445.409    19681452.395
       242.000         206.000
  20165340.780   -26130204.13349 -20347052.00847  20165340.475    20165347.097
       239.000         200.000
  22094316.239   -11200500.96849  -8414271.00945  22094315.384    22094324.559
       218.000         161.000
  22930593.264     7269576.74249   5671057.26245  22930592.231    22930603.112
       209.000         146.000
  19502347.195   -23480222.66949 -18276406.08047  19502346.277    19502353.294
       242.000         208.000
 98  3 18  1 15 29.9940000  0  7G30G24G 5G 6G17G 8G10
  18950628.114   -24905300.97549 -18652322.81748  18950628.263    18950634.372
       246.000         215.000
  20917902.581     4262361.63749   3329339.10546  20917902.617    20917909.848
       228.000         181.000
  19688490.282    -6753473.29749  -5249547.60647  19688489.752    19688496.720
       242.000         206.000
  20147444.097   -26224251.58549 -20420335.70547  20147443.705    20147450.401
       239.000         201.000
  22072431.123   -11315507.50649  -8503886.38545  22072430.085    22072439.096
       218.000         161.000
  22940762.617     7323016.67249   5712698.67345  22940761.881    22940772.129
       206.000         145.000
  19497973.646   -23503205.78149 -18294314.98047  19497972.694    19497979.619
       242.000         208.000
 98  3 18  1 15 59.9940000  0  7G30G24G 5G 6G17G 8G10
  18944422.535   -24937911.64749 -18677733.72148  18944422.529    18944428.689
       246.000         215.000
  20925601.429     4302819.21749   3360864.49046  20925601.438    20925609.284
       228.000         181.000
  19695592.442    -6716151.40449  -5220465.63047  19695591.835    19695598.946
       241.000         205.000
  20129553.792   -26318265.61249 -20493593.35447  20129553.620    20129560.449
       240.000         201.000
  22050565.911   -11430409.19649  -8593420.08445  22050564.872    22050574.628
       218.000         161.000
  22950898.315     7376280.32349   5754202.72945  22950897.714    22950909.123
       208.000         143.000
  19493687.556   -23525729.32149 -18311865.76547  19493686.712    19493693.797
       242.000         208.000
 98  3 18  1 16 29.9940000  0  7G30G24G 5G 6G17G 8G10
  18938296.608   -24970103.58349 -18702818.33848  18938296.810    18938302.722
       246.000         215.000
  20933276.198     4343150.16249   3392291.19946  20933275.705    20933283.752
       229.000         180.000
  19702740.077    -6678590.50249  -5191197.41347  19702739.787    19702746.563
       241.000         205.000
  20111655.018   -26412324.22549 -20566885.74547  20111654.871    20111661.283
       240.000         201.000
  22028710.707   -11545258.54549  -8682912.98045  22028709.612    22028719.202
       217.000         161.000
  22960986.202     7429292.33049   5795510.67945  22960986.450    22960996.713
       211.000         143.000
  19489480.082   -23547839.80249 -18329094.69047  19489479.034    19489486.234
       242.000         208.000
 98  3 18  1 16 59.9940000  0  7G30G24G 5G 6G17G 8G10
  18932263.421   -25001808.17549 -18727523.20948  18932263.697    18932269.596
       246.000         215.000
  20940941.267     4383430.40149   3423678.39646  20940940.559    20940948.932
       228.000         180.000
  19709946.996    -6640718.04949  -5161686.43247  19709946.618    19709953.599
       241.000         205.000
  20093760.566   -26506360.08949 -20640160.40647  20093760.019    20093766.755
       239.000         201.000
  22006876.162   -11659999.27049  -8772321.24245  22006875.637    22006884.710
       217.000         161.000
  22971043.565     7482143.46149   5836693.29245  22971043.258    22971055.051
       205.000         142.000
  19485371.180   -23569432.08349 -18345919.82447  19485370.289    19485377.495
       242.000         208.000
 98  3 18  1 17 29.9940000  0  7G30G24G 5G 6G17G 8G10
  18926303.204   -25033129.48949 -18751929.41748  18926303.163    18926309.286
       246.000         215.000
  20948574.684     4423544.42549   3454936.08146  20948574.204    20948581.987
       228.000         179.000
  19717192.290    -6602643.76149  -5132018.17347  19717191.762    19717198.903
       241.000         205.000
  20075849.289   -26600484.03649 -20713503.70347  20075848.709    20075855.622
       238.000         201.000
  21985040.395   -11774746.42949  -8861734.51645  21985039.654    21985047.902
       218.000         161.000
  22981053.074     7534743.06849   5877679.90645  22981052.848    22981063.785
       213.000         142.000
  19481343.740   -23590596.15849 -18362411.29047  19481342.697    19481350.063
       242.000         208.000
 98  3 18  1 17 59.9940000  0  7G30G24G 5G 6G17G 8G10
  18920433.670   -25063974.07449 -18775964.15048  18920433.916    18920439.831
       246.000         215.000
  20956194.189     4463585.47949   3486136.90646  20956193.849    20956201.317
       227.000         178.000
  19724495.090    -6564267.52949  -5102114.64047  19724494.587    19724501.722
       241.000         204.000
  20057938.333   -26694606.62249 -20786845.94047  20057937.909    20057944.843
       239.000         201.000
  21963219.714   -11889414.44549  -8951086.12845  21963218.510    21963228.133
       218.000         161.000
  22991033.311     7587189.45849   5918547.14445  22991032.579    22991044.622
       208.000         142.000
  19477416.013   -23611236.44249 -18378494.60647  19477414.996    19477422.031
       242.000         208.000
 98  3 18  1 18 29.9940000  0  7G30G24G 5G 6G17G 8G10
  18914667.775   -25094274.12149 -18799574.56648  18914667.888    18914673.677
       246.000         215.000
  20963810.438     4503609.24249   3517324.25146  20963810.106    20963818.368
       227.000         178.000
  19731864.996    -6525538.54249  -5071936.22847  19731864.385    19731871.415
       241.000         204.000
  20040036.239   -26788682.52349 -20860151.80147  20040035.892    20040042.533
       238.000         201.000
  21941421.826   -12003962.54549  -9040344.29345  21941420.181    21941430.003
       218.000         162.000
  23000996.530     7639546.64949   5959344.87145  23000996.302    23001007.137
       211.000         141.000
  19473596.660   -23631307.12849 -18394134.08247  19473595.790    19473602.858
       242.000         208.000
 98  3 18  1 18 59.9940000  0  6G30G24G 5G 6G17G10
  18909016.952   -25123969.41149 -18822713.74748  18909017.040    18909023.002
       246.000         215.000
  20971434.010     4543671.23149   3548541.37846  20971433.619    20971441.527
       227.000         178.000
  19739309.349    -6486418.10949  -5041452.79547  19739308.621    19739315.891
       240.000         204.000
  20022152.077   -26882664.33449 -20933384.35247  20022152.133    20022158.422
       239.000         202.000
  21919655.798   -12118343.43349  -9129472.17246  21919655.458    21919663.374
       218.000         163.000
  19469890.751   -23650781.73049 -18409309.08147  19469889.906    19469896.835
       242.000         208.000
 98  3 18  1 19 29.9940000  0  6G30G24G 5G 6G17G10
  18903482.281   -25153054.23649 -18845377.23748  18903482.272    18903488.368
       246.000         215.000
  20979066.944     4583782.45749   3579796.87246  20979066.634    20979074.123
       227.000         178.000
  19746827.107    -6446911.95949  -5010668.80447  19746826.427    19746833.547
       240.000         203.000
  20004285.130   -26976555.74349 -21006546.45547  20004284.982    20004291.335
       239.000         202.000
  21897926.325   -12232532.02549  -9218450.20546  21897925.332    21897934.395
       219.000         163.000
  19466293.956   -23669682.90749 -18424037.25547  19466293.026    19466300.103
       242.000         208.000
 98  3 18  1 19 59.9940000  0  6G30G24G 5G 6G17G10
  18898055.688   -25181571.02449 -18867598.10548  18898055.638    18898061.704
       246.000         215.000
  20986704.748     4623919.54049   3611072.50846  20986705.136    20986711.749
       227.000         178.000
  19754408.641    -6407070.75349  -4979623.73047  19754408.208    19754415.279
       240.000         203.000
  19986426.663   -27070402.54949 -21079673.80247  19986426.435    19986432.892
       240.000         202.000
  21876226.909   -12346563.00049  -9307305.42546  21876225.934    21876234.883
       221.000         164.000
  19462796.837   -23688060.35149 -18438357.32647  19462795.947    19462802.946
       242.000         207.000
 98  3 18  1 20 29.9940000  0  6G30G24G 5G 6G17G10
  18892744.561   -25209481.09949 -18889346.20948  18892744.665    18892750.694
       246.000         215.000
  20994354.071     4664116.77049   3642395.01646  20994354.281    20994361.704
       227.000         177.000
  19762061.173    -6366856.32249  -4948287.83447  19762060.650    19762067.496
       240.000         202.000
  19968586.160   -27164155.11249 -21152727.71047  19968585.876    19968592.281
       239.000         202.000
  21854567.096   -12460385.81349  -9395998.44546  21854566.528    21854575.181
       221.000         165.000
  19459403.747   -23705890.97349 -18452251.30347  19459402.806    19459410.048
       242.000         207.000
 98  3 18  1 20 59.9940000  0  6G30G24G 5G 6G17G10
  18887544.057   -25236809.69149 -18910641.20348  18887544.135    18887550.010
       247.000         215.000
  21002013.041     4704364.94649   3673757.22746  21002012.779    21002020.870
       226.000         177.000
  19769783.090    -6326277.52949  -4916668.01247  19769782.644    19769789.797
       239.000         202.000
  19950763.771   -27257812.18949 -21225707.21147  19950763.454    19950769.961
       240.000         203.000
  21832944.590   -12574012.63349  -9484538.73746  21832944.447    21832953.333
       221.000         165.000
  19456110.316   -23723197.96249 -18465737.24747  19456109.616    19456116.712
       242.000         207.000
 98  3 18  1 21 29.9940000  0  6G30G24G 5G 6G17G10
  18882437.951   -25263642.35449 -18931549.76948  18882437.950    18882443.974
       248.000         215.000
  21009667.037     4744587.14349   3705099.18946  21009666.151    21009675.039
       226.000         177.000
  19777565.389    -6285381.27549  -4884800.82447  19777564.777    19777572.031
       239.000         202.000
  19932950.291   -27351422.47049 -21298650.25347  19932949.816    19932956.557
       240.000         203.000
  21811346.601   -12687510.52849  -9572978.57146  21811345.869    21811354.682
       222.000         166.000
  19452908.370   -23740024.22549 -18478848.60647  19452907.263    19452914.280
       242.000         207.000
 98  3 18  1 21 59.9940000  0  6G30G24G 5G 6G17G10
  18877426.317   -25289978.62749 -18952071.53148  18877426.470    18877432.514
       247.000         215.000
  21017313.970     4784771.87149   3736411.96146  21017313.677    21017321.128
       226.000         177.000
  19785410.720    -6244153.81849  -4852675.55147  19785410.285    19785417.012
       239.000         201.000
  19915149.797   -27444964.46149 -21371540.08347  19915149.249    19915156.008
       240.000         203.000
  21789771.669   -12800887.13149  -9661323.87646  21789770.556    21789779.709
       221.000         166.000
  19449800.136   -23756358.03649 -18491576.23347  19449799.284    19449806.290
       242.000         207.000
 98  3 18  1 22 29.9940000  0  6G30G24G 5G 6G17G10
  18872516.250   -25315781.10549 -18972177.35648  18872516.289    18872522.350
       247.000         215.000
  21024957.512     4824938.85649   3767710.90846  21024957.545    21024964.561
       226.000         176.000
  19793327.524    -6202550.75349  -4820257.60047  19793326.875    19793333.920
       239.000         201.000
  19897369.914   -27538397.90949 -21444345.32647  19897369.338    19897376.088
       240.000         203.000
  21768226.043   -12914109.81749  -9749549.26146  21768224.862    21768234.729
       220.000         166.000
  19446795.437   -23772147.79149 -18503879.91747  19446794.704    19446801.364
       242.000         207.000
 98  3 18  1 22 59.9940000  0  6G30G24G 5G 6G17G10
  18867711.515   -25341030.08249 -18991851.87848  18867711.575    18867717.432
       247.000         215.000
  21032600.885     4865104.99849   3799009.19646  21032600.933    21032608.415
       226.000         176.000
  19801319.017    -6160555.03949  -4787533.68447  19801318.742    19801325.593
       239.000         201.000
  19879612.394   -27631713.90649 -21517059.05247  19879612.151    19879618.960
       240.000         203.000
  21746713.705   -13027157.35249  -9837638.16646  21746712.864    21746720.720
       222.000         167.000
  19443903.487   -23787344.99049 -18515721.87147  19443902.606    19443909.688
       242.000         207.000
 98  3 18  1 23 29.9940000  0  6G30G24G 5G 6G17G10
  18863007.422   -25365750.19949 -19011114.30448  18863007.472    18863013.635
       248.000         215.000
  21040235.680     4905226.16049   3830272.43646  21040235.688    21040242.530
       226.000         176.000
  19809373.547    -6118228.39849  -4754551.90247  19809373.146    19809380.060
       239.000         201.000
  19861869.329   -27724954.43349 -21589713.96947  19861869.144    19861875.573
       240.000         204.000
  21725231.273   -13140048.09749  -9925604.89146  21725230.336    21725240.281
       222.000         167.000
  19441118.827   -23801978.57349 -18527124.64247  19441117.804    19441124.803
       242.000         208.000
 98  3 18  1 23 59.9940000  0  6G30G24G 5G 6G17G10
  18858392.400   -25390002.20749 -19030011.97148  18858392.497    18858398.393
       248.000         215.000
  21047846.984     4945223.68549   3861439.32546  21047847.299    21047854.837
       226.000         176.000
  19817471.202    -6075674.91049  -4721393.36047  19817470.511    19817477.911
       239.000         200.000
  19844122.421   -27818214.99049 -21662384.49447  19844122.090    19844128.637
       241.000         204.000
  21703762.851   -13252865.22149 -10013514.24746  21703761.688    21703770.888
       222.000         167.000
  19438424.322   -23816138.19949 -18538158.10147  19438423.240    19438430.491
       242.000         207.000
 98  3 18  1 24 29.9940000  0  6G30G24G 5G 6G17G10
  18853886.271   -25413682.04049 -19048463.78948  18853886.406    18853892.369
       248.000         215.000
  21055454.161     4985199.61949   3892589.40246  21055453.753    21055461.457
       225.000         176.000
  19825629.364    -6032803.49049  -4687987.08147  19825628.673    19825635.815
       239.000         200.000
  19826388.897   -27911405.27749 -21735000.26647  19826388.527    19826394.884
       240.000         204.000
  21682326.575   -13365513.29449 -10101291.88946  21682326.947    21682334.398
       223.000         168.000
  19435840.740   -23829714.89149 -18548737.32647  19435839.658    19435846.661
       241.000         207.000
 98  3 18  1 24 59.9940000  0  6G30G24G 5G 6G17G10
  18849486.694   -25436802.09649 -19066479.41348  18849486.772    18849492.923
       248.000         215.000
  21063058.619     5025161.45549   3923728.48746  21063058.288    21063065.840
       225.000         176.000
  19833845.930    -5989625.13549  -4654341.62647  19833845.175    19833852.322
       238.000         200.000
  19808669.101   -28004523.26049 -21807559.69347  19808668.394    19808675.310
       240.000         204.000
  21660920.129   -13478004.71749 -10188947.45846  21660919.008    21660928.653
       223.000         168.000
  19433363.765   -23842731.23249 -18558879.91147  19433362.743    19433369.986
       241.000         207.000
 98  3 18  1 25 29.9940000  0  6G30G24G 5G 6G17G10
  18845199.241   -25459332.58849 -19084035.64148  18845199.440    18845205.425
       247.000         215.000
  21070669.682     5065157.92949   3954894.57946  21070669.209    21070677.116
       225.000         175.000
  19842128.284    -5946100.95949  -4620426.71047  19842127.721    19842134.918
       238.000         199.000
  19790971.797   -28097523.04549 -21880027.02047  19790971.286    19790977.895
       240.000         204.000
  21639547.561   -13590318.10549 -10276464.30046  21639546.564    21639555.775
       222.000         169.000
  19430997.935   -23855163.59649 -18568567.45447  19430996.961    19431004.014
       242.000         207.000
 98  3 18  1 25 59.9940000  0  6G30G24G 5G 6G17G10
  18840996.407   -25481418.53849 -19101245.47248  18840996.500    18841002.561
       248.000         215.000
  21078262.765     5105059.86149   3985986.99246  21078261.993    21078270.854
       225.000         175.000
  19850455.688    -5902340.22849  -4586327.46247  19850455.296    19850462.483
       238.000         199.000
  19773271.261   -28190539.77849 -21952507.55347  19773271.089    19773277.375
       240.000         204.000
  21618179.261   -13702609.08549 -10363963.68046  21618178.436    21618187.546
       226.000         169.000
  19428718.100   -23867143.98749 -18577902.80347  19428717.189    19428724.186
       241.000         207.000
 98  3 18  1 26 29.9940000  0  6G30G24G 5G 6G17G10
  18836893.410   -25502979.87549 -19118046.51348  18836893.600    18836899.725
       248.000         215.000
  21085856.234     5144964.02449   4017081.14146  21085856.725    21085863.810
       226.000         175.000
  19858850.215    -5858226.70649  -4551953.31447  19858849.694    19858857.015
       238.000         199.000
  19755589.406   -28283458.44749 -22024911.67947  19755589.000    19755595.521
       240.000         204.000
  21596838.344   -13814755.92349 -10451350.73046  21596836.961    21596845.740
       225.000         169.000
  19426542.199   -23878578.34249 -18586812.67247  19426541.295    19426548.227
       242.000         207.000
 98  3 18  1 26 59.9940000  0  6G30G24G 5G 6G17G10
  18832885.004   -25524044.25949 -19134460.31948  18832885.315    18832891.234
       247.000         215.000
  21093444.947     5184842.93449   4048155.62046  21093445.102    21093452.633
       224.000         175.000
  19867307.994    -5813780.91049  -4517320.25147  19867307.379    19867314.429
       237.000         198.000
  19737922.047   -28376300.69649 -22097256.25847  19737921.601    19737928.304
       240.000         204.000
  21575524.366   -13926761.25749 -10538627.52446  21575524.325    21575532.234
       223.000         169.000
  19424462.876   -23889505.16949 -18595327.06847  19424462.055    19424469.185
       241.000         207.000
 98  3 18  1 27 29.9940000  0  6G30G24G 5G 6G17G10
  18828982.430   -25544552.59049 -19150440.83748  18828982.736    18828988.703
       248.000         215.000
  21101035.872     5224733.67049   4079239.30146  21101035.667    21101043.766
       225.000         175.000
  19875838.123    -5768954.90149  -4482390.91747  19875837.584    19875844.369
       238.000         198.000
  19720277.718   -28469022.06649 -22169506.64447  19720277.406    19720283.689
       241.000         205.000
  21554250.886   -14038553.81249 -10625738.51246  21554250.273    21554258.334
       223.000         170.000
  19422489.973   -23899872.85049 -18603405.76947  19422489.211    19422496.178
       242.000         207.000
 98  3 18  1 27 59.9940000  0  6G30G24G 5G 6G17G10
  18825164.248   -25564617.22949 -19166075.62448  18825164.340    18825170.371
       248.000         215.000
  21108601.986     5264493.98249   4110221.35746  21108602.189    21108609.336
       224.000         174.000
  19884413.945    -5723888.74149  -4447274.45347  19884413.357    19884420.725
       238.000         198.000
  19702630.568   -28561758.16549 -22241768.51347  19702630.063    19702636.662
       240.000         205.000
  21532997.920   -14150238.74049 -10712765.63846  21532997.176    21533005.177
       222.000         170.000
  19420597.356   -23909818.66849 -18611155.74047  19420596.381    19420603.404
       242.000         207.000
 98  3 18  1 28 29.9940000  0  6G30G24G 5G 6G17G10
  18821428.785   -25584246.99449 -19181371.54248  18821428.926    18821434.872
       247.000         215.000
  21116140.961     5304111.20449   4141091.92746  21116140.620    21116147.722
       225.000         175.000
  19893030.540    -5678608.35649  -4411991.06047  19893030.022    19893037.513
       238.000         198.000
  19684978.530   -28654520.01149 -22314050.43647  19684978.133    19684984.552
       240.000         205.000
  21511765.045   -14261817.83849 -10799710.30446  21511764.255    21511773.198
       224.000         170.000
  19418779.042   -23919373.75749 -18618601.24947  19418778.050    19418785.225
       242.000         207.000
 98  3 18  1 28 59.9940000  0  6G30G24G 5G 6G17G10
  18817800.798   -25603312.19349 -19196227.54548  18817800.778    18817806.821
       247.000         215.000
  21123675.935     5343707.85249   4171946.45646  21123675.214    21123683.514
       225.000         175.000
  19901704.538    -5633026.29049  -4376472.59247  19901704.007    19901711.344
       237.000         198.000
  19667341.731   -28747201.86349 -22386270.03947  19667341.253    19667347.932
       241.000         205.000
  21490568.743   -14373204.94349 -10886505.37246  21490567.909    21490576.469
       223.000         170.000
  19417054.430   -23928436.57449 -18625663.17247  19417053.584    19417060.578
       241.000         206.000
 98  3 18  1 29 29.9940000  0  6G30G24G 5G 6G17G10
  18814273.974   -25621845.63449 -19210669.19048  18814274.199    18814280.161
       248.000         215.000
  21131200.476     5383249.54949   4202758.16146  21131200.334    21131207.510
       224.000         174.000
  19910425.141    -5587199.46549  -4340763.40347  19910424.610    19910431.655
       237.000         197.000
  19649713.775   -28839837.13549 -22458453.34947  19649713.576    19649719.876
       241.000         205.000
  21469397.365   -14484460.83449 -10973198.19446  21469396.506    21469405.634
       223.000         170.000
  19415416.542   -23937043.76449 -18632370.06247  19415415.458    19415422.527
       241.000         206.000
 98  3 18  1 29 59.9940000  0  6G30G24G 5G 6G17G10
  18810837.743   -25639903.30749 -19224740.09648  18810837.888    18810843.768
       247.000         215.000
  21138705.920     5422690.95549   4233491.72746  21138704.979    21138713.190
       224.000         174.000
  19919182.755    -5541177.96549  -4304902.51047  19919182.087    19919189.498
       237.000         197.000
  19632087.675   -28932463.04149 -22530629.35047  19632087.369    19632093.793
       241.000         206.000
  21448236.325   -14595662.74449 -11059848.94446  21448235.296    21448243.691
       223.000         170.000
  19413857.528   -23945236.27949 -18638753.81947  19413856.627    19413863.452
       241.000         206.000
 98  3 18  1 30 29.9940000  0  6G30G24G 5G 6G17G10
  18807509.103   -25657395.46649 -19238370.34848  18807509.112    18807515.187
       248.000         215.000
  21146212.436     5462137.83249   4264229.54046  21146212.412    21146219.378
       223.000         173.000
  19927997.192    -5494857.90949  -4268808.98547  19927996.735    19928003.725
       237.000         197.000
  19614485.997   -29024960.48449 -22602705.25347  19614485.564    19614492.074
       241.000         206.000
  21427102.235   -14706722.87349 -11146389.21046  21427101.007    21427110.211
       223.000         170.000
  19412400.041   -23952895.37449 -18644721.93247  19412399.006    19412406.127
       241.000         206.000
 98  3 18  1 30 59.9940000  0  6G30G24G 5G 6G17G10
  18804269.502   -25674419.56849 -19251635.88548  18804269.525    18804275.357
       248.000         215.000
  21153697.834     5501473.99949   4294881.09946  21153697.960    21153705.341
       224.000         173.000
  19936847.147    -5448351.17049  -4232569.99747  19936846.368    19936853.997
       237.000         197.000
  19596889.714   -29117429.46449 -22674758.98747  19596889.456    19596895.827
       242.000         206.000
  21405973.720   -14817753.70849 -11232906.67146  21405972.204    21405981.706
       223.000         170.000
  19411029.074   -23960099.80149 -18650335.76347  19411028.115    19411035.020
       241.000         206.000
 98  3 18  1 31 29.9940000  0  6G30G24G 5G 6G17G10
  18801134.370   -25690894.64549 -19264473.60548  18801134.535    18801140.419
       247.000         215.000
  21161174.373     5540763.03749   4325495.93346  21161174.154    21161181.318
       224.000         172.000
  19945750.797    -5401562.17249  -4196111.06047  19945750.085    19945757.153
       236.000         196.000
  19579314.035   -29209790.23549 -22746728.38947  19579313.823    19579320.164
       241.000         206.000
  21384866.384   -14928672.85349 -11319337.09346  21384866.065    21384874.328
       222.000         170.000
  19409762.826   -23966753.97649 -18655520.81747  19409761.672    19409768.690
       241.000         206.000
 98  3 18  1 31 59.9940000  0  6G30G24G 5G 6G17G10
  18798111.819   -25706778.09749 -19276850.32048  18798111.938    18798118.164
       247.000         214.000
  21168650.111     5580048.40349   4356107.90646  21168649.329    21168657.791
       223.000         172.000
  19954720.022    -5354428.55649  -4159383.59547  19954719.485    19954726.866
       236.000         196.000
  19561768.394   -29301993.00849 -22818574.68147  19561768.290    19561774.789
       241.000         207.000
  21363793.199   -15039412.50549 -11405627.65246  21363792.334    21363801.148
       223.000         171.000
  19408610.114   -23972811.35749 -18660240.84047  19408609.239    19408616.173
       241.000         206.000
 98  3 18  1 32 29.9940000  0  6G30G24G 5G 6G17G10
  18795201.592   -25722071.37149 -19288767.15048  18795201.643    18795207.674
       248.000         214.000
  21176122.195     5619314.57349   4386704.92546  21176122.435    21176129.354
       223.000         171.000
  19963751.809    -5306966.19749  -4122399.95547  19963751.213    19963758.275
       236.000         195.000
  19544250.276   -29394051.37049 -22890308.44547  19544249.947    19544256.271
       242.000         207.000
  21342757.079   -15149957.44749 -11491766.49146  21342755.478    21342764.329
       223.000         171.000
  19407566.305   -23978296.46449 -18664514.93247  19407565.452    19407572.413
       242.000         206.000
 98  3 18  1 32 59.9940000  0  6G30G24G 5G 6G17G10
  18792398.596   -25736801.24449 -19300244.96948  18792398.703    18792404.624
       247.000         214.000
  21183585.400     5658533.59549   4417265.20146  21183584.360    21183593.674
       223.000         171.000
  19972841.771    -5259198.21149  -4085178.17647  19972841.070    19972848.460
       236.000         195.000
  19526753.410   -29485997.79449 -22961954.97847  19526753.160    19526759.476
       242.000         207.000
  21321754.398   -15260326.89149 -11577768.58646  21321753.217    21321761.894
       224.000         172.000
  19406623.613   -23983250.34549 -18668375.08047  19406622.725    19406629.765
       241.000         206.000
 98  3 18  1 33 29.9940000  0  6G30G24G 5G 6G17G10
  18789694.106   -25751013.61349 -19311319.54248  18789694.395    18789700.388
       247.000         214.000
  21191039.062     5697703.02049   4447786.82646  21191038.609    21191047.245
       222.000         171.000
  19981988.262    -5211132.91249  -4047724.72147  19981987.618    19981995.036
       235.000         194.000
  19509274.346   -29577850.82349 -23033528.74347  19509273.941    19509280.527
       242.000         207.000
  21300784.482   -15370524.28749 -11663636.61346  21300783.874    21300791.773
       224.000         172.000
  19405775.342   -23987707.93749 -18671848.51647  19405774.282    19405781.381
       241.000         206.000
 98  3 18  1 33 59.9940000  0  6G30G24G 5G 6G17G10
  18787063.355   -25764838.26649 -19322091.99448  18787063.357    18787069.324
       247.000         214.000
  21198462.065     5736711.37249   4478182.93746  21198461.381    21198469.439
       222.000         171.000
  19991168.014    -5162892.97949  -4010135.18647  19991167.443    19991174.722
       234.000         194.000
  19491791.407   -29669724.23049 -23105118.37447  19491791.124    19491797.598
       242.000         208.000
  21279826.836   -15480656.91949 -11749454.16046  21279826.373    21279834.058
       224.000         173.000
  19405000.027   -23991782.21549 -18675023.25947  19404999.229    19405005.995
       241.000         206.000
 98  3 18  1 34 29.9940000  0  6G30G24G 5G 6G17G10
  18784556.015   -25778014.42149 -19332359.13048  18784555.982    18784562.138
       247.000         214.000
  21205903.666     5775817.22449   4508655.03246  21205903.099    21205911.616
       222.000         170.000
  20000427.723    -5114232.76149  -3972218.16147  20000426.893    20000434.422
       235.000         193.000
  19474350.817   -29761375.06049 -23176534.57847  19474350.698    19474357.073
       242.000         208.000
  21258926.844   -15590486.65149 -11835035.69746  21258926.012    21258934.415
       224.000         173.000
  19404346.580   -23995215.97349 -18677698.89947  19404345.651    19404352.741
       241.000         206.000
 98  3 18  1 34 59.9940000  0  6G30G24G 5G 6G17G10
  18782153.781   -25790638.28249 -19342195.89748  18782153.985    18782159.859
       247.000         214.000
  21213348.994     5814942.86749   4539142.55246  21213349.254    21213356.282
       223.000         171.000
  20009750.887    -5065239.24249  -3934041.41947  20009750.378    20009758.003
       234.000         193.000
  19456935.901   -29852891.15549 -23247845.78447  19456935.874    19456942.094
       242.000         208.000
  21238066.028   -15700110.69049 -11920456.94046  21238064.774    21238073.970
       223.000         173.000
  19403799.184   -23998092.50649 -18679940.33347  19403798.140    19403805.010
       241.000         206.000
 98  3 18  1 35 29.9930000  0  6G30G24G 5G 6G17G10
  18779855.804   -25802714.26149 -19351605.74948  18779855.746    18779861.843
       247.000         214.000
  21220794.480     5854068.98549   4569630.43046  21220794.779    21220800.930
       223.000         170.000
  20019133.352    -5015933.97749  -3895621.76247  20019132.863    20019140.273
       234.000         193.000
  19439544.360   -29944284.22449 -23319061.12947  19439543.954    19439550.504
       242.000         208.000
  21217239.954   -15809552.13049 -12005735.90946  21217239.151    21217247.115
       225.000         173.000
  19403354.799   -24000427.79249 -18681760.02247  19403353.998    19403360.652
       241.000         206.000
 98  3 18  1 35 59.9930000  0  6G30G24G 5G 6G17G10
  18777681.740   -25814139.09449 -19360508.21348  18777681.801    18777687.822
       248.000         214.000
  21228254.656     5893272.28749   4600178.46546  21228254.095    21228262.699
       222.000         170.000
  20028587.858    -4966250.14449  -3856907.12147  20028587.747    20028595.089
       234.000         192.000
  19422190.945   -30035476.81549 -23390120.25647  19422190.497    19422197.036
       242.000         208.000
  21196462.048   -15918740.56349 -12090817.72746  21196460.955    21196469.426
       225.000         174.000
  19403028.137   -24002144.27849 -18683097.53047  19403027.254    19403034.061
       241.000         206.000
 98  3 18  1 36 29.9930000  0  6G30G24G 5G 6G17G10
  18775629.839   -25824921.69549 -19368910.23948  18775629.782    18775635.903
       247.000         214.000
  21235728.123     5932545.91949   4630781.30746  21235727.592    21235734.582
       222.000         169.000
  20038113.209    -4916194.23349  -3817902.54347  20038112.813    20038120.725
       234.000         192.000
  19404877.009   -30126461.95949 -23461017.73347  19404876.673    19404883.002
       242.000         208.000
  21175732.994   -16027672.20549 -12175699.45146  21175732.376    21175740.529
       224.000         174.000
  19402814.334   -24003267.75349 -18683972.94947  19402813.442    19402820.601
       242.000         206.000
 98  3 18  1 36 59.9930000  0  6G30G24G 5G 6G17G10
  18773695.471   -25835086.79649 -19376831.10048  18773695.611    18773701.568
       247.000         214.000
  21243211.898     5971873.59049   4661426.24746  21243211.521    21243219.326
       221.000         169.000
  20047708.915    -4865768.72449  -3778609.97247  20047708.840    20047715.945
       234.000         192.000
  19387603.767   -30217233.30249 -23531748.61647  19387603.112    19387609.682
       243.000         208.000
  21155050.448   -16136359.45749 -12260390.75246  21155049.724    21155058.002
       226.000         174.000
  19402711.129   -24003810.22649 -18684395.64547  19402710.193    19402717.368
       241.000         205.000
 98  3 18  1 37 29.9930000  0  6G30G24G 5G 6G17G10
  18771876.922   -25844643.32049 -19384277.73948  18771877.130    18771882.969
       248.000         214.000
  21250702.979     6011239.63649   4692101.09146  21250702.825    21250710.645
       221.000         169.000
  20057373.487    -4814981.37849  -3739035.44247  20057372.920    20057380.258
       234.000         192.000
  19370369.823   -30307797.85049 -23602318.35947  19370369.512    19370375.853
       242.000         208.000
  21134414.217   -16244803.31349 -12344892.37546  21134413.120    21134421.469
       225.000         175.000
  19402717.785   -24003775.27049 -18684368.39347  19402717.029    19402723.803
       242.000         205.000
 98  3 18  1 37 59.9930000  0  6G30G24G 5G 6G17G10
  18770170.446   -25853611.01949 -19391265.55648  18770170.531    18770176.532
       247.000         214.000
  21258197.893     6050625.54949   4722791.41346  21258197.846    21258205.517
       221.000         169.000
  20067101.712    -4763859.48749  -3699200.22847  20067101.005    20067108.467
       235.000         192.000
  19353173.941   -30398162.53049 -23672732.36247  19353173.567    19353180.071
       242.000         208.000
  21113824.821   -16353001.02549 -12429202.20646  21113823.164    21113831.863
       225.000         175.000
  19402831.770   -24003176.23249 -18683901.60247  19402830.710    19402837.556
       241.000         205.000
 98  3 18  1 38 29.9930000  0  6G30G24G 5G 6G17G10
  18768586.258   -25861935.93649 -19397752.50948  18768586.338    18768592.337
       247.000         214.000
  21265706.788     6090085.37349   4753539.33046  21265706.778    21265714.891
       220.000         168.000
  20076904.297    -4712346.72249  -3659060.44547  20076904.128    20076911.293
       234.000         192.000
  19336025.730   -30488276.61749 -23742951.10647  19336025.438    19336031.623
       243.000         209.000
  21093291.531   -16460903.87349 -12513282.27246  21093289.929    21093298.728
       226.000         175.000
  19403063.643   -24001957.62649 -18682952.03547  19403062.749    19403069.556
       241.000         205.000
 98  3 18  1 38 59.9930000  0  6G30G24G 5G 6G17G10
  18767108.101   -25869703.70049 -19403805.30848  18767108.181    18767114.331
       247.000         214.000
  21273212.031     6129525.94449   4784272.24546  21273211.722    21273220.282
       220.000         167.000
  20086760.140    -4660554.06949  -3618702.55947  20086759.566    20086767.072
       234.000         191.000
  19318904.640   -30578248.45849 -23813058.99947  19318904.471    19318910.804
       243.000         209.000
  21072794.805   -16568614.47149 -12597212.52246  21072794.018    21072802.277
       225.000         175.000
  19403396.264   -24000209.48149 -18681589.83247  19403395.369    19403402.187
       241.000         205.000
 98  3 18  1 39 29.9930000  0  6G30G24G 5G 6G17G10
  18765731.853   -25876935.62649 -19409440.57248  18765731.864    18765738.030
       247.000         214.000
  21280706.815     6168911.51349   4814962.31146  21280706.234    21280713.561
       220.000         166.000
  20096659.157    -4608534.77249  -3578168.06647  20096658.623    20096665.925
       235.000         191.000
  19301805.343   -30668105.93249 -23883077.77547  19301805.118    19301811.528
       243.000         209.000
  21052331.196   -16676151.03349 -12681007.16646  21052330.215    21052338.491
       225.000         176.000
  19403822.120   -23997971.20949 -18679845.71147  19403821.314    19403828.178
       241.000         204.000
 98  3 18  1 39 59.9930000  0  6G30G24G 5G 6G17G10
  18764474.094   -25883544.99249 -19414590.73148  18764474.235    18764480.177
       247.000         214.000
  21288208.409     6208332.54349   4845680.01746  21288207.461    21288215.629
       220.000         166.000
  20106616.416    -4556209.47349  -3537395.13247  20106616.019    20106622.781
       236.000         191.000
  19284744.566   -30757760.90749 -23952938.76947  19284744.169    19284750.417
       243.000         209.000
  21031914.731   -16783439.95749 -12764608.85346  21031913.839    21031921.268
       226.000         176.000
  19404356.250   -23995164.29149 -18677658.49847  19404355.394    19404362.132
       241.000         204.000
 98  3 18  1 40 29.9930000  0  6G30G24G 5G 6G17G10
  18763323.950   -25889588.98949 -19419300.33948  18763324.021    18763330.110
       247.000         214.000
  21295708.853     6247747.87349   4876393.27646  21295708.658    21295715.682
       219.000         165.000
  20116624.829    -4503615.08049  -3496412.51847  20116624.381    20116631.751
       235.000         191.000
  19267713.007   -30847262.06549 -24022679.89847  19267712.750    19267719.037
       243.000         210.000
  21011532.040   -16890551.47749 -12848072.29646  21011531.489    21011539.059
       226.000         176.000
  19404989.550   -23991836.47449 -18675065.38347  19404988.826    19404995.230
       241.000         204.000
 98  3 18  1 40 59.9930000  0  6G30G24G 5G 6G17G10
  18762282.884   -25895059.91749 -19423563.40448  18762283.052    18762289.130
       247.000         214.000
  21303208.602     6287159.33749   4907103.51246  21303208.296    21303216.522
       219.000         165.000
  20126687.386    -4450736.23449  -3455208.25247  20126686.735    20126693.699
       235.000         190.000
  19250715.655   -30936583.53049 -24092281.01547  19250715.507    19250721.783
       243.000         210.000
  20991186.573   -16997467.20549 -12931383.18046  20991185.804    20991193.218
       227.000         176.000
  19405725.377   -23987969.44549 -18672052.10847  19405724.457    19405731.267
       241.000         204.000
 98  3 18  1 41 29.9930000  0  6G30G24G 5G 6G17G10
  18761375.201   -25899829.84649 -19427280.23648  18761375.460    18761381.445
       247.000         214.000
  21310733.176     6326701.47149   4937915.57546  21310732.187    21310741.335
       218.000         165.000
  20136831.089    -4397430.77649  -3413671.56047  20136830.302    20136837.370
       235.000         190.000
  19233780.170   -31025580.14349 -24161629.00347  19233780.051    19233785.936
       244.000         210.000
  20970904.915   -17104047.87349 -13014432.97346  20970904.275    20970912.021
       227.000         176.000
  19406590.843   -23983421.54449 -18668508.28047  19406590.137    19406597.167
       241.000         204.000
 98  3 18  1 41 59.9930000  0  6G30G24G 5G 6G17G10
  18760578.750   -25904015.24249 -19430541.58248  18760578.941    18760584.910
       247.000         214.000
  21318261.113     6366261.13349   4968741.28346  21318261.205    21318268.123
       220.000         165.000
  20147034.945    -4343809.26749  -3371888.58847  20147034.218    20147041.873
       234.000         190.000
  19216880.446   -31114388.78449 -24230830.51847  19216880.151    19216886.327
       244.000         210.000
  20950665.031   -17210409.04249 -13097311.72646  20950664.147    20950672.287
       227.000         177.000
  19407563.169   -23978311.93749 -18664526.75647  19407562.034    19407569.025
       241.000         204.000
 98  3 18  1 42 29.9930000  0  6G30G24G 5G 6G17G10
  18759898.275   -25907591.29649 -19433328.12448  18759898.353    18759904.479
       247.000         214.000
  21325792.234     6405837.33249   4999579.88046  21325792.081    21325799.800
       220.000         165.000
  20157300.684    -4289862.43149  -3329852.12647  20157300.072    20157307.438
       234.000         189.000
  19200019.570   -31202993.13349 -24299872.84647  19200019.283    19200025.466
       244.000         210.000
  20930473.155   -17316518.01749 -13179993.97446  20930472.645    20930479.873
       227.000         177.000
  19408644.149   -23972631.25149 -18660100.24047  19408643.356    19408650.078
       241.000         204.000
 98  3 18  1 42 59.9930000  0  6G30G24G 5G 6G17G10
  18759325.993   -25910598.82149 -19435671.65348  18759326.289    18759332.169
       247.000         214.000
  21333318.304     6445387.17449   5030397.95246  21333318.371    21333325.579
       220.000         165.000
  20167618.282    -4235643.16749  -3287603.38047  20167617.699    20167624.855
       234.000         189.000
  19183189.836   -31291433.86449 -24368787.67747  19183189.474    19183195.718
       244.000         210.000
  20910325.106   -17422396.52549 -13262496.62146  20910324.613    20910332.282
       227.000         177.000
  19409825.964   -23966420.71049 -18655260.84847  19409824.868    19409832.187
       240.000         204.000
 98  3 18  1 43 29.9930000  0  6G30G24G 5G 6G17G10
  18758855.875   -25913069.28749 -19437596.69048  18758856.064    18758862.020
       247.000         214.000
  21340837.964     6484903.00649   5061189.50846  21340838.185    21340845.198
       220.000         165.000
  20177984.678    -4181167.53249  -3245154.85447  20177984.222    20177991.647
       233.000         189.000
  19166386.676   -31379735.13649 -24437593.83347  19166386.467    19166392.664
       244.000         210.000
  20890216.618   -17528066.99449 -13344837.17146  20890215.854    20890223.261
       228.000         178.000
  19411102.272   -23959713.62049 -18650034.52847  19411101.324    19411108.301
       241.000         203.000
 98  3 18  1 43 59.9930000  0  6G30G24G 5G 6G17G10
  18758499.608   -25914941.47449 -19439055.54148  18758499.431    18758505.774
       247.000         214.000
  21348362.252     6524443.41149   5092000.21646  21348362.256    21348369.284
       218.000         165.000
  20188411.642    -4126373.49249  -3202458.23147  20188410.824    20188418.609
       233.000         188.000
  19149623.126   -31467828.04049 -24506237.63047  19149622.882    19149629.145
       244.000         210.000
  20870159.021   -17633470.08649 -13426969.37646  20870158.780    20870166.377
       228.000         178.000
  19412483.157   -23952456.79849 -18644379.84847  19412481.928    19412489.255
       240.000         203.000
 98  3 18  1 44 29.9930000  0  6G30G24G 5G 6G17G10
  18758260.345   -25916198.59249 -19440035.11948  18758260.317    18758266.319
       247.000         214.000
  21355897.300     6564040.52349   5122855.10246  21355897.120    21355904.757
       219.000         164.000
  20198907.128    -4071219.21149  -3159480.89847  20198906.468    20198914.091
       233.000         188.000
  19132909.752   -31555657.16649 -24574675.89047  19132909.422    19132915.764
       244.000         211.000
  20850156.149   -17738585.54449 -13508877.44446  20850155.398    20850162.835
       228.000         178.000
  19413976.665   -23944608.39649 -18638264.19547  19413975.674    19413982.769
       240.000         203.000
 98  3 18  1 44 59.9930000  0  6G30G24G 5G 6G17G10
  18758127.864   -25916894.67449 -19440577.52648  18758128.078    18758134.202
       247.000         214.000
  21363439.177     6603673.01749   5153737.55746  21363438.969    21363446.154
       218.000         163.000
  20209465.842    -4015732.51449  -3116244.54747  20209465.278    20209473.116
       232.000         188.000
  19116238.456   -31643265.17749 -24642941.85247  19116238.084    19116244.623
       244.000         211.000
  20830197.454   -17843468.78049 -13590604.57946  20830196.475    20830204.426
       227.000         178.000
  19415577.025   -23936198.21749 -18631710.79747  19415576.206    19415583.027
       240.000         203.000
 98  3 18  1 45 29.9930000  0  6G30G24G 5G 6G17G10
  18758098.946   -25917046.80749 -19440696.07048  18758098.968    18758105.289
       247.000         214.000
  21370982.010     6643310.95649   5184624.25846  21370981.987    21370989.119
       218.000         163.000
  20220083.395    -3959937.11649  -3072767.64646  20220082.848    20220090.442
       232.000         187.000
  19099603.137   -31730684.39149 -24711060.68947  19099602.870    19099609.061
       245.000         211.000
  20810275.731   -17948157.61149 -13672180.21246  20810275.416    20810282.775
       228.000         179.000
  19417279.066   -23927253.79949 -18624741.10347  19417278.128    19417285.117
       240.000         203.000
 98  3 18  1 45 59.9930000  0  6G30G24G 5G 6G17G10
  18758176.827   -25916637.67449 -19440377.26848  18758176.944    18758183.002
       247.000         214.000
  21378522.541     6682936.89449   5215501.62145  21378522.307    21378529.289
       218.000         162.000
  20230754.689    -3903859.32249  -3029070.68846  20230754.290    20230761.358
       232.000         187.000
  19083003.450   -31817916.37449 -24779033.64047  19083003.062    19083009.178
       244.000         211.000
  20790388.488   -18052665.35649 -13753614.74046  20790387.454    20790395.446
       228.000         179.000
  19419082.464   -23917776.91549 -18617356.50347  19419081.410    19419088.385
       240.000         203.000
 98  3 18  1 46 29.9930000  0  6G30G24G 5G 6G17G10
  18758358.574   -25915682.84049 -19439633.24648  18758358.619    18758364.531
       247.000         214.000
  21386057.360     6722532.67049   5246355.45446  21386057.261    21386064.783
       219.000         163.000
  20241473.744    -3847530.47249  -2985178.11046  20241473.190    20241480.852
       232.000         187.000
  19066435.170   -31904983.19049 -24846877.88847  19066434.642    19066441.136
       244.000         211.000
  20770530.964   -18157017.16149 -13834927.77546  20770529.532    20770538.105
       228.000         180.000
  19420983.908   -23907784.57649 -18609570.24647  19420982.993    19420990.107
       239.000         203.000
